<?xml version='1.0' encoding='UTF-8'?><gpx version="1.1" creator="JPX - https://github.com/jenetics/jpx" xmlns="http://www.topografix.com/GPX/1/1"><trk><trkseg><trkpt lat="45.65006242370563" lon="8.609293186820235"><ele>313.0</ele><time>2026-04-25T15:29:35Z</time></trkpt><trkpt lat="45.65012574176668" lon="8.609234219613809"><ele>313.0</ele><time>2026-04-25T15:29:38Z</time></trkpt><trkpt lat="45.65019584847969" lon="8.60915921606844"><ele>313.0</ele><time>2026-04-25T15:29:41Z</time></trkpt><trkpt lat="45.650237885887194" lon="8.609082246826334"><ele>313.0</ele><time>2026-04-25T15:29:44Z</time></trkpt><trkpt lat="45.650285401558875" lon="8.60902276927634"><ele>313.0</ele><time>2026-04-25T15:29:48Z</time></trkpt><trkpt lat="45.65034888263762" lon="8.609007009652615"><ele>313.0</ele><time>2026-04-25T15:29:51Z</time></trkpt><trkpt lat="45.65043180427778" lon="8.608968045771249"><ele>313.0</ele><time>2026-04-25T15:29:55Z</time></trkpt><trkpt lat="45.65048925387443" lon="8.608886111935467"><ele>313.16666666666663</ele><time>2026-04-25T15:29:57Z</time></trkpt><trkpt lat="45.650543118191116" lon="8.608830438334689"><ele>313.3333333333333</ele><time>2026-04-25T15:30:00Z</time></trkpt><trkpt lat="45.65058730443806" lon="8.608737571327419"><ele>313.5</ele><time>2026-04-25T15:30:02Z</time></trkpt><trkpt lat="45.65066044588087" lon="8.608676593635142"><ele>313.6666666666667</ele><time>2026-04-25T15:30:05Z</time></trkpt><trkpt lat="45.65070793615708" lon="8.608601999880253"><ele>313.83333333333337</ele><time>2026-04-25T15:30:09.999Z</time></trkpt><trkpt lat="45.65076097212244" lon="8.608530143316937"><ele>314.0</ele><time>2026-04-25T15:30:13.999Z</time></trkpt><trkpt lat="45.6508309889888" lon="8.608454464584607"><ele>314.75</ele><time>2026-04-25T15:30:16.999Z</time></trkpt><trkpt lat="45.65092993305749" lon="8.608364133582239"><ele>315.5</ele><time>2026-04-25T15:30:18.999Z</time></trkpt><trkpt lat="45.6510225469566" lon="8.60828431143557"><ele>316.25</ele><time>2026-04-25T15:30:20.999Z</time></trkpt><trkpt lat="45.6511197440657" lon="8.60820069741316"><ele>317.0</ele><time>2026-04-25T15:30:22.999Z</time></trkpt><trkpt lat="45.65120795210771" lon="8.608059818158628"><ele>317.33333333333337</ele><time>2026-04-25T15:30:24.999Z</time></trkpt><trkpt lat="45.65126039415165" lon="8.607974254518503"><ele>317.6666666666667</ele><time>2026-04-25T15:30:25.999Z</time></trkpt><trkpt lat="45.65130033197398" lon="8.607862674096294"><ele>318.0</ele><time>2026-04-25T15:30:27.999Z</time></trkpt><trkpt lat="45.651290766416906" lon="8.607708751838341"><ele>318.3333333333333</ele><time>2026-04-25T15:30:29.999Z</time></trkpt><trkpt lat="45.65127654486454" lon="8.607583499195446"><ele>318.66666666666663</ele><time>2026-04-25T15:30:31.999Z</time></trkpt><trkpt lat="45.651257443273664" lon="8.607484214056146"><ele>319.0</ele><time>2026-04-25T15:30:32.999Z</time></trkpt><trkpt lat="45.651228121878944" lon="8.607361293181945"><ele>319.0</ele><time>2026-04-25T15:30:33.999Z</time></trkpt><trkpt lat="45.65118619559557" lon="8.607234346047658"><ele>319.0</ele><time>2026-04-25T15:30:34.999Z</time></trkpt><trkpt lat="45.65116109674622" lon="8.607103618470859"><ele>319.0</ele><time>2026-04-25T15:30:35.999Z</time></trkpt><trkpt lat="45.651137453291305" lon="8.60698821977664"><ele>319.0</ele><time>2026-04-25T15:30:36.999Z</time></trkpt><trkpt lat="45.65110641948192" lon="8.60685210638933"><ele>319.0</ele><time>2026-04-25T15:30:37.999Z</time></trkpt><trkpt lat="45.651077772674135" lon="8.606749709023362"><ele>318.8333333333333</ele><time>2026-04-25T15:30:38.999Z</time></trkpt><trkpt lat="45.65106345948353" lon="8.606652776391117"><ele>318.66666666666663</ele><time>2026-04-25T15:30:39.999Z</time></trkpt><trkpt lat="45.65104074647792" lon="8.606542340003543"><ele>318.5</ele><time>2026-04-25T15:30:41.999Z</time></trkpt><trkpt lat="45.65098818627091" lon="8.606471849319938"><ele>318.3333333333333</ele><time>2026-04-25T15:31:10.998Z</time></trkpt><trkpt lat="45.65087966041015" lon="8.606462205822156"><ele>318.1666666666667</ele><time>2026-04-25T15:31:12.998Z</time></trkpt><trkpt lat="45.65078167547564" lon="8.606519833438195"><ele>318.0</ele><time>2026-04-25T15:31:14.998Z</time></trkpt><trkpt lat="45.65071813002994" lon="8.606499723381797"><ele>318.0</ele><time>2026-04-25T15:31:16.998Z</time></trkpt><trkpt lat="45.65063612641882" lon="8.606443983662036"><ele>318.0</ele><time>2026-04-25T15:31:18.998Z</time></trkpt><trkpt lat="45.65053574309408" lon="8.606452471625172"><ele>318.0</ele><time>2026-04-25T15:31:20.998Z</time></trkpt><trkpt lat="45.65042001974347" lon="8.606407767899967"><ele>318.0</ele><time>2026-04-25T15:31:22.998Z</time></trkpt><trkpt lat="45.650351243318745" lon="8.606405636116168"><ele>318.0</ele><time>2026-04-25T15:31:24.998Z</time></trkpt><trkpt lat="45.65028658344849" lon="8.606364121583825"><ele>319.3333333333333</ele><time>2026-04-25T15:31:40Z</time></trkpt><trkpt lat="45.65018472537882" lon="8.606379352366035"><ele>320.6666666666667</ele><time>2026-04-25T15:31:42Z</time></trkpt><trkpt lat="45.65009939607756" lon="8.606364405724857"><ele>322.0</ele><time>2026-04-25T15:31:45Z</time></trkpt><trkpt lat="45.650024657844966" lon="8.606376206961988"><ele>323.33333333333337</ele><time>2026-04-25T15:31:47Z</time></trkpt><trkpt lat="45.64993978087551" lon="8.606380480637583"><ele>324.6666666666667</ele><time>2026-04-25T15:31:50Z</time></trkpt><trkpt lat="45.64986600956326" lon="8.60642237519767"><ele>326.0</ele><time>2026-04-25T15:31:53Z</time></trkpt><trkpt lat="45.649801240914904" lon="8.606429649084946"><ele>326.0</ele><time>2026-04-25T15:31:55Z</time></trkpt><trkpt lat="45.64972046628335" lon="8.60645248882911"><ele>326.0</ele><time>2026-04-25T15:31:58Z</time></trkpt><trkpt lat="45.64965367161648" lon="8.606482767322458"><ele>326.0</ele><time>2026-04-25T15:32:00Z</time></trkpt><trkpt lat="45.64958835106794" lon="8.6065023820235"><ele>326.0</ele><time>2026-04-25T15:32:04Z</time></trkpt><trkpt lat="45.64952108089069" lon="8.606556315381239"><ele>326.0</ele><time>2026-04-25T15:32:08Z</time></trkpt><trkpt lat="45.649453034984056" lon="8.606585065714972"><ele>326.0</ele><time>2026-04-25T15:32:12Z</time></trkpt><trkpt lat="45.64937737366965" lon="8.606601048457343"><ele>326.0</ele><time>2026-04-25T15:32:15Z</time></trkpt><trkpt lat="45.64930985120765" lon="8.606613468060505"><ele>326.0</ele><time>2026-04-25T15:32:17.999Z</time></trkpt><trkpt lat="45.64922461564419" lon="8.606624510588686"><ele>326.0</ele><time>2026-04-25T15:32:30.999Z</time></trkpt><trkpt lat="45.64928155087953" lon="8.606665762497036"><ele>326.0</ele><time>2026-04-25T15:32:44.999Z</time></trkpt><trkpt lat="45.64934616436632" lon="8.606610375113307"><ele>326.0</ele><time>2026-04-25T15:32:47.999Z</time></trkpt><trkpt lat="45.64940201430948" lon="8.60654244357428"><ele>326.0</ele><time>2026-04-25T15:32:50.999Z</time></trkpt><trkpt lat="45.649472388258815" lon="8.6064612568725"><ele>326.0</ele><time>2026-04-25T15:32:53.999Z</time></trkpt><trkpt lat="45.649553969551455" lon="8.606420742784895"><ele>326.0</ele><time>2026-04-25T15:32:55.998Z</time></trkpt><trkpt lat="45.64960862837383" lon="8.606371141097181"><ele>326.0</ele><time>2026-04-25T15:32:58.998Z</time></trkpt><trkpt lat="45.64966808914957" lon="8.6062945673812"><ele>326.0</ele><time>2026-04-25T15:33:02.998Z</time></trkpt><trkpt lat="45.6497403227578" lon="8.606312831805434"><ele>326.0</ele><time>2026-04-25T15:33:04.998Z</time></trkpt><trkpt lat="45.64980560823527" lon="8.606323535562934"><ele>326.0</ele><time>2026-04-25T15:33:07.998Z</time></trkpt><trkpt lat="45.64987009047698" lon="8.606300030261758"><ele>326.0</ele><time>2026-04-25T15:33:09.998Z</time></trkpt><trkpt lat="45.64994447498344" lon="8.606255225241657"><ele>326.0</ele><time>2026-04-25T15:33:11.998Z</time></trkpt><trkpt lat="45.650014681542466" lon="8.606218304958118"><ele>326.0</ele><time>2026-04-25T15:33:14.998Z</time></trkpt><trkpt lat="45.65009240040949" lon="8.606254192297751"><ele>326.0</ele><time>2026-04-25T15:33:45Z</time></trkpt><trkpt lat="45.65014175434034" lon="8.606172546397236"><ele>326.0</ele><time>2026-04-25T15:34:00Z</time></trkpt><trkpt lat="45.65013981688103" lon="8.606062673464827"><ele>326.0</ele><time>2026-04-25T15:34:03Z</time></trkpt><trkpt lat="45.65014328576246" lon="8.605967221244855"><ele>326.0</ele><time>2026-04-25T15:34:06Z</time></trkpt><trkpt lat="45.650157660619556" lon="8.605871744311699"><ele>326.0</ele><time>2026-04-25T15:34:12Z</time></trkpt><trkpt lat="45.65023649153503" lon="8.60580941239083"><ele>323.33333333333337</ele><time>2026-04-25T15:34:16Z</time></trkpt><trkpt lat="45.650362936695196" lon="8.60584082216035"><ele>320.6666666666667</ele><time>2026-04-25T15:34:17Z</time></trkpt><trkpt lat="45.65047945917339" lon="8.605866623345015"><ele>318.0</ele><time>2026-04-25T15:34:18Z</time></trkpt><trkpt lat="45.65070433657145" lon="8.605971510633859"><ele>318.0</ele><time>2026-04-25T15:34:19Z</time></trkpt><trkpt lat="45.65090742050499" lon="8.606035697824788"><ele>318.0</ele><time>2026-04-25T15:34:19.999Z</time></trkpt><trkpt lat="45.65112221880075" lon="8.606108318142983"><ele>318.0</ele><time>2026-04-25T15:34:20.999Z</time></trkpt><trkpt lat="45.651340232856846" lon="8.60619171058078"><ele>318.25</ele><time>2026-04-25T15:34:21.999Z</time></trkpt><trkpt lat="45.65152087815247" lon="8.606257268003969"><ele>318.5</ele><time>2026-04-25T15:34:22.999Z</time></trkpt><trkpt lat="45.651644752666485" lon="8.606293292121682"><ele>318.75</ele><time>2026-04-25T15:34:23.999Z</time></trkpt><trkpt lat="45.6517519341718" lon="8.606327150012344"><ele>319.0</ele><time>2026-04-25T15:34:24.999Z</time></trkpt><trkpt lat="45.65184554454434" lon="8.606355914410539"><ele>319.0</ele><time>2026-04-25T15:34:25.999Z</time></trkpt><trkpt lat="45.65193584068513" lon="8.606371867951946"><ele>319.0</ele><time>2026-04-25T15:34:26.999Z</time></trkpt><trkpt lat="45.65202133506848" lon="8.606382958698308"><ele>319.0</ele><time>2026-04-25T15:34:27.999Z</time></trkpt><trkpt lat="45.65210519113185" lon="8.606414635129022"><ele>319.0</ele><time>2026-04-25T15:34:29.999Z</time></trkpt><trkpt lat="45.65222153856716" lon="8.60639284829814"><ele>319.0</ele><time>2026-04-25T15:34:31.999Z</time></trkpt><trkpt lat="45.65227600666531" lon="8.606343632394971"><ele>319.0</ele><time>2026-04-25T15:34:32.999Z</time></trkpt><trkpt lat="45.65228482966895" lon="8.606252880920719"><ele>319.3333333333333</ele><time>2026-04-25T15:34:35.999Z</time></trkpt><trkpt lat="45.65229341303811" lon="8.606088512835155"><ele>319.66666666666663</ele><time>2026-04-25T15:34:37.999Z</time></trkpt><trkpt lat="45.65229814002669" lon="8.605970549361437"><ele>320.0</ele><time>2026-04-25T15:34:38.999Z</time></trkpt><trkpt lat="45.65229599309067" lon="8.605855957685948"><ele>320.3333333333333</ele><time>2026-04-25T15:34:39.999Z</time></trkpt><trkpt lat="45.652288903038446" lon="8.605738980921785"><ele>320.6666666666667</ele><time>2026-04-25T15:34:40.999Z</time></trkpt><trkpt lat="45.65228706530199" lon="8.60562485761522"><ele>321.0</ele><time>2026-04-25T15:34:41.999Z</time></trkpt><trkpt lat="45.65228760602208" lon="8.60549875264502"><ele>321.0</ele><time>2026-04-25T15:34:42.999Z</time></trkpt><trkpt lat="45.652293827087334" lon="8.605357904854753"><ele>321.0</ele><time>2026-04-25T15:34:43.999Z</time></trkpt><trkpt lat="45.65230103533577" lon="8.605209135369122"><ele>321.0</ele><time>2026-04-25T15:34:44.999Z</time></trkpt><trkpt lat="45.65230242994944" lon="8.60509638102455"><ele>321.0</ele><time>2026-04-25T15:34:45.999Z</time></trkpt><trkpt lat="45.65228952704531" lon="8.604957782965108"><ele>321.0</ele><time>2026-04-25T15:34:47.999Z</time></trkpt><trkpt lat="45.65222686329255" lon="8.604853616033758"><ele>321.0</ele><time>2026-04-25T15:34:49.999Z</time></trkpt><trkpt lat="45.652118095442596" lon="8.604785310529355"><ele>321.0</ele><time>2026-04-25T15:34:51.999Z</time></trkpt><trkpt lat="45.65205063022759" lon="8.604749590958088"><ele>321.0</ele><time>2026-04-25T15:34:52.999Z</time></trkpt><trkpt lat="45.65197451118539" lon="8.604711581428779"><ele>321.0</ele><time>2026-04-25T15:34:53.999Z</time></trkpt><trkpt lat="45.651895219768676" lon="8.604672505189964"><ele>321.0</ele><time>2026-04-25T15:34:54.999Z</time></trkpt><trkpt lat="45.65181065671646" lon="8.604637610510377"><ele>321.0</ele><time>2026-04-25T15:34:55.999Z</time></trkpt><trkpt lat="45.65172421628551" lon="8.604603134626618"><ele>321.0</ele><time>2026-04-25T15:34:56.999Z</time></trkpt><trkpt lat="45.65164623000481" lon="8.604564491285597"><ele>321.0</ele><time>2026-04-25T15:34:57.999Z</time></trkpt><trkpt lat="45.651573496526076" lon="8.60453229703293"><ele>321.0</ele><time>2026-04-25T15:34:58.999Z</time></trkpt><trkpt lat="45.65149540444654" lon="8.604495124515854"><ele>321.0</ele><time>2026-04-25T15:34:59.998Z</time></trkpt><trkpt lat="45.65141961927068" lon="8.6044633685918"><ele>321.0</ele><time>2026-04-25T15:35:00.998Z</time></trkpt><trkpt lat="45.65134836098639" lon="8.604435212396611"><ele>321.0</ele><time>2026-04-25T15:35:01.998Z</time></trkpt><trkpt lat="45.65127494114073" lon="8.604395507735235"><ele>320.8</ele><time>2026-04-25T15:35:02.998Z</time></trkpt><trkpt lat="45.65120103333274" lon="8.60434536971421"><ele>320.6</ele><time>2026-04-25T15:35:03.998Z</time></trkpt><trkpt lat="45.65113350735461" lon="8.604258648837902"><ele>320.4</ele><time>2026-04-25T15:35:04.998Z</time></trkpt><trkpt lat="45.65106456450627" lon="8.60413774274586"><ele>320.2</ele><time>2026-04-25T15:35:05.998Z</time></trkpt><trkpt lat="45.65100219451478" lon="8.604006777513996"><ele>320.0</ele><time>2026-04-25T15:35:06.998Z</time></trkpt><trkpt lat="45.65094385821773" lon="8.603884152921514"><ele>319.8</ele><time>2026-04-25T15:35:07.998Z</time></trkpt><trkpt lat="45.650881232795584" lon="8.603774368186613"><ele>319.6</ele><time>2026-04-25T15:35:08.998Z</time></trkpt><trkpt lat="45.65082335714802" lon="8.603663352670612"><ele>319.4</ele><time>2026-04-25T15:35:09.998Z</time></trkpt><trkpt lat="45.650759008686485" lon="8.603546566694094"><ele>319.2</ele><time>2026-04-25T15:35:10.998Z</time></trkpt><trkpt lat="45.65068727552978" lon="8.603430963805259"><ele>319.0</ele><time>2026-04-25T15:35:11.998Z</time></trkpt><trkpt lat="45.65060770543699" lon="8.603316331129777"><ele>319.0</ele><time>2026-04-25T15:35:12.998Z</time></trkpt><trkpt lat="45.65051529550262" lon="8.603208559430781"><ele>319.0</ele><time>2026-04-25T15:35:13.998Z</time></trkpt><trkpt lat="45.650406427781576" lon="8.603113569364886"><ele>319.0</ele><time>2026-04-25T15:35:14.998Z</time></trkpt><trkpt lat="45.65028639409203" lon="8.603016094340155"><ele>319.0</ele><time>2026-04-25T15:35:15.998Z</time></trkpt><trkpt lat="45.650125021362264" lon="8.602922889022157"><ele>318.66666666666663</ele><time>2026-04-25T15:35:16.998Z</time></trkpt><trkpt lat="45.64994715890014" lon="8.60284227317647"><ele>318.3333333333333</ele><time>2026-04-25T15:35:17.998Z</time></trkpt><trkpt lat="45.64974717087665" lon="8.602770577436532"><ele>318.0</ele><time>2026-04-25T15:35:18.998Z</time></trkpt><trkpt lat="45.64953837042842" lon="8.60270182983255"><ele>316.3333333333333</ele><time>2026-04-25T15:35:19.998Z</time></trkpt><trkpt lat="45.649347446338176" lon="8.602631421723842"><ele>314.66666666666663</ele><time>2026-04-25T15:35:20.998Z</time></trkpt><trkpt lat="45.649163159691156" lon="8.60256714925264"><ele>313.0</ele><time>2026-04-25T15:35:21.998Z</time></trkpt><trkpt lat="45.64897380032518" lon="8.602494425061755"><ele>313.0</ele><time>2026-04-25T15:35:22.998Z</time></trkpt><trkpt lat="45.648794686967015" lon="8.602432443410112"><ele>313.0</ele><time>2026-04-25T15:35:23.998Z</time></trkpt><trkpt lat="45.648629985578154" lon="8.602387687146502"><ele>313.0</ele><time>2026-04-25T15:35:24.998Z</time></trkpt><trkpt lat="45.648472578128334" lon="8.602339958262304"><ele>314.75</ele><time>2026-04-25T15:35:25.998Z</time></trkpt><trkpt lat="45.64832661580965" lon="8.602307079516955"><ele>316.5</ele><time>2026-04-25T15:35:26.998Z</time></trkpt><trkpt lat="45.64820413294202" lon="8.602284882794203"><ele>318.25</ele><time>2026-04-25T15:35:27.998Z</time></trkpt><trkpt lat="45.64809851185277" lon="8.60227665538846"><ele>320.0</ele><time>2026-04-25T15:35:28.998Z</time></trkpt><trkpt lat="45.647994116770434" lon="8.6022777582013"><ele>320.0</ele><time>2026-04-25T15:35:29.998Z</time></trkpt><trkpt lat="45.647874790509334" lon="8.602290373277178"><ele>320.0</ele><time>2026-04-25T15:35:30.998Z</time></trkpt><trkpt lat="45.64773807231698" lon="8.60232346413924"><ele>320.0</ele><time>2026-04-25T15:35:31.998Z</time></trkpt><trkpt lat="45.64759076315095" lon="8.60235817610418"><ele>320.0</ele><time>2026-04-25T15:35:32.998Z</time></trkpt><trkpt lat="45.64745458514032" lon="8.602391152965051"><ele>320.2</ele><time>2026-04-25T15:35:33.998Z</time></trkpt><trkpt lat="45.64733268433564" lon="8.602414407911265"><ele>320.4</ele><time>2026-04-25T15:35:34.998Z</time></trkpt><trkpt lat="45.6472197425559" lon="8.602424144635059"><ele>320.6</ele><time>2026-04-25T15:35:35.998Z</time></trkpt><trkpt lat="45.647117001330315" lon="8.60243481672065"><ele>320.8</ele><time>2026-04-25T15:35:36.998Z</time></trkpt><trkpt lat="45.64704361908533" lon="8.602443248990859"><ele>321.0</ele><time>2026-04-25T15:35:37.998Z</time></trkpt><trkpt lat="45.64695849026969" lon="8.60251355145322"><ele>321.0</ele><time>2026-04-25T15:35:39.997Z</time></trkpt><trkpt lat="45.64693435467994" lon="8.602756883012736"><ele>321.0</ele><time>2026-04-25T15:35:41.997Z</time></trkpt><trkpt lat="45.646943788063545" lon="8.602894412228059"><ele>321.0</ele><time>2026-04-25T15:35:42.997Z</time></trkpt><trkpt lat="45.646970799401174" lon="8.603106697631363"><ele>321.0</ele><time>2026-04-25T15:35:43.997Z</time></trkpt><trkpt lat="45.64699634773711" lon="8.60330144892863"><ele>320.5</ele><time>2026-04-25T15:35:44.997Z</time></trkpt><trkpt lat="45.64700519909433" lon="8.603486424377472"><ele>320.0</ele><time>2026-04-25T15:35:45.997Z</time></trkpt><trkpt lat="45.64702510583926" lon="8.60366578162031"><ele>319.5</ele><time>2026-04-25T15:35:46.997Z</time></trkpt><trkpt lat="45.647038384700956" lon="8.60381765796331"><ele>319.0</ele><time>2026-04-25T15:35:48Z</time></trkpt><trkpt lat="45.647052075170706" lon="8.603987197462752"><ele>318.8</ele><time>2026-04-25T15:35:49Z</time></trkpt><trkpt lat="45.6470624169801" lon="8.604150128971995"><ele>318.59999999999997</ele><time>2026-04-25T15:35:50Z</time></trkpt><trkpt lat="45.64709342641608" lon="8.604309203461758"><ele>318.4</ele><time>2026-04-25T15:35:51Z</time></trkpt><trkpt lat="45.64710725921383" lon="8.604426122483101"><ele>318.2</ele><time>2026-04-25T15:35:52Z</time></trkpt><trkpt lat="45.6470792617513" lon="8.604605849470772"><ele>318.0</ele><time>2026-04-25T15:35:54Z</time></trkpt><trkpt lat="45.64696861607042" lon="8.604661131350893"><ele>319.0</ele><time>2026-04-25T15:35:56Z</time></trkpt><trkpt lat="45.64688157407723" lon="8.604712982078473"><ele>320.0</ele><time>2026-04-25T15:35:57Z</time></trkpt><trkpt lat="45.646792641413526" lon="8.60476727661369"><ele>321.0</ele><time>2026-04-25T15:35:58Z</time></trkpt><trkpt lat="45.646722740652585" lon="8.604793435569523"><ele>322.0</ele><time>2026-04-25T15:35:59Z</time></trkpt><trkpt lat="45.64663694018944" lon="8.604823576827938"><ele>323.0</ele><time>2026-04-25T15:36:00Z</time></trkpt><trkpt lat="45.646522568031436" lon="8.604855270039296"><ele>323.0</ele><time>2026-04-25T15:36:01Z</time></trkpt><trkpt lat="45.646393763631195" lon="8.604880345516321"><ele>323.0</ele><time>2026-04-25T15:36:02Z</time></trkpt><trkpt lat="45.64626873461336" lon="8.604892220125123"><ele>323.0</ele><time>2026-04-25T15:36:03Z</time></trkpt><trkpt lat="45.64614406370328" lon="8.604910783434024"><ele>323.0</ele><time>2026-04-25T15:36:04Z</time></trkpt><trkpt lat="45.646023315837745" lon="8.604933154420959"><ele>323.5</ele><time>2026-04-25T15:36:05Z</time></trkpt><trkpt lat="45.645892861785725" lon="8.604965862566221"><ele>324.0</ele><time>2026-04-25T15:36:06Z</time></trkpt><trkpt lat="45.645761287828314" lon="8.605014267549137"><ele>324.5</ele><time>2026-04-25T15:36:07Z</time></trkpt><trkpt lat="45.645624385031404" lon="8.605036248684776"><ele>325.0</ele><time>2026-04-25T15:36:08Z</time></trkpt><trkpt lat="45.645505938980875" lon="8.605043753381462"><ele>325.0</ele><time>2026-04-25T15:36:09Z</time></trkpt><trkpt lat="45.64539207278894" lon="8.60506257792047"><ele>325.0</ele><time>2026-04-25T15:36:10Z</time></trkpt><trkpt lat="45.64527472732818" lon="8.605081099015278"><ele>325.0</ele><time>2026-04-25T15:36:11Z</time></trkpt><trkpt lat="45.64516060030498" lon="8.605113234165128"><ele>325.0</ele><time>2026-04-25T15:36:12Z</time></trkpt><trkpt lat="45.64504822390224" lon="8.605123258423491"><ele>324.6</ele><time>2026-04-25T15:36:13Z</time></trkpt><trkpt lat="45.64497015469065" lon="8.605116965198093"><ele>324.2</ele><time>2026-04-25T15:36:14Z</time></trkpt><trkpt lat="45.644828884265046" lon="8.605154468636927"><ele>323.79999999999995</ele><time>2026-04-25T15:36:16Z</time></trkpt><trkpt lat="45.64472711782568" lon="8.605189186541613"><ele>323.4</ele><time>2026-04-25T15:36:17Z</time></trkpt><trkpt lat="45.644621607763746" lon="8.60523071827953"><ele>323.0</ele><time>2026-04-25T15:36:18Z</time></trkpt><trkpt lat="45.64453998567376" lon="8.605251296592932"><ele>323.0</ele><time>2026-04-25T15:36:19Z</time></trkpt><trkpt lat="45.64447588360451" lon="8.605265547462928"><ele>323.0</ele><time>2026-04-25T15:36:20Z</time></trkpt><trkpt lat="45.64435789662864" lon="8.605261539579953"><ele>323.0</ele><time>2026-04-25T15:36:22Z</time></trkpt><trkpt lat="45.64426982540702" lon="8.605286564882414"><ele>323.0</ele><time>2026-04-25T15:36:25.999Z</time></trkpt><trkpt lat="45.64420537067533" lon="8.605290065318773"><ele>323.0</ele><time>2026-04-25T15:36:26.999Z</time></trkpt><trkpt lat="45.644070448697555" lon="8.605271883440711"><ele>323.0</ele><time>2026-04-25T15:36:28.999Z</time></trkpt><trkpt lat="45.64400532118248" lon="8.605275518176036"><ele>323.0</ele><time>2026-04-25T15:36:29.999Z</time></trkpt><trkpt lat="45.64393883217697" lon="8.605277364644493"><ele>323.0</ele><time>2026-04-25T15:36:30.999Z</time></trkpt><trkpt lat="45.64384822809051" lon="8.60528626825283"><ele>323.0</ele><time>2026-04-25T15:36:31.999Z</time></trkpt><trkpt lat="45.64373832086105" lon="8.605312542534929"><ele>323.0</ele><time>2026-04-25T15:36:32.999Z</time></trkpt><trkpt lat="45.6436303753706" lon="8.605348106614603"><ele>323.0</ele><time>2026-04-25T15:36:33.999Z</time></trkpt><trkpt lat="45.64349731684293" lon="8.605404591382465"><ele>322.5</ele><time>2026-04-25T15:36:34.999Z</time></trkpt><trkpt lat="45.64337809577367" lon="8.60546027388996"><ele>322.0</ele><time>2026-04-25T15:36:35.999Z</time></trkpt><trkpt lat="45.64326982249668" lon="8.605530040833916"><ele>321.5</ele><time>2026-04-25T15:36:36.999Z</time></trkpt><trkpt lat="45.64316116392083" lon="8.605584417234844"><ele>321.0</ele><time>2026-04-25T15:36:37.999Z</time></trkpt><trkpt lat="45.64304686089782" lon="8.605631562400667"><ele>321.0</ele><time>2026-04-25T15:36:38.999Z</time></trkpt><trkpt lat="45.642926802688436" lon="8.605673948319135"><ele>321.0</ele><time>2026-04-25T15:36:39.999Z</time></trkpt><trkpt lat="45.642789032878035" lon="8.605733003032304"><ele>321.0</ele><time>2026-04-25T15:36:40.999Z</time></trkpt><trkpt lat="45.64265294633135" lon="8.605784114454607"><ele>321.0</ele><time>2026-04-25T15:36:41.999Z</time></trkpt><trkpt lat="45.64252970957681" lon="8.605830345982021"><ele>320.0</ele><time>2026-04-25T15:36:42.999Z</time></trkpt><trkpt lat="45.64241345116911" lon="8.6058737230735"><ele>319.0</ele><time>2026-04-25T15:36:43.999Z</time></trkpt><trkpt lat="45.64230352675346" lon="8.605916336765162"><ele>318.0</ele><time>2026-04-25T15:36:44.999Z</time></trkpt><trkpt lat="45.642181734121394" lon="8.60596024311866"><ele>317.0</ele><time>2026-04-25T15:36:45.999Z</time></trkpt><trkpt lat="45.642051243314626" lon="8.605979309486143"><ele>317.0</ele><time>2026-04-25T15:36:46.999Z</time></trkpt><trkpt lat="45.64192302528344" lon="8.606011618100478"><ele>317.0</ele><time>2026-04-25T15:36:47.999Z</time></trkpt><trkpt lat="45.641815926097756" lon="8.606032066089911"><ele>317.0</ele><time>2026-04-25T15:36:48.999Z</time></trkpt><trkpt lat="45.64171549420029" lon="8.606067649882926"><ele>317.0</ele><time>2026-04-25T15:36:49.999Z</time></trkpt><trkpt lat="45.641619917586404" lon="8.606100325154214"><ele>317.0</ele><time>2026-04-25T15:36:50.999Z</time></trkpt><trkpt lat="45.64150831351287" lon="8.606126618040147"><ele>317.2</ele><time>2026-04-25T15:36:51.999Z</time></trkpt><trkpt lat="45.6413958320033" lon="8.606167773413008"><ele>317.4</ele><time>2026-04-25T15:36:52.999Z</time></trkpt><trkpt lat="45.641280746791274" lon="8.606214400544406"><ele>317.6</ele><time>2026-04-25T15:36:53.999Z</time></trkpt><trkpt lat="45.64117532189199" lon="8.606254118291469"><ele>317.8</ele><time>2026-04-25T15:36:54.999Z</time></trkpt><trkpt lat="45.641075238354496" lon="8.606287863201175"><ele>318.0</ele><time>2026-04-25T15:36:55.999Z</time></trkpt><trkpt lat="45.64095639919086" lon="8.606336018562677"><ele>317.6</ele><time>2026-04-25T15:36:56.999Z</time></trkpt><trkpt lat="45.64084649070696" lon="8.606387910121963"><ele>317.20000000000005</ele><time>2026-04-25T15:36:57.999Z</time></trkpt><trkpt lat="45.640744512017086" lon="8.606427312808377"><ele>316.8</ele><time>2026-04-25T15:36:58.999Z</time></trkpt><trkpt lat="45.64065032361589" lon="8.606454043431567"><ele>316.40000000000003</ele><time>2026-04-25T15:36:59.999Z</time></trkpt><trkpt lat="45.64054808707132" lon="8.606484373336865"><ele>316.0</ele><time>2026-04-25T15:37:00.999Z</time></trkpt><trkpt lat="45.640452160104275" lon="8.606538507131747"><ele>316.0</ele><time>2026-04-25T15:37:01.999Z</time></trkpt><trkpt lat="45.64035375924459" lon="8.606594268105502"><ele>316.0</ele><time>2026-04-25T15:37:02.999Z</time></trkpt><trkpt lat="45.640255592150694" lon="8.606618965067721"><ele>316.0</ele><time>2026-04-25T15:37:03.999Z</time></trkpt><trkpt lat="45.6401522135037" lon="8.606622948811058"><ele>316.0</ele><time>2026-04-25T15:37:04.999Z</time></trkpt><trkpt lat="45.640037268733785" lon="8.606634722954768"><ele>316.0</ele><time>2026-04-25T15:37:05.999Z</time></trkpt><trkpt lat="45.6399289576928" lon="8.60668377835736"><ele>316.16666666666663</ele><time>2026-04-25T15:37:06.998Z</time></trkpt><trkpt lat="45.63982625626702" lon="8.606744178976102"><ele>316.3333333333333</ele><time>2026-04-25T15:37:07.998Z</time></trkpt><trkpt lat="45.639752814165234" lon="8.606775371389492"><ele>316.5</ele><time>2026-04-25T15:37:08.998Z</time></trkpt><trkpt lat="45.63968704230991" lon="8.606828710959524"><ele>316.6666666666667</ele><time>2026-04-25T15:37:13.998Z</time></trkpt><trkpt lat="45.63972580314479" lon="8.606959280173903"><ele>316.83333333333337</ele><time>2026-04-25T15:37:23.998Z</time></trkpt><trkpt lat="45.63972813212796" lon="8.607069224457701"><ele>317.0</ele><time>2026-04-25T15:37:24.998Z</time></trkpt><trkpt lat="45.63975942761692" lon="8.607269993110023"><ele>317.0</ele><time>2026-04-25T15:37:25.998Z</time></trkpt><trkpt lat="45.639759903333484" lon="8.607401357501848"><ele>317.0</ele><time>2026-04-25T15:37:26.998Z</time></trkpt><trkpt lat="45.639688872778805" lon="8.607499912340957"><ele>317.0</ele><time>2026-04-25T15:37:30.998Z</time></trkpt><trkpt lat="45.63957647942477" lon="8.607531608149925"><ele>317.0</ele><time>2026-04-25T15:37:31.998Z</time></trkpt><trkpt lat="45.63944187929323" lon="8.607546013863196"><ele>317.0</ele><time>2026-04-25T15:37:32.998Z</time></trkpt><trkpt lat="45.6393039109282" lon="8.607600450484014"><ele>317.0</ele><time>2026-04-25T15:37:33.998Z</time></trkpt><trkpt lat="45.63918270881861" lon="8.607607008604752"><ele>317.0</ele><time>2026-04-25T15:37:34.998Z</time></trkpt><trkpt lat="45.63910009850266" lon="8.607619061366213"><ele>317.0</ele><time>2026-04-25T15:37:35.998Z</time></trkpt><trkpt lat="45.63901796703138" lon="8.607649846984556"><ele>317.0</ele><time>2026-04-25T15:37:36.998Z</time></trkpt><trkpt lat="45.63892629334549" lon="8.607661508251741"><ele>317.0</ele><time>2026-04-25T15:37:37.998Z</time></trkpt><trkpt lat="45.63884290673269" lon="8.607657744475453"><ele>317.0</ele><time>2026-04-25T15:37:38.998Z</time></trkpt><trkpt lat="45.638762651853995" lon="8.607665925909494"><ele>317.0</ele><time>2026-04-25T15:37:39.998Z</time></trkpt><trkpt lat="45.63862067588551" lon="8.607695041632601"><ele>317.0</ele><time>2026-04-25T15:37:41.998Z</time></trkpt><trkpt lat="45.63853627548032" lon="8.60771158413576"><ele>317.0</ele><time>2026-04-25T15:37:42.998Z</time></trkpt><trkpt lat="45.638443245389205" lon="8.607734670889196"><ele>317.0</ele><time>2026-04-25T15:37:43.998Z</time></trkpt><trkpt lat="45.63835520799041" lon="8.607744620518643"><ele>316.8</ele><time>2026-04-25T15:37:44.998Z</time></trkpt><trkpt lat="45.63827146782772" lon="8.607758438133422"><ele>316.6</ele><time>2026-04-25T15:37:45.998Z</time></trkpt><trkpt lat="45.638193783806614" lon="8.607766833459053"><ele>316.40000000000003</ele><time>2026-04-25T15:37:46.997Z</time></trkpt><trkpt lat="45.638126356263214" lon="8.607771721885284"><ele>316.2</ele><time>2026-04-25T15:37:47.997Z</time></trkpt><trkpt lat="45.63798448293798" lon="8.607851611454539"><ele>316.0</ele><time>2026-04-25T15:37:49.997Z</time></trkpt><trkpt lat="45.63789568552411" lon="8.60786172897524"><ele>315.6</ele><time>2026-04-25T15:37:50.997Z</time></trkpt><trkpt lat="45.63781065417235" lon="8.607868221057842"><ele>315.20000000000005</ele><time>2026-04-25T15:37:51.997Z</time></trkpt><trkpt lat="45.63771828163515" lon="8.607871967124355"><ele>314.79999999999995</ele><time>2026-04-25T15:37:53Z</time></trkpt><trkpt lat="45.63762775501674" lon="8.607884489904087"><ele>314.4</ele><time>2026-04-25T15:37:54Z</time></trkpt><trkpt lat="45.6375315833829" lon="8.607890190894073"><ele>314.0</ele><time>2026-04-25T15:37:55Z</time></trkpt><trkpt lat="45.637428117779635" lon="8.607900210607816"><ele>313.59999999999997</ele><time>2026-04-25T15:37:56Z</time></trkpt><trkpt lat="45.63733634292167" lon="8.607916255009531"><ele>313.2</ele><time>2026-04-25T15:37:57Z</time></trkpt><trkpt lat="45.637238781947865" lon="8.607930377723022"><ele>312.79999999999995</ele><time>2026-04-25T15:37:58Z</time></trkpt><trkpt lat="45.63714123454801" lon="8.607946691739462"><ele>312.4</ele><time>2026-04-25T15:37:59Z</time></trkpt><trkpt lat="45.63703749059109" lon="8.607968171727721"><ele>312.0</ele><time>2026-04-25T15:38:00Z</time></trkpt><trkpt lat="45.63694103843522" lon="8.607988513172412"><ele>311.2</ele><time>2026-04-25T15:38:01Z</time></trkpt><trkpt lat="45.636845858439784" lon="8.60800230819905"><ele>310.4</ele><time>2026-04-25T15:38:02Z</time></trkpt><trkpt lat="45.6367513013845" lon="8.608024714094197"><ele>309.6</ele><time>2026-04-25T15:38:03Z</time></trkpt><trkpt lat="45.63664956768315" lon="8.608035684776329"><ele>308.8</ele><time>2026-04-25T15:38:04Z</time></trkpt><trkpt lat="45.63654702117999" lon="8.60804972877976"><ele>308.0</ele><time>2026-04-25T15:38:05Z</time></trkpt><trkpt lat="45.63644490491017" lon="8.60806255774508"><ele>308.0</ele><time>2026-04-25T15:38:06Z</time></trkpt><trkpt lat="45.63633915186264" lon="8.608075803446374"><ele>308.0</ele><time>2026-04-25T15:38:07Z</time></trkpt><trkpt lat="45.636231202263275" lon="8.60808855611129"><ele>308.0</ele><time>2026-04-25T15:38:08Z</time></trkpt><trkpt lat="45.63612312836802" lon="8.608102385525482"><ele>308.0</ele><time>2026-04-25T15:38:09Z</time></trkpt><trkpt lat="45.636012018632165" lon="8.608113297219674"><ele>308.0</ele><time>2026-04-25T15:38:10Z</time></trkpt><trkpt lat="45.635908622866594" lon="8.60811903015152"><ele>307.2</ele><time>2026-04-25T15:38:11Z</time></trkpt><trkpt lat="45.635812090309976" lon="8.608131963407812"><ele>306.4</ele><time>2026-04-25T15:38:12Z</time></trkpt><trkpt lat="45.635719195855245" lon="8.60816136943674"><ele>305.59999999999997</ele><time>2026-04-25T15:38:13Z</time></trkpt><trkpt lat="45.6356169610841" lon="8.608189348290765"><ele>304.8</ele><time>2026-04-25T15:38:14Z</time></trkpt><trkpt lat="45.63550883586223" lon="8.608186969645802"><ele>304.0</ele><time>2026-04-25T15:38:15Z</time></trkpt><trkpt lat="45.635416038249325" lon="8.608203489527817"><ele>304.0</ele><time>2026-04-25T15:38:16Z</time></trkpt><trkpt lat="45.63533105777591" lon="8.608211786199787"><ele>304.0</ele><time>2026-04-25T15:38:17Z</time></trkpt><trkpt lat="45.63525768049169" lon="8.60822352472306"><ele>304.0</ele><time>2026-04-25T15:38:18Z</time></trkpt><trkpt lat="45.63518529958923" lon="8.608235103868468"><ele>304.0</ele><time>2026-04-25T15:38:19Z</time></trkpt><trkpt lat="45.63511207165561" lon="8.60824795599318"><ele>304.0</ele><time>2026-04-25T15:38:20Z</time></trkpt><trkpt lat="45.63498804687166" lon="8.608271735104314"><ele>304.0</ele><time>2026-04-25T15:38:22Z</time></trkpt><trkpt lat="45.634943944258914" lon="8.608005701190239"><ele>303.8333333333333</ele><time>2026-04-25T15:38:24Z</time></trkpt><trkpt lat="45.634949708542585" lon="8.607907833256933"><ele>303.66666666666663</ele><time>2026-04-25T15:38:25Z</time></trkpt><trkpt lat="45.634940943630745" lon="8.607790158844836"><ele>303.5</ele><time>2026-04-25T15:38:26Z</time></trkpt><trkpt lat="45.6349237075066" lon="8.607663167020956"><ele>303.3333333333333</ele><time>2026-04-25T15:38:27Z</time></trkpt><trkpt lat="45.63488528295963" lon="8.607566656907334"><ele>303.1666666666667</ele><time>2026-04-25T15:38:27.999Z</time></trkpt><trkpt lat="45.634856726625145" lon="8.607472806080642"><ele>303.0</ele><time>2026-04-25T15:38:28.999Z</time></trkpt><trkpt lat="45.63482565415029" lon="8.607389442808406"><ele>303.0</ele><time>2026-04-25T15:38:29.999Z</time></trkpt><trkpt lat="45.63480491837036" lon="8.6072774928001"><ele>303.0</ele><time>2026-04-25T15:38:31.999Z</time></trkpt><trkpt lat="45.634762989202585" lon="8.607150557998231"><ele>303.0</ele><time>2026-04-25T15:38:33.999Z</time></trkpt><trkpt lat="45.63438848219162" lon="8.607204115378128"><ele>303.0</ele><time>2026-04-25T15:38:35.999Z</time></trkpt><trkpt lat="45.63425621951376" lon="8.607157406588822"><ele>303.0</ele><time>2026-04-25T15:38:36.999Z</time></trkpt><trkpt lat="45.63412979897474" lon="8.607106335290856"><ele>303.0</ele><time>2026-04-25T15:38:37.999Z</time></trkpt><trkpt lat="45.63399256938295" lon="8.607056393019754"><ele>303.0</ele><time>2026-04-25T15:38:38.999Z</time></trkpt><trkpt lat="45.63384794904153" lon="8.607000397004695"><ele>302.5</ele><time>2026-04-25T15:38:39.999Z</time></trkpt><trkpt lat="45.6337197916833" lon="8.606957073739146"><ele>302.0</ele><time>2026-04-25T15:38:40.999Z</time></trkpt><trkpt lat="45.63360693616464" lon="8.606922674779577"><ele>301.5</ele><time>2026-04-25T15:38:41.999Z</time></trkpt><trkpt lat="45.63350503025804" lon="8.606887207212463"><ele>301.0</ele><time>2026-04-25T15:38:42.999Z</time></trkpt><trkpt lat="45.63340856030759" lon="8.606854664391374"><ele>300.6</ele><time>2026-04-25T15:38:43.999Z</time></trkpt><trkpt lat="45.633313996233646" lon="8.606817935579544"><ele>300.20000000000005</ele><time>2026-04-25T15:38:44.999Z</time></trkpt><trkpt lat="45.63320978933776" lon="8.606780075644535"><ele>299.79999999999995</ele><time>2026-04-25T15:38:45.999Z</time></trkpt><trkpt lat="45.63311740420308" lon="8.60675709071564"><ele>299.4</ele><time>2026-04-25T15:38:46.999Z</time></trkpt><trkpt lat="45.63303690126493" lon="8.606746720446239"><ele>299.0</ele><time>2026-04-25T15:38:47.999Z</time></trkpt><trkpt lat="45.632950415217444" lon="8.606724667675254"><ele>299.0</ele><time>2026-04-25T15:38:48.999Z</time></trkpt><trkpt lat="45.632873940169986" lon="8.606694345591434"><ele>299.0</ele><time>2026-04-25T15:38:49.999Z</time></trkpt><trkpt lat="45.632777416331585" lon="8.606657799093023"><ele>299.0</ele><time>2026-04-25T15:38:50.999Z</time></trkpt><trkpt lat="45.63267889831125" lon="8.606622735801766"><ele>299.0</ele><time>2026-04-25T15:38:51.999Z</time></trkpt><trkpt lat="45.63257513640746" lon="8.606603634041281"><ele>299.0</ele><time>2026-04-25T15:38:52.999Z</time></trkpt><trkpt lat="45.63247484123887" lon="8.6065710527258"><ele>299.0</ele><time>2026-04-25T15:38:53.999Z</time></trkpt><trkpt lat="45.6323809012841" lon="8.60653381695071"><ele>299.0</ele><time>2026-04-25T15:38:54.999Z</time></trkpt><trkpt lat="45.63228859745319" lon="8.606499346089342"><ele>299.0</ele><time>2026-04-25T15:38:55.999Z</time></trkpt><trkpt lat="45.63218753808683" lon="8.606468771837434"><ele>299.0</ele><time>2026-04-25T15:38:56.999Z</time></trkpt><trkpt lat="45.63209536445651" lon="8.606438297183896"><ele>299.0</ele><time>2026-04-25T15:38:57.999Z</time></trkpt><trkpt lat="45.632006878079046" lon="8.606411026872182"><ele>298.1666666666667</ele><time>2026-04-25T15:38:58.999Z</time></trkpt><trkpt lat="45.63192366361939" lon="8.606398414474304"><ele>297.33333333333337</ele><time>2026-04-25T15:38:59.999Z</time></trkpt><trkpt lat="45.631849536494784" lon="8.606388293875296"><ele>296.5</ele><time>2026-04-25T15:39:00.999Z</time></trkpt><trkpt lat="45.63177451922897" lon="8.606365269789425"><ele>295.6666666666667</ele><time>2026-04-25T15:39:02.999Z</time></trkpt><trkpt lat="45.63172981255231" lon="8.606281452760866"><ele>294.8333333333333</ele><time>2026-04-25T15:39:04.999Z</time></trkpt><trkpt lat="45.6317019857824" lon="8.606186816650352"><ele>294.0</ele><time>2026-04-25T15:39:05.999Z</time></trkpt><trkpt lat="45.63164336593746" lon="8.60612297286785"><ele>294.0</ele><time>2026-04-25T15:39:07.998Z</time></trkpt><trkpt lat="45.631577619561575" lon="8.606137297367159"><ele>294.0</ele><time>2026-04-25T15:39:13.998Z</time></trkpt><trkpt lat="45.63150229901537" lon="8.606195542009303"><ele>294.0</ele><time>2026-04-25T15:39:16.998Z</time></trkpt><trkpt lat="45.63141740414789" lon="8.606223778776075"><ele>294.0</ele><time>2026-04-25T15:39:18.998Z</time></trkpt><trkpt lat="45.631325084049756" lon="8.606218054040612"><ele>294.0</ele><time>2026-04-25T15:39:20.998Z</time></trkpt><trkpt lat="45.631237012914504" lon="8.606249579011838"><ele>294.0</ele><time>2026-04-25T15:39:24.998Z</time></trkpt><trkpt lat="45.631185414470195" lon="8.606328254059633"><ele>293.5</ele><time>2026-04-25T15:39:27.998Z</time></trkpt><trkpt lat="45.63116287455822" lon="8.606421922583927"><ele>293.0</ele><time>2026-04-25T15:39:29.998Z</time></trkpt><trkpt lat="45.6310853187109" lon="8.606526876830793"><ele>292.5</ele><time>2026-04-25T15:39:31.998Z</time></trkpt><trkpt lat="45.63104709215155" lon="8.606621126889165"><ele>292.0</ele><time>2026-04-25T15:39:34.998Z</time></trkpt><trkpt lat="45.63103552868335" lon="8.606737457341257"><ele>291.5</ele><time>2026-04-25T15:39:37.998Z</time></trkpt><trkpt lat="45.631005336736386" lon="8.606877760965311"><ele>291.0</ele><time>2026-04-25T15:39:40.998Z</time></trkpt><trkpt lat="45.630968912939906" lon="8.606986250648127"><ele>291.40000000000003</ele><time>2026-04-25T15:39:43.998Z</time></trkpt><trkpt lat="45.63092220240126" lon="8.607047517515902"><ele>291.8</ele><time>2026-04-25T15:39:45.998Z</time></trkpt><trkpt lat="45.63082742618313" lon="8.607320748929967"><ele>292.20000000000005</ele><time>2026-04-25T15:39:48.997Z</time></trkpt><trkpt lat="45.63077590891882" lon="8.607377322323465"><ele>292.6</ele><time>2026-04-25T15:39:50.997Z</time></trkpt><trkpt lat="45.63070001115724" lon="8.607413063946911"><ele>293.0</ele><time>2026-04-25T15:39:51.997Z</time></trkpt><trkpt lat="45.63060981904829" lon="8.607346664523176"><ele>293.0</ele><time>2026-04-25T15:39:54.997Z</time></trkpt><trkpt lat="45.63055372041831" lon="8.607259734492017"><ele>293.0</ele><time>2026-04-25T15:39:56.997Z</time></trkpt><trkpt lat="45.630490992191525" lon="8.607183352197213"><ele>293.0</ele><time>2026-04-25T15:39:59Z</time></trkpt><trkpt lat="45.630423328097606" lon="8.60710915659765"><ele>293.0</ele><time>2026-04-25T15:40:01Z</time></trkpt><trkpt lat="45.6303686820471" lon="8.60702409857185"><ele>293.0</ele><time>2026-04-25T15:40:03Z</time></trkpt><trkpt lat="45.63031267780585" lon="8.606936372271669"><ele>293.0</ele><time>2026-04-25T15:40:07Z</time></trkpt><trkpt lat="45.63027266928168" lon="8.606860930098675"><ele>293.4</ele><time>2026-04-25T15:40:19Z</time></trkpt><trkpt lat="45.63020665487262" lon="8.606827248092761"><ele>293.8</ele><time>2026-04-25T15:40:40.999Z</time></trkpt><trkpt lat="45.630120705142616" lon="8.60665596204028"><ele>294.2</ele><time>2026-04-25T15:40:42.999Z</time></trkpt><trkpt lat="45.630058424907176" lon="8.60656405023155"><ele>294.6</ele><time>2026-04-25T15:40:43.999Z</time></trkpt><trkpt lat="45.62998994421184" lon="8.606470818286217"><ele>295.0</ele><time>2026-04-25T15:40:44.999Z</time></trkpt><trkpt lat="45.62992190211049" lon="8.606374324095666"><ele>295.00000000000006</ele><time>2026-04-25T15:40:45.999Z</time></trkpt><trkpt lat="45.62985438700206" lon="8.606297024279877"><ele>295.0</ele><time>2026-04-25T15:40:46.999Z</time></trkpt><trkpt lat="45.62980237384329" lon="8.606227396530326"><ele>295.0</ele><time>2026-04-25T15:40:47.999Z</time></trkpt><trkpt lat="45.62975377351024" lon="8.606163049759354"><ele>295.0</ele><time>2026-04-25T15:40:48.999Z</time></trkpt><trkpt lat="45.62970181190185" lon="8.606085025548252"><ele>295.0</ele><time>2026-04-25T15:40:49.999Z</time></trkpt><trkpt lat="45.62964593710206" lon="8.606022150336514"><ele>295.00000000000006</ele><time>2026-04-25T15:40:50.999Z</time></trkpt><trkpt lat="45.62958620559613" lon="8.605953787894535"><ele>295.0</ele><time>2026-04-25T15:40:51.999Z</time></trkpt><trkpt lat="45.62952302119718" lon="8.60588753291568"><ele>294.0</ele><time>2026-04-25T15:40:52.999Z</time></trkpt><trkpt lat="45.62943074404999" lon="8.60582884251714"><ele>293.0</ele><time>2026-04-25T15:40:53.999Z</time></trkpt><trkpt lat="45.62934911160909" lon="8.605769381283237"><ele>292.0</ele><time>2026-04-25T15:40:54.999Z</time></trkpt><trkpt lat="45.62928054686224" lon="8.605728316224447"><ele>291.0</ele><time>2026-04-25T15:40:55.999Z</time></trkpt><trkpt lat="45.62919295918808" lon="8.605657707879516"><ele>290.0</ele><time>2026-04-25T15:40:57.999Z</time></trkpt><trkpt lat="45.62916151927865" lon="8.605533125106906"><ele>290.0</ele><time>2026-04-25T15:40:59.999Z</time></trkpt><trkpt lat="45.629131699130944" lon="8.605404753461515"><ele>290.0</ele><time>2026-04-25T15:41:01.999Z</time></trkpt><trkpt lat="45.629107232375155" lon="8.605290335220534"><ele>290.0</ele><time>2026-04-25T15:41:03.999Z</time></trkpt><trkpt lat="45.62906179235235" lon="8.605159118025396"><ele>290.0</ele><time>2026-04-25T15:41:05.999Z</time></trkpt><trkpt lat="45.62903985199897" lon="8.605070353981807"><ele>290.0</ele><time>2026-04-25T15:41:06.999Z</time></trkpt><trkpt lat="45.62901334052229" lon="8.604980903094662"><ele>290.0</ele><time>2026-04-25T15:41:07.999Z</time></trkpt><trkpt lat="45.62908196028631" lon="8.604943734236933"><ele>289.1666666666667</ele><time>2026-04-25T15:41:11.999Z</time></trkpt><trkpt lat="45.62914755876501" lon="8.60488395207358"><ele>288.33333333333337</ele><time>2026-04-25T15:41:14.998Z</time></trkpt><trkpt lat="45.62920487682908" lon="8.604799918549146"><ele>287.5</ele><time>2026-04-25T15:41:16.998Z</time></trkpt><trkpt lat="45.62922899501478" lon="8.604657588914959"><ele>286.6666666666667</ele><time>2026-04-25T15:41:18.998Z</time></trkpt><trkpt lat="45.629193594529596" lon="8.604575310157312"><ele>285.8333333333333</ele><time>2026-04-25T15:41:19.998Z</time></trkpt><trkpt lat="45.6291409359307" lon="8.604509875584721"><ele>285.0</ele><time>2026-04-25T15:41:20.998Z</time></trkpt><trkpt lat="45.62905878056522" lon="8.604441413470413"><ele>282.8</ele><time>2026-04-25T15:41:22.998Z</time></trkpt><trkpt lat="45.62901561480903" lon="8.604320102202033"><ele>280.6</ele><time>2026-04-25T15:41:24.998Z</time></trkpt><trkpt lat="45.62895742100362" lon="8.604231288985753"><ele>278.4</ele><time>2026-04-25T15:41:25.998Z</time></trkpt><trkpt lat="45.62887103077512" lon="8.60415084314029"><ele>276.2</ele><time>2026-04-25T15:41:26.998Z</time></trkpt><trkpt lat="45.62876808834729" lon="8.604111138415167"><ele>274.0</ele><time>2026-04-25T15:41:27.998Z</time></trkpt><trkpt lat="45.628679749436365" lon="8.60407456587949"><ele>275.8</ele><time>2026-04-25T15:41:28.998Z</time></trkpt><trkpt lat="45.628582721954814" lon="8.603998021795718"><ele>277.59999999999997</ele><time>2026-04-25T15:41:30.998Z</time></trkpt><trkpt lat="45.62846726808816" lon="8.603981485876284"><ele>279.4</ele><time>2026-04-25T15:41:32.998Z</time></trkpt><trkpt lat="45.62840674408207" lon="8.603937636707816"><ele>281.2</ele><time>2026-04-25T15:41:33.998Z</time></trkpt><trkpt lat="45.62835081328976" lon="8.603894917182659"><ele>283.0</ele><time>2026-04-25T15:41:34.998Z</time></trkpt><trkpt lat="45.6282373766719" lon="8.603908759768126"><ele>283.0</ele><time>2026-04-25T15:41:36.998Z</time></trkpt><trkpt lat="45.62816679208036" lon="8.603917303582474"><ele>283.0</ele><time>2026-04-25T15:41:37.998Z</time></trkpt><trkpt lat="45.628083098803046" lon="8.603867277636233"><ele>283.0</ele><time>2026-04-25T15:41:39.998Z</time></trkpt><trkpt lat="45.62804235253194" lon="8.603944965400965"><ele>283.0</ele><time>2026-04-25T15:41:42.998Z</time></trkpt><trkpt lat="45.62809003648904" lon="8.604033913802184"><ele>283.0</ele><time>2026-04-25T15:41:43.998Z</time></trkpt><trkpt lat="45.62806469300063" lon="8.604118646697444"><ele>283.0</ele><time>2026-04-25T15:41:45.998Z</time></trkpt><trkpt lat="45.62801421697834" lon="8.604231419511946"><ele>283.0</ele><time>2026-04-25T15:41:48.998Z</time></trkpt><trkpt lat="45.62795462916141" lon="8.60427969421308"><ele>283.0</ele><time>2026-04-25T15:41:49.998Z</time></trkpt><trkpt lat="45.627867593619975" lon="8.604322299127336"><ele>283.0</ele><time>2026-04-25T15:41:51.998Z</time></trkpt><trkpt lat="45.62782303202342" lon="8.60440916810274"><ele>283.0</ele><time>2026-04-25T15:41:52.998Z</time></trkpt><trkpt lat="45.62777599108696" lon="8.604512081632237"><ele>283.0</ele><time>2026-04-25T15:41:53.997Z</time></trkpt><trkpt lat="45.627725414641894" lon="8.60466903117983"><ele>283.0</ele><time>2026-04-25T15:41:54.997Z</time></trkpt><trkpt lat="45.627671691163634" lon="8.604804549620635"><ele>283.3333333333333</ele><time>2026-04-25T15:41:55.997Z</time></trkpt><trkpt lat="45.62763423168864" lon="8.604893478208885"><ele>283.66666666666663</ele><time>2026-04-25T15:41:56.997Z</time></trkpt><trkpt lat="45.627601620785775" lon="8.605000447171674"><ele>284.0</ele><time>2026-04-25T15:41:58.997Z</time></trkpt><trkpt lat="45.62757016194175" lon="8.605085288881478"><ele>284.3333333333333</ele><time>2026-04-25T15:42:03.997Z</time></trkpt><trkpt lat="45.62762645097537" lon="8.605015588941406"><ele>284.6666666666667</ele><time>2026-04-25T15:42:08Z</time></trkpt><trkpt lat="45.62754707237205" lon="8.604885262444837"><ele>285.0</ele><time>2026-04-25T15:42:11Z</time></trkpt><trkpt lat="45.62749563673064" lon="8.604810752252515"><ele>285.0</ele><time>2026-04-25T15:42:12Z</time></trkpt><trkpt lat="45.62746037220958" lon="8.604733067174474"><ele>285.0</ele><time>2026-04-25T15:42:13Z</time></trkpt><trkpt lat="45.62743402698761" lon="8.604648141604272"><ele>285.0</ele><time>2026-04-25T15:42:14Z</time></trkpt><trkpt lat="45.62724772867285" lon="8.60464613229191"><ele>285.0</ele><time>2026-04-25T15:42:15Z</time></trkpt><trkpt lat="45.62718192519487" lon="8.604615062040635"><ele>285.0</ele><time>2026-04-25T15:42:16Z</time></trkpt><trkpt lat="45.627100613248594" lon="8.604657779906997"><ele>285.0</ele><time>2026-04-25T15:42:18Z</time></trkpt><trkpt lat="45.62700304581534" lon="8.604772617396941"><ele>285.0</ele><time>2026-04-25T15:42:20Z</time></trkpt><trkpt lat="45.626954109463156" lon="8.604830868243832"><ele>285.0</ele><time>2026-04-25T15:42:21Z</time></trkpt><trkpt lat="45.62691089138024" lon="8.60490094974229"><ele>285.0</ele><time>2026-04-25T15:42:22Z</time></trkpt><trkpt lat="45.62686671964445" lon="8.60497018076155"><ele>285.0</ele><time>2026-04-25T15:42:23Z</time></trkpt><trkpt lat="45.62681776182391" lon="8.605030754597937"><ele>285.0</ele><time>2026-04-25T15:42:24Z</time></trkpt><trkpt lat="45.62675533956065" lon="8.605077683617836"><ele>283.8</ele><time>2026-04-25T15:42:25Z</time></trkpt><trkpt lat="45.62667298179379" lon="8.605102509905285"><ele>282.6</ele><time>2026-04-25T15:42:26Z</time></trkpt><trkpt lat="45.62658628635739" lon="8.605099621940346"><ele>281.4</ele><time>2026-04-25T15:42:27Z</time></trkpt><trkpt lat="45.62647882583309" lon="8.60508580753118"><ele>280.2</ele><time>2026-04-25T15:42:28Z</time></trkpt><trkpt lat="45.62636463880541" lon="8.605073723243239"><ele>279.0</ele><time>2026-04-25T15:42:29Z</time></trkpt><trkpt lat="45.62627675091027" lon="8.605061063631668"><ele>279.0</ele><time>2026-04-25T15:42:30Z</time></trkpt><trkpt lat="45.626194860473184" lon="8.605041797013666"><ele>279.0</ele><time>2026-04-25T15:42:31Z</time></trkpt><trkpt lat="45.626111325110394" lon="8.604989071972641"><ele>279.0</ele><time>2026-04-25T15:42:32Z</time></trkpt><trkpt lat="45.62603016973718" lon="8.604913172822911"><ele>279.0</ele><time>2026-04-25T15:42:33Z</time></trkpt><trkpt lat="45.625966131673124" lon="8.604862169161542"><ele>279.0</ele><time>2026-04-25T15:42:34Z</time></trkpt><trkpt lat="45.62589911195899" lon="8.60479541951863"><ele>279.0</ele><time>2026-04-25T15:42:35Z</time></trkpt><trkpt lat="45.625816949627556" lon="8.604729163414724"><ele>279.0</ele><time>2026-04-25T15:42:36Z</time></trkpt><trkpt lat="45.625750369696085" lon="8.604687887064886"><ele>279.0</ele><time>2026-04-25T15:42:37Z</time></trkpt><trkpt lat="45.62566201200181" lon="8.604686244914488"><ele>279.0</ele><time>2026-04-25T15:42:38Z</time></trkpt><trkpt lat="45.62556969643634" lon="8.604705446022338"><ele>279.0</ele><time>2026-04-25T15:42:38.999Z</time></trkpt><trkpt lat="45.625471957905305" lon="8.604698966765932"><ele>279.0</ele><time>2026-04-25T15:42:39.999Z</time></trkpt><trkpt lat="45.62539403059221" lon="8.60467054893353"><ele>279.0</ele><time>2026-04-25T15:42:40.999Z</time></trkpt><trkpt lat="45.62528309319148" lon="8.604641532399723"><ele>278.8</ele><time>2026-04-25T15:42:42.999Z</time></trkpt><trkpt lat="45.62518646832379" lon="8.60462141886165"><ele>278.59999999999997</ele><time>2026-04-25T15:42:44.999Z</time></trkpt><trkpt lat="45.62507845743966" lon="8.604615329969622"><ele>278.4</ele><time>2026-04-25T15:42:46.999Z</time></trkpt><trkpt lat="45.62495490527175" lon="8.60463138334856"><ele>278.2</ele><time>2026-04-25T15:42:48.999Z</time></trkpt><trkpt lat="45.6248913489516" lon="8.604645421727469"><ele>278.0</ele><time>2026-04-25T15:42:49.999Z</time></trkpt><trkpt lat="45.62482512590811" lon="8.604664123036423"><ele>278.0</ele><time>2026-04-25T15:42:50.999Z</time></trkpt><trkpt lat="45.624760850632775" lon="8.604675104616653"><ele>278.0</ele><time>2026-04-25T15:42:51.999Z</time></trkpt><trkpt lat="45.624699582034054" lon="8.60469740723328"><ele>278.0</ele><time>2026-04-25T15:42:52.999Z</time></trkpt><trkpt lat="45.624638458252825" lon="8.604722718316006"><ele>278.0</ele><time>2026-04-25T15:42:53.999Z</time></trkpt><trkpt lat="45.624536370821055" lon="8.604826680966767"><ele>278.0</ele><time>2026-04-25T15:42:55.999Z</time></trkpt><trkpt lat="45.62443592978122" lon="8.604912466121169"><ele>278.0</ele><time>2026-04-25T15:42:57.999Z</time></trkpt><trkpt lat="45.62429910355512" lon="8.604940726401605"><ele>277.2</ele><time>2026-04-25T15:42:59.999Z</time></trkpt><trkpt lat="45.62420847958227" lon="8.60497312198319"><ele>276.4</ele><time>2026-04-25T15:43:00.999Z</time></trkpt><trkpt lat="45.624131531791505" lon="8.604999165651291"><ele>275.59999999999997</ele><time>2026-04-25T15:43:01.999Z</time></trkpt><trkpt lat="45.62406360522505" lon="8.605024025236633"><ele>274.8</ele><time>2026-04-25T15:43:02.999Z</time></trkpt><trkpt lat="45.62394185256164" lon="8.605061175048348"><ele>274.0</ele><time>2026-04-25T15:43:04.999Z</time></trkpt><trkpt lat="45.623830750723265" lon="8.60505090795783"><ele>274.0</ele><time>2026-04-25T15:43:06.999Z</time></trkpt><trkpt lat="45.62376964659802" lon="8.605161411951459"><ele>274.0</ele><time>2026-04-25T15:43:08.999Z</time></trkpt><trkpt lat="45.62376957124083" lon="8.605258947317514"><ele>274.0</ele><time>2026-04-25T15:43:09.999Z</time></trkpt><trkpt lat="45.62375757476736" lon="8.605422745432847"><ele>274.0</ele><time>2026-04-25T15:43:11.999Z</time></trkpt><trkpt lat="45.62374234901096" lon="8.605582287801635"><ele>274.0</ele><time>2026-04-25T15:43:13.999Z</time></trkpt><trkpt lat="45.623730822361445" lon="8.605737073632417"><ele>273.5</ele><time>2026-04-25T15:43:15.999Z</time></trkpt><trkpt lat="45.62369573067205" lon="8.60586318185732"><ele>273.0</ele><time>2026-04-25T15:43:17.999Z</time></trkpt><trkpt lat="45.62358016218763" lon="8.605879779592554"><ele>272.5</ele><time>2026-04-25T15:43:19.998Z</time></trkpt><trkpt lat="45.62350037199057" lon="8.605854491335345"><ele>272.0</ele><time>2026-04-25T15:43:20.998Z</time></trkpt><trkpt lat="45.62343489946198" lon="8.60582401499281"><ele>271.5</ele><time>2026-04-25T15:43:21.998Z</time></trkpt><trkpt lat="45.623352179473414" lon="8.605843868659065"><ele>271.0</ele><time>2026-04-25T15:43:23.998Z</time></trkpt><trkpt lat="45.623242162321624" lon="8.605828655282748"><ele>270.40000000000003</ele><time>2026-04-25T15:43:25.998Z</time></trkpt><trkpt lat="45.62314187640457" lon="8.605805180391156"><ele>269.8</ele><time>2026-04-25T15:43:27.998Z</time></trkpt><trkpt lat="45.62305270119077" lon="8.605749404876471"><ele>269.20000000000005</ele><time>2026-04-25T15:43:29.998Z</time></trkpt><trkpt lat="45.62295451713949" lon="8.60569966642551"><ele>268.6</ele><time>2026-04-25T15:43:31.998Z</time></trkpt><trkpt lat="45.62287398384637" lon="8.605649059602296"><ele>268.0</ele><time>2026-04-25T15:43:33.998Z</time></trkpt><trkpt lat="45.62278239537203" lon="8.605602364181781"><ele>267.4</ele><time>2026-04-25T15:43:35.998Z</time></trkpt><trkpt lat="45.622689761431744" lon="8.605557329431024"><ele>266.8</ele><time>2026-04-25T15:43:37.998Z</time></trkpt><trkpt lat="45.622610638504284" lon="8.605519411137394"><ele>266.2</ele><time>2026-04-25T15:43:39.998Z</time></trkpt><trkpt lat="45.62253736580798" lon="8.60548503165742"><ele>265.6</ele><time>2026-04-25T15:43:41.998Z</time></trkpt><trkpt lat="45.622410487460286" lon="8.605545931214658"><ele>265.0</ele><time>2026-04-25T15:43:43.998Z</time></trkpt><trkpt lat="45.62234502887901" lon="8.605549780534954"><ele>265.0</ele><time>2026-04-25T15:43:44.998Z</time></trkpt><trkpt lat="45.62223406004184" lon="8.605489350015821"><ele>265.0</ele><time>2026-04-25T15:43:46.998Z</time></trkpt><trkpt lat="45.62219093230343" lon="8.605422190698052"><ele>265.0</ele><time>2026-04-25T15:43:47.998Z</time></trkpt><trkpt lat="45.62210469506445" lon="8.605336115581553"><ele>265.0</ele><time>2026-04-25T15:43:49.998Z</time></trkpt><trkpt lat="45.62205390058908" lon="8.605279328230793"><ele>265.0</ele><time>2026-04-25T15:43:51.998Z</time></trkpt><trkpt lat="45.62195548673418" lon="8.605255110719098"><ele>265.16666666666663</ele><time>2026-04-25T15:43:53.998Z</time></trkpt><trkpt lat="45.62188172103445" lon="8.605289316656433"><ele>265.3333333333333</ele><time>2026-04-25T15:43:54.998Z</time></trkpt><trkpt lat="45.621785385613755" lon="8.60528723965127"><ele>265.5</ele><time>2026-04-25T15:43:55.998Z</time></trkpt><trkpt lat="45.6216906393078" lon="8.605291915598047"><ele>265.6666666666667</ele><time>2026-04-25T15:43:56.998Z</time></trkpt><trkpt lat="45.6216032493643" lon="8.605287716342353"><ele>265.83333333333337</ele><time>2026-04-25T15:43:57.997Z</time></trkpt><trkpt lat="45.621519554241395" lon="8.605286250370181"><ele>266.0</ele><time>2026-04-25T15:43:58.997Z</time></trkpt><trkpt lat="45.621451217500905" lon="8.605289246590619"><ele>266.0</ele><time>2026-04-25T15:43:59.997Z</time></trkpt><trkpt lat="45.62138141414051" lon="8.605284118442"><ele>266.0</ele><time>2026-04-25T15:44:00.997Z</time></trkpt><trkpt lat="45.62132564508275" lon="8.605235065318253"><ele>266.0</ele><time>2026-04-25T15:44:01.997Z</time></trkpt><trkpt lat="45.62127601028767" lon="8.605171033274333"><ele>266.0</ele><time>2026-04-25T15:44:02.997Z</time></trkpt><trkpt lat="45.62121572144291" lon="8.605131210936571"><ele>266.0</ele><time>2026-04-25T15:44:03.997Z</time></trkpt><trkpt lat="45.621120425711304" lon="8.60509165824568"><ele>266.0</ele><time>2026-04-25T15:44:05.997Z</time></trkpt><trkpt lat="45.621048297274136" lon="8.605044440408268"><ele>266.0</ele><time>2026-04-25T15:44:07.997Z</time></trkpt><trkpt lat="45.62099118514447" lon="8.604968786546088"><ele>264.40000000000003</ele><time>2026-04-25T15:44:11Z</time></trkpt><trkpt lat="45.62100528159232" lon="8.60485392065473"><ele>262.8</ele><time>2026-04-25T15:44:13Z</time></trkpt><trkpt lat="45.62096748605392" lon="8.604722753319281"><ele>261.20000000000005</ele><time>2026-04-25T15:44:15Z</time></trkpt><trkpt lat="45.620938885224476" lon="8.604585889531315"><ele>259.6</ele><time>2026-04-25T15:44:17Z</time></trkpt><trkpt lat="45.62092282765143" lon="8.604473213470762"><ele>258.0</ele><time>2026-04-25T15:44:19Z</time></trkpt><trkpt lat="45.620927892425264" lon="8.604333056445913"><ele>257.8333333333333</ele><time>2026-04-25T15:45:22.998Z</time></trkpt><trkpt lat="45.62088448424481" lon="8.604249326380279"><ele>257.6666666666667</ele><time>2026-04-25T15:46:00.997Z</time></trkpt><trkpt lat="45.62089250544248" lon="8.604393412062437"><ele>257.5</ele><time>2026-04-25T15:46:09.997Z</time></trkpt><trkpt lat="45.62081985553973" lon="8.604402050148229"><ele>257.33333333333337</ele><time>2026-04-25T15:46:18Z</time></trkpt><trkpt lat="45.62088331823921" lon="8.604330552193733"><ele>257.1666666666667</ele><time>2026-04-25T15:47:25.998Z</time></trkpt><trkpt lat="45.62081425473333" lon="8.604319808084725"><ele>257.0</ele><time>2026-04-25T15:49:13.999Z</time></trkpt><trkpt lat="45.62074456801588" lon="8.604339495744316"><ele>257.0</ele><time>2026-04-25T16:08:37.997Z</time></trkpt><trkpt lat="45.62082491086734" lon="8.60435860104422"><ele>257.0</ele><time>2026-04-25T16:16:39.999Z</time></trkpt><trkpt lat="45.620883186886914" lon="8.604419224897585"><ele>257.0</ele><time>2026-04-25T16:39:28.999Z</time></trkpt><trkpt lat="45.620921801694095" lon="8.604346216260685"><ele>257.0</ele><time>2026-04-25T16:40:19.998Z</time></trkpt><trkpt lat="45.62086900580088" lon="8.604396541905318"><ele>257.0</ele><time>2026-04-25T16:40:43.997Z</time></trkpt><trkpt lat="45.620930621715004" lon="8.604359062174371"><ele>257.0</ele><time>2026-04-25T16:43:40.999Z</time></trkpt><trkpt lat="45.620900062052364" lon="8.604277570971739"><ele>257.0</ele><time>2026-04-25T16:45:59.999Z</time></trkpt><trkpt lat="45.62087209611494" lon="8.60417216970685"><ele>257.0</ele><time>2026-04-25T16:46:00.999Z</time></trkpt><trkpt lat="45.620856419576825" lon="8.604054708373448"><ele>257.0</ele><time>2026-04-25T16:46:02.999Z</time></trkpt><trkpt lat="45.620836328364064" lon="8.6039246197295"><ele>257.0</ele><time>2026-04-25T16:46:04.998Z</time></trkpt><trkpt lat="45.62081013970048" lon="8.603839829520517"><ele>257.0</ele><time>2026-04-25T16:46:06.998Z</time></trkpt><trkpt lat="45.620882140944275" lon="8.603723942730152"><ele>257.0</ele><time>2026-04-25T16:46:09.998Z</time></trkpt><trkpt lat="45.62092679169787" lon="8.603589954034465"><ele>256.8</ele><time>2026-04-25T16:46:11.998Z</time></trkpt><trkpt lat="45.621007966586085" lon="8.603437349599467"><ele>256.6</ele><time>2026-04-25T16:46:13.998Z</time></trkpt><trkpt lat="45.621056576385186" lon="8.603378974752115"><ele>256.40000000000003</ele><time>2026-04-25T16:46:14.998Z</time></trkpt><trkpt lat="45.62113239591137" lon="8.603287962894695"><ele>256.2</ele><time>2026-04-25T16:46:15.998Z</time></trkpt><trkpt lat="45.62120623912147" lon="8.603202845193643"><ele>256.0</ele><time>2026-04-25T16:46:16.998Z</time></trkpt><trkpt lat="45.621261277771005" lon="8.603083256079646"><ele>255.8</ele><time>2026-04-25T16:46:17.998Z</time></trkpt><trkpt lat="45.62131010512533" lon="8.602964877354367"><ele>255.60000000000002</ele><time>2026-04-25T16:46:18.998Z</time></trkpt><trkpt lat="45.62135089955076" lon="8.602867297722536"><ele>255.4</ele><time>2026-04-25T16:46:19.998Z</time></trkpt><trkpt lat="45.621380271639154" lon="8.602754960333547"><ele>255.2</ele><time>2026-04-25T16:46:20.998Z</time></trkpt><trkpt lat="45.62138189017038" lon="8.602620040087386"><ele>255.0</ele><time>2026-04-25T16:46:21.998Z</time></trkpt><trkpt lat="45.62137065066873" lon="8.602479552239366"><ele>254.4</ele><time>2026-04-25T16:46:22.998Z</time></trkpt><trkpt lat="45.621347758753565" lon="8.602338452782343"><ele>253.8</ele><time>2026-04-25T16:46:23.998Z</time></trkpt><trkpt lat="45.621333616984735" lon="8.602199334029445"><ele>253.2</ele><time>2026-04-25T16:46:24.998Z</time></trkpt><trkpt lat="45.621326446892866" lon="8.602064729216613"><ele>252.6</ele><time>2026-04-25T16:46:25.998Z</time></trkpt><trkpt lat="45.62132812659833" lon="8.601935037779366"><ele>252.0</ele><time>2026-04-25T16:46:26.998Z</time></trkpt><trkpt lat="45.621353269309836" lon="8.601817569948173"><ele>252.0</ele><time>2026-04-25T16:46:27.998Z</time></trkpt><trkpt lat="45.62135969836428" lon="8.601721679544587"><ele>252.0</ele><time>2026-04-25T16:46:28.998Z</time></trkpt><trkpt lat="45.62135660101741" lon="8.601558050411255"><ele>252.0</ele><time>2026-04-25T16:46:30.998Z</time></trkpt><trkpt lat="45.621365452785895" lon="8.601411437527855"><ele>252.0</ele><time>2026-04-25T16:46:32.998Z</time></trkpt><trkpt lat="45.62136926017866" lon="8.601257672487744"><ele>252.0</ele><time>2026-04-25T16:46:34.998Z</time></trkpt><trkpt lat="45.621385582807385" lon="8.601087327970054"><ele>252.16666666666666</ele><time>2026-04-25T16:46:36.998Z</time></trkpt><trkpt lat="45.62139855725151" lon="8.600985689408919"><ele>252.33333333333331</ele><time>2026-04-25T16:46:37.998Z</time></trkpt><trkpt lat="45.62139288941085" lon="8.600872174958244"><ele>252.5</ele><time>2026-04-25T16:46:38.998Z</time></trkpt><trkpt lat="45.621432299227855" lon="8.600758129097859"><ele>252.66666666666666</ele><time>2026-04-25T16:46:39.998Z</time></trkpt><trkpt lat="45.62145492579651" lon="8.600656621788294"><ele>252.83333333333331</ele><time>2026-04-25T16:46:40.998Z</time></trkpt><trkpt lat="45.621501059274486" lon="8.600540958962428"><ele>253.0</ele><time>2026-04-25T16:46:41.998Z</time></trkpt><trkpt lat="45.62156807938494" lon="8.60043794169834"><ele>253.0</ele><time>2026-04-25T16:46:42.998Z</time></trkpt><trkpt lat="45.62165137136742" lon="8.600348361740904"><ele>253.0</ele><time>2026-04-25T16:46:43.998Z</time></trkpt><trkpt lat="45.62173373215004" lon="8.600265238940617"><ele>253.0</ele><time>2026-04-25T16:46:44.997Z</time></trkpt><trkpt lat="45.62183208723776" lon="8.600198284618692"><ele>253.0</ele><time>2026-04-25T16:46:45.997Z</time></trkpt><trkpt lat="45.62193800139823" lon="8.600152424274114"><ele>253.0</ele><time>2026-04-25T16:46:46.997Z</time></trkpt><trkpt lat="45.622029311820064" lon="8.600095852916834"><ele>253.4</ele><time>2026-04-25T16:46:47.997Z</time></trkpt><trkpt lat="45.62210978726209" lon="8.600016697578173"><ele>253.8</ele><time>2026-04-25T16:46:48.997Z</time></trkpt><trkpt lat="45.622189518802124" lon="8.599915752827906"><ele>254.2</ele><time>2026-04-25T16:46:49.997Z</time></trkpt><trkpt lat="45.622259900046906" lon="8.599797155270116"><ele>254.6</ele><time>2026-04-25T16:46:50.997Z</time></trkpt><trkpt lat="45.62231862687629" lon="8.59966149239989"><ele>255.0</ele><time>2026-04-25T16:46:51.997Z</time></trkpt><trkpt lat="45.62237445649454" lon="8.599521483566868"><ele>255.5</ele><time>2026-04-25T16:46:52.997Z</time></trkpt><trkpt lat="45.622428892979705" lon="8.599378013756866"><ele>256.0</ele><time>2026-04-25T16:46:53.997Z</time></trkpt><trkpt lat="45.62246679639179" lon="8.599220777259521"><ele>256.5</ele><time>2026-04-25T16:46:54.997Z</time></trkpt><trkpt lat="45.62248217711797" lon="8.599057793555824"><ele>257.0</ele><time>2026-04-25T16:46:55.997Z</time></trkpt><trkpt lat="45.622477501720844" lon="8.59888926316829"><ele>257.0</ele><time>2026-04-25T16:46:56.997Z</time></trkpt><trkpt lat="45.622460206794294" lon="8.598716829142587"><ele>257.0</ele><time>2026-04-25T16:46:57.997Z</time></trkpt><trkpt lat="45.62243881872675" lon="8.598547732766052"><ele>257.0</ele><time>2026-04-25T16:46:58.997Z</time></trkpt><trkpt lat="45.622406423122904" lon="8.598383154555853"><ele>257.0</ele><time>2026-04-25T16:46:59.997Z</time></trkpt><trkpt lat="45.62236752871704" lon="8.59823155774412"><ele>258.25</ele><time>2026-04-25T16:47:01Z</time></trkpt><trkpt lat="45.62231133771596" lon="8.59809994260232"><ele>259.5</ele><time>2026-04-25T16:47:02Z</time></trkpt><trkpt lat="45.62223828954056" lon="8.597979398205187"><ele>260.75</ele><time>2026-04-25T16:47:03Z</time></trkpt><trkpt lat="45.62214207588347" lon="8.597860523896925"><ele>262.0</ele><time>2026-04-25T16:47:04Z</time></trkpt><trkpt lat="45.622062010452396" lon="8.59774284254422"><ele>263.8</ele><time>2026-04-25T16:47:05Z</time></trkpt><trkpt lat="45.62199344592236" lon="8.597625330491406"><ele>265.6</ele><time>2026-04-25T16:47:06Z</time></trkpt><trkpt lat="45.62194814740386" lon="8.597503441135142"><ele>267.40000000000003</ele><time>2026-04-25T16:47:07Z</time></trkpt><trkpt lat="45.62191533115421" lon="8.597342445967184"><ele>269.2</ele><time>2026-04-25T16:47:08Z</time></trkpt><trkpt lat="45.6218955187392" lon="8.597166651528497"><ele>271.0</ele><time>2026-04-25T16:47:09Z</time></trkpt><trkpt lat="45.62188386400696" lon="8.59698081008842"><ele>271.75</ele><time>2026-04-25T16:47:10Z</time></trkpt><trkpt lat="45.621863634122015" lon="8.596782712923495"><ele>272.5</ele><time>2026-04-25T16:47:11Z</time></trkpt><trkpt lat="45.621838175756885" lon="8.596558356232318"><ele>273.25</ele><time>2026-04-25T16:47:12Z</time></trkpt><trkpt lat="45.62181619841339" lon="8.596354443373064"><ele>274.0</ele><time>2026-04-25T16:47:13Z</time></trkpt><trkpt lat="45.621792784163475" lon="8.596168265739252"><ele>274.0</ele><time>2026-04-25T16:47:14Z</time></trkpt><trkpt lat="45.62176351265767" lon="8.595994392351999"><ele>274.0</ele><time>2026-04-25T16:47:15Z</time></trkpt><trkpt lat="45.62174537968111" lon="8.595819263339394"><ele>274.0</ele><time>2026-04-25T16:47:16Z</time></trkpt><trkpt lat="45.62172121832984" lon="8.595642134218252"><ele>274.0</ele><time>2026-04-25T16:47:17Z</time></trkpt><trkpt lat="45.62168976985206" lon="8.59548190396966"><ele>274.2</ele><time>2026-04-25T16:47:18Z</time></trkpt><trkpt lat="45.621666601836765" lon="8.595303085324945"><ele>274.4</ele><time>2026-04-25T16:47:19Z</time></trkpt><trkpt lat="45.62164840534742" lon="8.59515027195337"><ele>274.6</ele><time>2026-04-25T16:47:20Z</time></trkpt><trkpt lat="45.621634930341905" lon="8.595036047328065"><ele>274.8</ele><time>2026-04-25T16:47:21Z</time></trkpt><trkpt lat="45.62162665142217" lon="8.594930213905803"><ele>275.0</ele><time>2026-04-25T16:47:23Z</time></trkpt><trkpt lat="45.62152466761495" lon="8.594886506282"><ele>275.0</ele><time>2026-04-25T16:47:48.999Z</time></trkpt><trkpt lat="45.62146178995451" lon="8.594900702860134"><ele>275.0</ele><time>2026-04-25T16:47:49.999Z</time></trkpt><trkpt lat="45.62139058820648" lon="8.594923819388013"><ele>275.0</ele><time>2026-04-25T16:47:50.999Z</time></trkpt><trkpt lat="45.62131726221829" lon="8.594957573067138"><ele>275.0</ele><time>2026-04-25T16:47:51.999Z</time></trkpt><trkpt lat="45.62123692571862" lon="8.595003625340535"><ele>275.0</ele><time>2026-04-25T16:47:52.999Z</time></trkpt><trkpt lat="45.62115199245905" lon="8.59506569637531"><ele>275.0</ele><time>2026-04-25T16:47:53.999Z</time></trkpt><trkpt lat="45.62106630248951" lon="8.59512200635299"><ele>275.25</ele><time>2026-04-25T16:47:54.999Z</time></trkpt><trkpt lat="45.62095474526621" lon="8.595173929946972"><ele>275.5</ele><time>2026-04-25T16:47:55.999Z</time></trkpt><trkpt lat="45.62082631409873" lon="8.595261948973432"><ele>275.75</ele><time>2026-04-25T16:47:56.999Z</time></trkpt><trkpt lat="45.620696617981714" lon="8.595330627312446"><ele>276.0</ele><time>2026-04-25T16:47:57.999Z</time></trkpt><trkpt lat="45.62059873613572" lon="8.595373503596102"><ele>276.0</ele><time>2026-04-25T16:47:58.999Z</time></trkpt><trkpt lat="45.62049985913622" lon="8.595426874085652"><ele>276.0</ele><time>2026-04-25T16:47:59.999Z</time></trkpt><trkpt lat="45.620390354377975" lon="8.59547454493003"><ele>276.0</ele><time>2026-04-25T16:48:00.999Z</time></trkpt><trkpt lat="45.62027440092485" lon="8.59551316239874"><ele>276.0</ele><time>2026-04-25T16:48:01.999Z</time></trkpt><trkpt lat="45.62015501418033" lon="8.595559503486063"><ele>276.0</ele><time>2026-04-25T16:48:02.999Z</time></trkpt><trkpt lat="45.620033802657936" lon="8.59561046634476"><ele>276.0</ele><time>2026-04-25T16:48:03.999Z</time></trkpt><trkpt lat="45.61991084690639" lon="8.59565752951477"><ele>276.0</ele><time>2026-04-25T16:48:04.999Z</time></trkpt><trkpt lat="45.619811574943405" lon="8.595698354752354"><ele>276.0</ele><time>2026-04-25T16:48:05.999Z</time></trkpt><trkpt lat="45.61972791445907" lon="8.595732472407741"><ele>276.0</ele><time>2026-04-25T16:48:06.999Z</time></trkpt><trkpt lat="45.61965878628464" lon="8.595753727502956"><ele>276.0</ele><time>2026-04-25T16:48:07.999Z</time></trkpt><trkpt lat="45.61958971010396" lon="8.595736827419378"><ele>276.0</ele><time>2026-04-25T16:48:09.999Z</time></trkpt><trkpt lat="45.619552436046405" lon="8.595477675913923"><ele>276.0</ele><time>2026-04-25T16:48:11.999Z</time></trkpt><trkpt lat="45.619553420740736" lon="8.595364766908103"><ele>276.0</ele><time>2026-04-25T16:48:12.998Z</time></trkpt><trkpt lat="45.619589213218376" lon="8.595212392564902"><ele>276.0</ele><time>2026-04-25T16:48:14.998Z</time></trkpt><trkpt lat="45.61960839041102" lon="8.595114629212768"><ele>275.8333333333333</ele><time>2026-04-25T16:48:16.998Z</time></trkpt><trkpt lat="45.61957386255176" lon="8.594966619897324"><ele>275.6666666666667</ele><time>2026-04-25T16:48:18.998Z</time></trkpt><trkpt lat="45.619571678373994" lon="8.594864191921848"><ele>275.5</ele><time>2026-04-25T16:48:19.998Z</time></trkpt><trkpt lat="45.61955764157596" lon="8.59470943131562"><ele>275.33333333333337</ele><time>2026-04-25T16:48:21.998Z</time></trkpt><trkpt lat="45.619542378302754" lon="8.594598787463282"><ele>275.1666666666667</ele><time>2026-04-25T16:48:22.998Z</time></trkpt><trkpt lat="45.61953133604983" lon="8.594495792029361"><ele>275.0</ele><time>2026-04-25T16:48:23.998Z</time></trkpt><trkpt lat="45.61946563964563" lon="8.594359861594036"><ele>275.2</ele><time>2026-04-25T16:48:25.998Z</time></trkpt><trkpt lat="45.61939323533878" lon="8.59429783841864"><ele>275.4</ele><time>2026-04-25T16:48:27.998Z</time></trkpt><trkpt lat="45.61927790145725" lon="8.594398870679848"><ele>275.6</ele><time>2026-04-25T16:48:29.998Z</time></trkpt><trkpt lat="45.61920404962026" lon="8.594467782181873"><ele>275.8</ele><time>2026-04-25T16:48:30.998Z</time></trkpt><trkpt lat="45.61910548297374" lon="8.59453227022662"><ele>276.0</ele><time>2026-04-25T16:48:31.998Z</time></trkpt><trkpt lat="45.61902362170487" lon="8.594573554551616"><ele>276.0</ele><time>2026-04-25T16:48:32.998Z</time></trkpt><trkpt lat="45.618957409774744" lon="8.594564505890427"><ele>276.0</ele><time>2026-04-25T16:48:33.998Z</time></trkpt><trkpt lat="45.61886743015335" lon="8.594541587293415"><ele>276.0</ele><time>2026-04-25T16:48:34.998Z</time></trkpt><trkpt lat="45.61872935356961" lon="8.594551624943698"><ele>276.0</ele><time>2026-04-25T16:48:35.998Z</time></trkpt><trkpt lat="45.61864176266385" lon="8.594601707126497"><ele>276.0</ele><time>2026-04-25T16:48:36.998Z</time></trkpt><trkpt lat="45.61851812706091" lon="8.594638943392955"><ele>275.0</ele><time>2026-04-25T16:48:37.998Z</time></trkpt><trkpt lat="45.61841944368764" lon="8.59467526187753"><ele>274.0</ele><time>2026-04-25T16:48:38.998Z</time></trkpt><trkpt lat="45.618344929208426" lon="8.594697783410904"><ele>273.0</ele><time>2026-04-25T16:48:39.998Z</time></trkpt><trkpt lat="45.61825539029782" lon="8.59474299080641"><ele>272.0</ele><time>2026-04-25T16:48:40.998Z</time></trkpt><trkpt lat="45.61820268217643" lon="8.594798090517061"><ele>271.0</ele><time>2026-04-25T16:48:41.998Z</time></trkpt><trkpt lat="45.61814815583025" lon="8.594929067057203"><ele>270.0</ele><time>2026-04-25T16:48:42.998Z</time></trkpt><trkpt lat="45.61813023824402" lon="8.5950316121254"><ele>270.0</ele><time>2026-04-25T16:48:43.998Z</time></trkpt><trkpt lat="45.61807944409585" lon="8.595097569415474"><ele>270.0</ele><time>2026-04-25T16:48:44.998Z</time></trkpt><trkpt lat="45.618000920792696" lon="8.595154880295839"><ele>270.0</ele><time>2026-04-25T16:48:45.998Z</time></trkpt><trkpt lat="45.61792287998881" lon="8.595190505367803"><ele>270.0</ele><time>2026-04-25T16:48:46.998Z</time></trkpt><trkpt lat="45.61783004883806" lon="8.59523875042887"><ele>270.0</ele><time>2026-04-25T16:48:47.998Z</time></trkpt><trkpt lat="45.61776837598244" lon="8.595278871409812"><ele>270.0</ele><time>2026-04-25T16:48:48.998Z</time></trkpt><trkpt lat="45.6176497821438" lon="8.595259131562276"><ele>270.0</ele><time>2026-04-25T16:48:50.998Z</time></trkpt><trkpt lat="45.61760039105957" lon="8.595190964878475"><ele>270.0</ele><time>2026-04-25T16:48:51.998Z</time></trkpt><trkpt lat="45.61749260361419" lon="8.595205382222773"><ele>270.0</ele><time>2026-04-25T16:48:53.997Z</time></trkpt><trkpt lat="45.61741728529695" lon="8.595303456097756"><ele>270.0</ele><time>2026-04-25T16:48:54.997Z</time></trkpt><trkpt lat="45.61734961009062" lon="8.59542931873264"><ele>270.0</ele><time>2026-04-25T16:48:55.997Z</time></trkpt><trkpt lat="45.61726378760197" lon="8.59544196555216"><ele>270.0</ele><time>2026-04-25T16:48:56.997Z</time></trkpt><trkpt lat="45.61715100574926" lon="8.595458001561346"><ele>270.0</ele><time>2026-04-25T16:48:57.997Z</time></trkpt><trkpt lat="45.617026861551324" lon="8.59551465194289"><ele>270.0</ele><time>2026-04-25T16:48:58.997Z</time></trkpt><trkpt lat="45.61695263660456" lon="8.595600793078532"><ele>270.0</ele><time>2026-04-25T16:48:59.997Z</time></trkpt><trkpt lat="45.61688888107797" lon="8.595674234248055"><ele>270.0</ele><time>2026-04-25T16:49:00.997Z</time></trkpt><trkpt lat="45.61681586716384" lon="8.595704165418338"><ele>268.6</ele><time>2026-04-25T16:49:01.997Z</time></trkpt><trkpt lat="45.61670183314843" lon="8.595702377915401"><ele>267.2</ele><time>2026-04-25T16:49:03.997Z</time></trkpt><trkpt lat="45.616633893745494" lon="8.595743411384479"><ele>265.8</ele><time>2026-04-25T16:49:04.997Z</time></trkpt><trkpt lat="45.616524574287325" lon="8.59579299290691"><ele>264.4</ele><time>2026-04-25T16:49:09Z</time></trkpt><trkpt lat="45.616480684834016" lon="8.59586569821655"><ele>263.0</ele><time>2026-04-25T16:49:13Z</time></trkpt><trkpt lat="45.61631050396443" lon="8.595977200249699"><ele>263.0</ele><time>2026-04-25T16:49:14Z</time></trkpt><trkpt lat="45.616255169619684" lon="8.596095793628233"><ele>263.0</ele><time>2026-04-25T16:49:16Z</time></trkpt><trkpt lat="45.61622579073889" lon="8.596239926828208"><ele>263.0</ele><time>2026-04-25T16:49:18Z</time></trkpt><trkpt lat="45.616200861702964" lon="8.59640186133991"><ele>263.0</ele><time>2026-04-25T16:49:20Z</time></trkpt><trkpt lat="45.616167280710854" lon="8.596522850891148"><ele>263.0</ele><time>2026-04-25T16:49:22Z</time></trkpt><trkpt lat="45.61612394284209" lon="8.596647994874877"><ele>262.0</ele><time>2026-04-25T16:49:25Z</time></trkpt><trkpt lat="45.61607784635194" lon="8.596768825468326"><ele>261.0</ele><time>2026-04-25T16:49:27Z</time></trkpt><trkpt lat="45.61603366668136" lon="8.596856644187403"><ele>260.0</ele><time>2026-04-25T16:49:28Z</time></trkpt><trkpt lat="45.61596943727312" lon="8.596964819599052"><ele>259.0</ele><time>2026-04-25T16:49:30Z</time></trkpt><trkpt lat="45.6158973160051" lon="8.597066172957948"><ele>258.0</ele><time>2026-04-25T16:49:32Z</time></trkpt><trkpt lat="45.615841155861226" lon="8.597116098726504"><ele>257.0</ele><time>2026-04-25T16:49:33Z</time></trkpt><trkpt lat="45.61574848531071" lon="8.597181151605756"><ele>256.75</ele><time>2026-04-25T16:49:35Z</time></trkpt><trkpt lat="45.61565530881155" lon="8.597240384363637"><ele>256.5</ele><time>2026-04-25T16:49:36.999Z</time></trkpt><trkpt lat="45.61559907158957" lon="8.59740316569534"><ele>256.25</ele><time>2026-04-25T16:49:38.999Z</time></trkpt><trkpt lat="45.615526524737646" lon="8.59742365957614"><ele>256.0</ele><time>2026-04-25T16:49:40.999Z</time></trkpt><trkpt lat="45.61538685796819" lon="8.59758756219559"><ele>256.0</ele><time>2026-04-25T16:49:42.999Z</time></trkpt><trkpt lat="45.61535643194908" lon="8.597703336622654"><ele>256.0</ele><time>2026-04-25T16:49:44.999Z</time></trkpt><trkpt lat="45.61532098442487" lon="8.597827940296082"><ele>256.0</ele><time>2026-04-25T16:49:46.999Z</time></trkpt><trkpt lat="45.61524779178537" lon="8.597937139848419"><ele>256.0</ele><time>2026-04-25T16:49:48.999Z</time></trkpt><trkpt lat="45.61522234008843" lon="8.598063943399357"><ele>256.0</ele><time>2026-04-25T16:49:50.999Z</time></trkpt><trkpt lat="45.61525198838988" lon="8.598174243646193"><ele>255.16666666666666</ele><time>2026-04-25T16:49:52.999Z</time></trkpt><trkpt lat="45.615234285877364" lon="8.598283443358886"><ele>254.33333333333331</ele><time>2026-04-25T16:49:55.999Z</time></trkpt><trkpt lat="45.61522030379382" lon="8.598417159949621"><ele>253.5</ele><time>2026-04-25T16:49:58.999Z</time></trkpt><trkpt lat="45.61515012666223" lon="8.59842348647633"><ele>252.66666666666669</ele><time>2026-04-25T16:50:01.999Z</time></trkpt><trkpt lat="45.61515991818521" lon="8.598528102454667"><ele>251.83333333333334</ele><time>2026-04-25T16:50:41.998Z</time></trkpt><trkpt lat="45.61505161597315" lon="8.598492535010774"><ele>251.0</ele><time>2026-04-25T16:50:45.998Z</time></trkpt><trkpt lat="45.61491633433876" lon="8.598528911011478"><ele>251.0</ele><time>2026-04-25T16:50:46.998Z</time></trkpt><trkpt lat="45.614726374444764" lon="8.598627356980572"><ele>251.0</ele><time>2026-04-25T16:50:47.998Z</time></trkpt><trkpt lat="45.614552557137486" lon="8.598677876127724"><ele>251.0</ele><time>2026-04-25T16:50:48.998Z</time></trkpt><trkpt lat="45.614393067799085" lon="8.598735852703369"><ele>251.33333333333334</ele><time>2026-04-25T16:50:49.998Z</time></trkpt><trkpt lat="45.61419720236375" lon="8.598763084485789"><ele>251.66666666666669</ele><time>2026-04-25T16:50:50.998Z</time></trkpt><trkpt lat="45.614055559311225" lon="8.59870015015185"><ele>252.0</ele><time>2026-04-25T16:50:51.998Z</time></trkpt><trkpt lat="45.61392546006066" lon="8.598737213851624"><ele>252.0</ele><time>2026-04-25T16:50:52.998Z</time></trkpt><trkpt lat="45.61379227583747" lon="8.598765816889621"><ele>252.0</ele><time>2026-04-25T16:50:53.998Z</time></trkpt><trkpt lat="45.613639823522504" lon="8.598817159987394"><ele>252.0</ele><time>2026-04-25T16:50:54.998Z</time></trkpt><trkpt lat="45.61348079846611" lon="8.59884614923156"><ele>252.25</ele><time>2026-04-25T16:50:55.998Z</time></trkpt><trkpt lat="45.61332884756798" lon="8.598878346164014"><ele>252.5</ele><time>2026-04-25T16:50:56.997Z</time></trkpt><trkpt lat="45.613208271644666" lon="8.598905386436174"><ele>252.75</ele><time>2026-04-25T16:50:57.997Z</time></trkpt><trkpt lat="45.613097557280305" lon="8.598917854304483"><ele>253.0</ele><time>2026-04-25T16:50:58.997Z</time></trkpt><trkpt lat="45.613002360655436" lon="8.598897791351835"><ele>253.0</ele><time>2026-04-25T16:50:59.997Z</time></trkpt><trkpt lat="45.61287445813422" lon="8.598900089159436"><ele>253.0</ele><time>2026-04-25T16:51:00.997Z</time></trkpt><trkpt lat="45.61274931361157" lon="8.598868984807094"><ele>253.0</ele><time>2026-04-25T16:51:01.997Z</time></trkpt><trkpt lat="45.61263874086592" lon="8.59882850018027"><ele>253.0</ele><time>2026-04-25T16:51:02.997Z</time></trkpt><trkpt lat="45.61253089313317" lon="8.59881147678921"><ele>252.66666666666666</ele><time>2026-04-25T16:51:03.997Z</time></trkpt><trkpt lat="45.61241573833735" lon="8.598813168986666"><ele>252.33333333333331</ele><time>2026-04-25T16:51:04.997Z</time></trkpt><trkpt lat="45.61231933062954" lon="8.598783908574603"><ele>252.0</ele><time>2026-04-25T16:51:05.997Z</time></trkpt><trkpt lat="45.612246163092045" lon="8.598758291282572"><ele>251.66666666666669</ele><time>2026-04-25T16:51:06.997Z</time></trkpt><trkpt lat="45.6122405106273" lon="8.59864642684142"><ele>251.33333333333334</ele><time>2026-04-25T16:51:09.997Z</time></trkpt><trkpt lat="45.61221598067556" lon="8.598558174558487"><ele>251.0</ele><time>2026-04-25T16:51:10.997Z</time></trkpt><trkpt lat="45.61212513714055" lon="8.598574214088103"><ele>250.5</ele><time>2026-04-25T16:51:14Z</time></trkpt><trkpt lat="45.61208177074423" lon="8.598482958721988"><ele>250.0</ele><time>2026-04-25T16:51:18Z</time></trkpt><trkpt lat="45.61160830573284" lon="8.598765861267502"><ele>249.8</ele><time>2026-04-25T16:51:19Z</time></trkpt><trkpt lat="45.61151329487314" lon="8.598814711426058"><ele>249.6</ele><time>2026-04-25T16:51:20Z</time></trkpt><trkpt lat="45.61142085563876" lon="8.598855928712595"><ele>249.39999999999998</ele><time>2026-04-25T16:51:21Z</time></trkpt><trkpt lat="45.61132636828145" lon="8.598896153431877"><ele>249.2</ele><time>2026-04-25T16:51:22Z</time></trkpt><trkpt lat="45.611195142674354" lon="8.598951190557699"><ele>249.0</ele><time>2026-04-25T16:51:23Z</time></trkpt><trkpt lat="45.61110919630175" lon="8.598979278669317"><ele>249.0</ele><time>2026-04-25T16:51:24Z</time></trkpt><trkpt lat="45.6110356118074" lon="8.598998907120478"><ele>249.0</ele><time>2026-04-25T16:51:25Z</time></trkpt><trkpt lat="45.610967849530304" lon="8.599028019599325"><ele>249.0</ele><time>2026-04-25T16:51:26Z</time></trkpt><trkpt lat="45.61086152044059" lon="8.599061586738838"><ele>249.0</ele><time>2026-04-25T16:51:28Z</time></trkpt><trkpt lat="45.61079010502104" lon="8.599064260321475"><ele>249.0</ele><time>2026-04-25T16:51:30Z</time></trkpt><trkpt lat="45.610706249525066" lon="8.59900892712485"><ele>249.0</ele><time>2026-04-25T16:51:33Z</time></trkpt><trkpt lat="45.610692015316275" lon="8.598805386850714"><ele>249.0</ele><time>2026-04-25T16:51:35Z</time></trkpt><trkpt lat="45.61070162517394" lon="8.59868466297153"><ele>249.0</ele><time>2026-04-25T16:51:36Z</time></trkpt><trkpt lat="45.610684347557445" lon="8.598552651296483"><ele>249.0</ele><time>2026-04-25T16:51:38Z</time></trkpt><trkpt lat="45.61075001852989" lon="8.598558820907959"><ele>249.0</ele><time>2026-04-25T16:51:42.999Z</time></trkpt><trkpt lat="45.610721432276385" lon="8.598459095773475"><ele>249.0</ele><time>2026-04-25T16:51:45.999Z</time></trkpt><trkpt lat="45.61069891771963" lon="8.598353491861877"><ele>249.0</ele><time>2026-04-25T16:51:46.999Z</time></trkpt><trkpt lat="45.610675628970306" lon="8.598075817650198"><ele>249.5</ele><time>2026-04-25T16:51:47.999Z</time></trkpt><trkpt lat="45.6106527424708" lon="8.597844463593724"><ele>250.0</ele><time>2026-04-25T16:51:48.999Z</time></trkpt><trkpt lat="45.61062472645437" lon="8.59769279935382"><ele>250.5</ele><time>2026-04-25T16:51:49.999Z</time></trkpt><trkpt lat="45.610539786676426" lon="8.597649582905493"><ele>251.0</ele><time>2026-04-25T16:51:50.999Z</time></trkpt><trkpt lat="45.610477366285856" lon="8.597560170563405"><ele>251.0</ele><time>2026-04-25T16:51:52.999Z</time></trkpt><trkpt lat="45.610353726749004" lon="8.597556584610091"><ele>251.00000000000003</ele><time>2026-04-25T16:51:54.999Z</time></trkpt><trkpt lat="45.61027596991722" lon="8.597587724430927"><ele>251.00000000000003</ele><time>2026-04-25T16:51:55.999Z</time></trkpt><trkpt lat="45.6102020265712" lon="8.597652016248322"><ele>251.0</ele><time>2026-04-25T16:51:56.999Z</time></trkpt><trkpt lat="45.610089999518365" lon="8.597705647040778"><ele>251.0</ele><time>2026-04-25T16:51:58.999Z</time></trkpt><trkpt lat="45.61000650753877" lon="8.597704648214792"><ele>251.0</ele><time>2026-04-25T16:52:00.999Z</time></trkpt><trkpt lat="45.60990004851391" lon="8.597608038637619"><ele>251.00000000000003</ele><time>2026-04-25T16:52:02.999Z</time></trkpt><trkpt lat="45.609832672273114" lon="8.597589981011236"><ele>251.00000000000003</ele><time>2026-04-25T16:52:03.999Z</time></trkpt><trkpt lat="45.609742352106394" lon="8.59758104312138"><ele>251.0</ele><time>2026-04-25T16:52:04.999Z</time></trkpt><trkpt lat="45.60964062988408" lon="8.597610943535319"><ele>251.0</ele><time>2026-04-25T16:52:05.999Z</time></trkpt><trkpt lat="45.60938683609037" lon="8.59781138765014"><ele>249.4</ele><time>2026-04-25T16:52:06.999Z</time></trkpt><trkpt lat="45.60929470501989" lon="8.597887408097863"><ele>247.8</ele><time>2026-04-25T16:52:07.999Z</time></trkpt><trkpt lat="45.609196323175425" lon="8.597936663819777"><ele>246.20000000000002</ele><time>2026-04-25T16:52:08.999Z</time></trkpt><trkpt lat="45.60909944909031" lon="8.597984208013457"><ele>244.60000000000002</ele><time>2026-04-25T16:52:09.999Z</time></trkpt><trkpt lat="45.60901628547825" lon="8.598018359922493"><ele>243.0</ele><time>2026-04-25T16:52:10.999Z</time></trkpt><trkpt lat="45.60894198345319" lon="8.598054812021523"><ele>243.0</ele><time>2026-04-25T16:52:11.999Z</time></trkpt><trkpt lat="45.60887816090163" lon="8.598091979145485"><ele>243.0</ele><time>2026-04-25T16:52:12.999Z</time></trkpt><trkpt lat="45.60879178292645" lon="8.598061738579442"><ele>243.0</ele><time>2026-04-25T16:52:14.999Z</time></trkpt><trkpt lat="45.60877151528255" lon="8.59795585160568"><ele>243.0</ele><time>2026-04-25T16:52:15.999Z</time></trkpt><trkpt lat="45.608756338959" lon="8.597811889062465"><ele>243.0</ele><time>2026-04-25T16:52:16.999Z</time></trkpt><trkpt lat="45.60867617734015" lon="8.597626233319495"><ele>242.75</ele><time>2026-04-25T16:52:17.999Z</time></trkpt><trkpt lat="45.608585814912665" lon="8.597449175335596"><ele>242.5</ele><time>2026-04-25T16:52:18.999Z</time></trkpt><trkpt lat="45.608518474270575" lon="8.597291011083072"><ele>242.25</ele><time>2026-04-25T16:52:19.999Z</time></trkpt><trkpt lat="45.60845679162567" lon="8.597153796954284"><ele>242.0</ele><time>2026-04-25T16:52:20.999Z</time></trkpt><trkpt lat="45.60840788566066" lon="8.597027023446469"><ele>242.50000000000003</ele><time>2026-04-25T16:52:21.998Z</time></trkpt><trkpt lat="45.608376222511126" lon="8.596926370193419"><ele>243.0</ele><time>2026-04-25T16:52:22.998Z</time></trkpt><trkpt lat="45.60833305128873" lon="8.596815218268176"><ele>243.5</ele><time>2026-04-25T16:52:23.998Z</time></trkpt><trkpt lat="45.60828449795233" lon="8.596700309284934"><ele>244.0</ele><time>2026-04-25T16:52:24.998Z</time></trkpt><trkpt lat="45.608233114749616" lon="8.596589714856323"><ele>244.50000000000003</ele><time>2026-04-25T16:52:25.998Z</time></trkpt><trkpt lat="45.6081927582229" lon="8.59649806184232"><ele>245.0</ele><time>2026-04-25T16:52:26.998Z</time></trkpt><trkpt lat="45.60815556113907" lon="8.596423502969252"><ele>245.0</ele><time>2026-04-25T16:52:27.998Z</time></trkpt><trkpt lat="45.60808147086721" lon="8.596376766142015"><ele>245.0</ele><time>2026-04-25T16:52:29.998Z</time></trkpt><trkpt lat="45.60800558368596" lon="8.596432748413942"><ele>245.0</ele><time>2026-04-25T16:52:30.998Z</time></trkpt><trkpt lat="45.60789151221055" lon="8.596512525658008"><ele>245.0</ele><time>2026-04-25T16:52:31.998Z</time></trkpt><trkpt lat="45.60773191578338" lon="8.596554919092258"><ele>243.0</ele><time>2026-04-25T16:52:32.998Z</time></trkpt><trkpt lat="45.60759368013744" lon="8.59660325445136"><ele>241.0</ele><time>2026-04-25T16:52:33.998Z</time></trkpt><trkpt lat="45.60752309207047" lon="8.596641646999005"><ele>239.0</ele><time>2026-04-25T16:52:34.998Z</time></trkpt><trkpt lat="45.60741700893266" lon="8.59665844554429"><ele>237.0</ele><time>2026-04-25T16:52:36.998Z</time></trkpt><trkpt lat="45.607328783682824" lon="8.596524087982852"><ele>237.0</ele><time>2026-04-25T16:52:38.998Z</time></trkpt><trkpt lat="45.60728103700744" lon="8.596348030913697"><ele>237.0</ele><time>2026-04-25T16:52:39.998Z</time></trkpt><trkpt lat="45.60723291853937" lon="8.596108548667877"><ele>237.0</ele><time>2026-04-25T16:52:40.998Z</time></trkpt><trkpt lat="45.607174268241465" lon="8.595883248651061"><ele>237.0</ele><time>2026-04-25T16:52:41.998Z</time></trkpt><trkpt lat="45.60710255401278" lon="8.595687347699592"><ele>237.0</ele><time>2026-04-25T16:52:42.998Z</time></trkpt><trkpt lat="45.60704956443863" lon="8.595516438238906"><ele>237.0</ele><time>2026-04-25T16:52:43.998Z</time></trkpt><trkpt lat="45.607005125245855" lon="8.59535656707973"><ele>237.0</ele><time>2026-04-25T16:52:44.998Z</time></trkpt><trkpt lat="45.606950171850436" lon="8.595182007660046"><ele>237.0</ele><time>2026-04-25T16:52:45.998Z</time></trkpt><trkpt lat="45.606891923787444" lon="8.595031421318765"><ele>237.0</ele><time>2026-04-25T16:52:46.998Z</time></trkpt><trkpt lat="45.60684278391649" lon="8.59489325288723"><ele>237.0</ele><time>2026-04-25T16:52:47.998Z</time></trkpt><trkpt lat="45.60680045984632" lon="8.594773815617232"><ele>237.0</ele><time>2026-04-25T16:52:48.998Z</time></trkpt><trkpt lat="45.60675654605021" lon="8.594656160996093"><ele>237.0</ele><time>2026-04-25T16:52:49.998Z</time></trkpt><trkpt lat="45.606705285096055" lon="8.59453108811363"><ele>236.83333333333334</ele><time>2026-04-25T16:52:50.998Z</time></trkpt><trkpt lat="45.606656222241064" lon="8.59440486764397"><ele>236.66666666666669</ele><time>2026-04-25T16:52:51.998Z</time></trkpt><trkpt lat="45.606617892622715" lon="8.594290532465322"><ele>236.5</ele><time>2026-04-25T16:52:52.998Z</time></trkpt><trkpt lat="45.60658611337644" lon="8.59419125375008"><ele>236.33333333333334</ele><time>2026-04-25T16:52:53.998Z</time></trkpt><trkpt lat="45.60655587806078" lon="8.594107858598951"><ele>236.16666666666669</ele><time>2026-04-25T16:52:54.998Z</time></trkpt><trkpt lat="45.60650420332386" lon="8.59397570325057"><ele>236.0</ele><time>2026-04-25T16:52:56.998Z</time></trkpt><trkpt lat="45.606388872543214" lon="8.59398541100176"><ele>236.00000000000003</ele><time>2026-04-25T16:52:58.998Z</time></trkpt><trkpt lat="45.606315187959204" lon="8.594035722009803"><ele>236.0</ele><time>2026-04-25T16:52:59.998Z</time></trkpt><trkpt lat="45.606249971907076" lon="8.594075868839242"><ele>236.0</ele><time>2026-04-25T16:53:00.998Z</time></trkpt><trkpt lat="45.606168201237" lon="8.594126570223766"><ele>236.0</ele><time>2026-04-25T16:53:02.997Z</time></trkpt><trkpt lat="45.60612117127145" lon="8.594186985353458"><ele>236.00000000000003</ele><time>2026-04-25T16:53:03.997Z</time></trkpt><trkpt lat="45.60605402996392" lon="8.59424972645862"><ele>236.0</ele><time>2026-04-25T16:53:04.997Z</time></trkpt><trkpt lat="45.605930093726286" lon="8.594303489962293"><ele>236.0</ele><time>2026-04-25T16:53:05.997Z</time></trkpt><trkpt lat="45.60577344264706" lon="8.594346114737453"><ele>236.0</ele><time>2026-04-25T16:53:06.997Z</time></trkpt><trkpt lat="45.605624097880415" lon="8.594405048306497"><ele>236.0</ele><time>2026-04-25T16:53:07.997Z</time></trkpt><trkpt lat="45.605467532078954" lon="8.594476428751193"><ele>236.33333333333334</ele><time>2026-04-25T16:53:08.997Z</time></trkpt><trkpt lat="45.605297144739765" lon="8.594553676082167"><ele>236.66666666666669</ele><time>2026-04-25T16:53:09.997Z</time></trkpt><trkpt lat="45.60511291599312" lon="8.594637573722384"><ele>237.0</ele><time>2026-04-25T16:53:10.997Z</time></trkpt><trkpt lat="45.60496389735593" lon="8.594704171805219"><ele>237.0</ele><time>2026-04-25T16:53:11.997Z</time></trkpt><trkpt lat="45.6048336533301" lon="8.594761978072992"><ele>237.0</ele><time>2026-04-25T16:53:12.997Z</time></trkpt><trkpt lat="45.604720146680016" lon="8.594807460586862"><ele>237.0</ele><time>2026-04-25T16:53:13.997Z</time></trkpt><trkpt lat="45.604619457333264" lon="8.594847417257718"><ele>237.0</ele><time>2026-04-25T16:53:14.997Z</time></trkpt><trkpt lat="45.6045314951948" lon="8.594884161408626"><ele>236.39999999999998</ele><time>2026-04-25T16:53:15.997Z</time></trkpt><trkpt lat="45.60446189507589" lon="8.594897546703528"><ele>235.79999999999998</ele><time>2026-04-25T16:53:16.997Z</time></trkpt><trkpt lat="45.60433099520375" lon="8.594863057010759"><ele>235.2</ele><time>2026-04-25T16:53:20Z</time></trkpt><trkpt lat="45.604241189000476" lon="8.594924867164082"><ele>234.6</ele><time>2026-04-25T16:53:21Z</time></trkpt><trkpt lat="45.60413008430555" lon="8.594977769268274"><ele>234.0</ele><time>2026-04-25T16:53:22Z</time></trkpt><trkpt lat="45.60401719932872" lon="8.59502448607355"><ele>234.0</ele><time>2026-04-25T16:53:23Z</time></trkpt><trkpt lat="45.60392109912482" lon="8.595069232049738"><ele>233.99999999999997</ele><time>2026-04-25T16:53:24Z</time></trkpt><trkpt lat="45.60383767577399" lon="8.595098018567588"><ele>233.99999999999997</ele><time>2026-04-25T16:53:25Z</time></trkpt><trkpt lat="45.6037370014706" lon="8.595139172886812"><ele>234.0</ele><time>2026-04-25T16:53:26Z</time></trkpt><trkpt lat="45.603613513611926" lon="8.595194562130837"><ele>234.0</ele><time>2026-04-25T16:53:27Z</time></trkpt><trkpt lat="45.60349905080135" lon="8.595240273129559"><ele>234.16666666666666</ele><time>2026-04-25T16:53:28Z</time></trkpt><trkpt lat="45.60341596677654" lon="8.595271269033352"><ele>234.33333333333331</ele><time>2026-04-25T16:53:29Z</time></trkpt><trkpt lat="45.60334772233043" lon="8.595294670288986"><ele>234.5</ele><time>2026-04-25T16:53:30Z</time></trkpt><trkpt lat="45.603278539171455" lon="8.595310556862557"><ele>234.66666666666666</ele><time>2026-04-25T16:53:31Z</time></trkpt><trkpt lat="45.603187771477906" lon="8.595322489181852"><ele>234.83333333333331</ele><time>2026-04-25T16:53:32Z</time></trkpt><trkpt lat="45.60309962470019" lon="8.59530106488198"><ele>235.0</ele><time>2026-04-25T16:53:33Z</time></trkpt><trkpt lat="45.603021478785" lon="8.595264307254274"><ele>234.99999999999997</ele><time>2026-04-25T16:53:34Z</time></trkpt><trkpt lat="45.60295823824555" lon="8.595230411251887"><ele>235.0</ele><time>2026-04-25T16:53:35Z</time></trkpt><trkpt lat="45.602895001523066" lon="8.595184259935436"><ele>235.0</ele><time>2026-04-25T16:53:36Z</time></trkpt><trkpt lat="45.602820063448156" lon="8.595143965269699"><ele>235.0</ele><time>2026-04-25T16:53:37Z</time></trkpt><trkpt lat="45.6027466708565" lon="8.59513230848437"><ele>234.99999999999997</ele><time>2026-04-25T16:53:38Z</time></trkpt><trkpt lat="45.602649281727935" lon="8.595130890667509"><ele>235.0</ele><time>2026-04-25T16:53:39Z</time></trkpt><trkpt lat="45.602572971546394" lon="8.59512986803092"><ele>235.49999999999997</ele><time>2026-04-25T16:53:40Z</time></trkpt><trkpt lat="45.60250140622311" lon="8.595129903006487"><ele>236.0</ele><time>2026-04-25T16:53:41Z</time></trkpt><trkpt lat="45.60243591679686" lon="8.59513139211674"><ele>236.5</ele><time>2026-04-25T16:53:42Z</time></trkpt><trkpt lat="45.60229960870123" lon="8.595115020523473"><ele>237.0</ele><time>2026-04-25T16:53:44Z</time></trkpt><trkpt lat="45.60221422367097" lon="8.595089086895525"><ele>237.49999999999997</ele><time>2026-04-25T16:53:45Z</time></trkpt><trkpt lat="45.602135708780885" lon="8.595066887023775"><ele>238.0</ele><time>2026-04-25T16:53:45.999Z</time></trkpt><trkpt lat="45.602002547145986" lon="8.595040364927067"><ele>237.49999999999997</ele><time>2026-04-25T16:53:47.999Z</time></trkpt><trkpt lat="45.60192460256896" lon="8.595018111886626"><ele>237.0</ele><time>2026-04-25T16:53:48.999Z</time></trkpt><trkpt lat="45.60185802040155" lon="8.595012212193062"><ele>236.5</ele><time>2026-04-25T16:53:49.999Z</time></trkpt><trkpt lat="45.60178150498888" lon="8.594983421533538"><ele>236.0</ele><time>2026-04-25T16:53:50.999Z</time></trkpt><trkpt lat="45.601698320499224" lon="8.594966843730663"><ele>235.49999999999997</ele><time>2026-04-25T16:53:51.999Z</time></trkpt><trkpt lat="45.601615324396114" lon="8.594954484416931"><ele>235.0</ele><time>2026-04-25T16:53:52.999Z</time></trkpt><trkpt lat="45.60152846784991" lon="8.59493533841543"><ele>234.99999999999997</ele><time>2026-04-25T16:53:53.999Z</time></trkpt><trkpt lat="45.60144239130892" lon="8.594912931440975"><ele>235.0</ele><time>2026-04-25T16:53:54.999Z</time></trkpt><trkpt lat="45.60135622439402" lon="8.594892324347992"><ele>235.0</ele><time>2026-04-25T16:53:55.999Z</time></trkpt><trkpt lat="45.60126793081482" lon="8.594875826139054"><ele>235.0</ele><time>2026-04-25T16:53:56.999Z</time></trkpt><trkpt lat="45.60118026249746" lon="8.594855649868114"><ele>234.99999999999997</ele><time>2026-04-25T16:53:57.999Z</time></trkpt><trkpt lat="45.60109390019637" lon="8.594831646688824"><ele>235.0</ele><time>2026-04-25T16:53:58.999Z</time></trkpt><trkpt lat="45.60100852368816" lon="8.594801618343876"><ele>234.33333333333331</ele><time>2026-04-25T16:53:59.999Z</time></trkpt><trkpt lat="45.60093500752163" lon="8.594762317047477"><ele>233.66666666666666</ele><time>2026-04-25T16:54:00.999Z</time></trkpt><trkpt lat="45.60085987977772" lon="8.594721025125775"><ele>233.0</ele><time>2026-04-25T16:54:01.999Z</time></trkpt><trkpt lat="45.60078348640014" lon="8.594670997783549"><ele>232.33333333333331</ele><time>2026-04-25T16:54:02.999Z</time></trkpt><trkpt lat="45.60070677872159" lon="8.594632800616203"><ele>231.66666666666666</ele><time>2026-04-25T16:54:03.999Z</time></trkpt><trkpt lat="45.60063451412435" lon="8.594589016386706"><ele>231.0</ele><time>2026-04-25T16:54:04.999Z</time></trkpt><trkpt lat="45.60056393133658" lon="8.594557212981066"><ele>231.0</ele><time>2026-04-25T16:54:05.999Z</time></trkpt><trkpt lat="45.60046870876181" lon="8.594520658591348"><ele>231.0</ele><time>2026-04-25T16:54:06.999Z</time></trkpt><trkpt lat="45.60037964554777" lon="8.594476206781202"><ele>231.0</ele><time>2026-04-25T16:54:07.999Z</time></trkpt><trkpt lat="45.60030803103343" lon="8.594449993201923"><ele>231.0</ele><time>2026-04-25T16:54:08.999Z</time></trkpt><trkpt lat="45.60022598072834" lon="8.594447619325056"><ele>231.0</ele><time>2026-04-25T16:54:09.999Z</time></trkpt><trkpt lat="45.60012963311251" lon="8.594464360821936"><ele>231.0</ele><time>2026-04-25T16:54:10.999Z</time></trkpt><trkpt lat="45.600033512910905" lon="8.594481943551207"><ele>231.20000000000002</ele><time>2026-04-25T16:54:11.999Z</time></trkpt><trkpt lat="45.59996422259798" lon="8.594495596742087"><ele>231.40000000000003</ele><time>2026-04-25T16:54:12.999Z</time></trkpt><trkpt lat="45.59988885968945" lon="8.59453968188436"><ele>231.6</ele><time>2026-04-25T16:54:14.999Z</time></trkpt><trkpt lat="45.59987944112983" lon="8.594730608075187"><ele>231.8</ele><time>2026-04-25T16:54:16.999Z</time></trkpt><trkpt lat="45.599893458791506" lon="8.594875520029849"><ele>232.0</ele><time>2026-04-25T16:54:17.999Z</time></trkpt><trkpt lat="45.599874625329456" lon="8.59502929612368"><ele>232.0</ele><time>2026-04-25T16:54:18.999Z</time></trkpt><trkpt lat="45.59981375143701" lon="8.595221027459509"><ele>232.0</ele><time>2026-04-25T16:54:19.999Z</time></trkpt><trkpt lat="45.599769151709985" lon="8.595388906425324"><ele>232.0</ele><time>2026-04-25T16:54:20.999Z</time></trkpt><trkpt lat="45.59973743030906" lon="8.59554053524502"><ele>232.0</ele><time>2026-04-25T16:54:21.999Z</time></trkpt><trkpt lat="45.599698760296796" lon="8.595699921213665"><ele>232.0</ele><time>2026-04-25T16:54:22.999Z</time></trkpt><trkpt lat="45.59964889117106" lon="8.595855844292904"><ele>232.0</ele><time>2026-04-25T16:54:23.999Z</time></trkpt><trkpt lat="45.59960732237293" lon="8.595994213833661"><ele>232.0</ele><time>2026-04-25T16:54:24.999Z</time></trkpt><trkpt lat="45.599578288588134" lon="8.59614188580177"><ele>232.0</ele><time>2026-04-25T16:54:25.998Z</time></trkpt><trkpt lat="45.599544141321346" lon="8.596274057568973"><ele>232.0</ele><time>2026-04-25T16:54:26.998Z</time></trkpt><trkpt lat="45.59950372336185" lon="8.596366535395068"><ele>231.8</ele><time>2026-04-25T16:54:27.998Z</time></trkpt><trkpt lat="45.59947388813616" lon="8.596498780094636"><ele>231.6</ele><time>2026-04-25T16:54:28.998Z</time></trkpt><trkpt lat="45.59946198609474" lon="8.59666607324743"><ele>231.40000000000003</ele><time>2026-04-25T16:54:29.998Z</time></trkpt><trkpt lat="45.599472529204434" lon="8.596851365078122"><ele>231.20000000000002</ele><time>2026-04-25T16:54:30.998Z</time></trkpt><trkpt lat="45.59948207939206" lon="8.596977539659"><ele>231.0</ele><time>2026-04-25T16:54:31.998Z</time></trkpt><trkpt lat="45.59949335405357" lon="8.597088203916858"><ele>231.16666666666666</ele><time>2026-04-25T16:54:32.998Z</time></trkpt><trkpt lat="45.5995018393824" lon="8.597193936797192"><ele>231.33333333333331</ele><time>2026-04-25T16:54:33.998Z</time></trkpt><trkpt lat="45.59950783444176" lon="8.597302308061957"><ele>231.5</ele><time>2026-04-25T16:54:34.998Z</time></trkpt><trkpt lat="45.599516427502294" lon="8.597409422350724"><ele>231.66666666666666</ele><time>2026-04-25T16:54:35.998Z</time></trkpt><trkpt lat="45.599522516308895" lon="8.597519902830495"><ele>231.83333333333331</ele><time>2026-04-25T16:54:36.998Z</time></trkpt><trkpt lat="45.5995259206123" lon="8.597633577899588"><ele>232.0</ele><time>2026-04-25T16:54:37.998Z</time></trkpt><trkpt lat="45.59952810318748" lon="8.597738300548823"><ele>231.49999999999997</ele><time>2026-04-25T16:54:38.998Z</time></trkpt><trkpt lat="45.59953776710158" lon="8.59785193076296"><ele>231.0</ele><time>2026-04-25T16:54:39.998Z</time></trkpt><trkpt lat="45.59954624447051" lon="8.59796666512964"><ele>230.5</ele><time>2026-04-25T16:54:40.998Z</time></trkpt><trkpt lat="45.59954807754792" lon="8.598084693345195"><ele>230.0</ele><time>2026-04-25T16:54:41.998Z</time></trkpt><trkpt lat="45.59954698157789" lon="8.598211485534119"><ele>229.49999999999997</ele><time>2026-04-25T16:54:42.998Z</time></trkpt><trkpt lat="45.5995404593802" lon="8.59833622105265"><ele>229.0</ele><time>2026-04-25T16:54:43.998Z</time></trkpt><trkpt lat="45.599538329886215" lon="8.59846256550106"><ele>228.99999999999997</ele><time>2026-04-25T16:54:44.998Z</time></trkpt><trkpt lat="45.599531274745075" lon="8.598591064882438"><ele>229.0</ele><time>2026-04-25T16:54:45.998Z</time></trkpt><trkpt lat="45.59951215644563" lon="8.598716889238494"><ele>229.0</ele><time>2026-04-25T16:54:46.998Z</time></trkpt><trkpt lat="45.599468774743336" lon="8.598824840620898"><ele>229.0</ele><time>2026-04-25T16:54:47.998Z</time></trkpt><trkpt lat="45.599399699557445" lon="8.598905275489681"><ele>228.99999999999997</ele><time>2026-04-25T16:54:48.998Z</time></trkpt><trkpt lat="45.599308183919796" lon="8.598919426441586"><ele>229.0</ele><time>2026-04-25T16:54:49.998Z</time></trkpt><trkpt lat="45.59921413732023" lon="8.598958707525348"><ele>227.75</ele><time>2026-04-25T16:54:50.998Z</time></trkpt><trkpt lat="45.5990981525645" lon="8.599004477693924"><ele>226.5</ele><time>2026-04-25T16:54:51.998Z</time></trkpt><trkpt lat="45.59897483136842" lon="8.599113648082897"><ele>225.25</ele><time>2026-04-25T16:54:52.998Z</time></trkpt><trkpt lat="45.598836288220284" lon="8.599283646961837"><ele>224.0</ele><time>2026-04-25T16:54:53.998Z</time></trkpt><trkpt lat="45.59869825276748" lon="8.599498846492512"><ele>224.0</ele><time>2026-04-25T16:54:54.998Z</time></trkpt><trkpt lat="45.59857625665502" lon="8.599753993719556"><ele>224.0</ele><time>2026-04-25T16:54:55.998Z</time></trkpt><trkpt lat="45.59846711282264" lon="8.600040375899372"><ele>224.0</ele><time>2026-04-25T16:54:56.998Z</time></trkpt><trkpt lat="45.5983612781408" lon="8.600280868736242"><ele>224.2</ele><time>2026-04-25T16:54:57.998Z</time></trkpt><trkpt lat="45.598303280201364" lon="8.600485312625347"><ele>224.39999999999998</ele><time>2026-04-25T16:54:58.998Z</time></trkpt><trkpt lat="45.598277623357724" lon="8.600658100904289"><ele>224.6</ele><time>2026-04-25T16:54:59.998Z</time></trkpt><trkpt lat="45.5982557381415" lon="8.600775866056962"><ele>224.8</ele><time>2026-04-25T16:55:00.998Z</time></trkpt><trkpt lat="45.598199188834364" lon="8.6008634599733"><ele>225.0</ele><time>2026-04-25T16:55:02.998Z</time></trkpt><trkpt lat="45.59796063317215" lon="8.600749304361122"><ele>226.0</ele><time>2026-04-25T16:55:05.998Z</time></trkpt><trkpt lat="45.597808470221956" lon="8.600748285481156"><ele>227.0</ele><time>2026-04-25T16:55:06.997Z</time></trkpt><trkpt lat="45.59765240342885" lon="8.600766607467671"><ele>228.0</ele><time>2026-04-25T16:55:07.997Z</time></trkpt><trkpt lat="45.597489233601515" lon="8.600791822103941"><ele>228.0</ele><time>2026-04-25T16:55:08.997Z</time></trkpt><trkpt lat="45.59735824484965" lon="8.600833986159339"><ele>228.0</ele><time>2026-04-25T16:55:09.997Z</time></trkpt><trkpt lat="45.597250388848956" lon="8.600908332895608"><ele>228.0</ele><time>2026-04-25T16:55:10.997Z</time></trkpt><trkpt lat="45.59714766940027" lon="8.601028034014428"><ele>228.0</ele><time>2026-04-25T16:55:11.997Z</time></trkpt><trkpt lat="45.59705443239696" lon="8.601171081671014"><ele>228.0</ele><time>2026-04-25T16:55:12.997Z</time></trkpt><trkpt lat="45.59697331007131" lon="8.601300330733995"><ele>228.0</ele><time>2026-04-25T16:55:13.997Z</time></trkpt><trkpt lat="45.596907445650004" lon="8.601382732708121"><ele>228.0</ele><time>2026-04-25T16:55:14.997Z</time></trkpt><trkpt lat="45.59681541099062" lon="8.601464415839617"><ele>228.0</ele><time>2026-04-25T16:55:16.997Z</time></trkpt><trkpt lat="45.59671644122673" lon="8.601416707359371"><ele>228.0</ele><time>2026-04-25T16:55:18.997Z</time></trkpt><trkpt lat="45.5966919112057" lon="8.601309883436723"><ele>228.0</ele><time>2026-04-25T16:55:19.997Z</time></trkpt><trkpt lat="45.59670652662563" lon="8.601212644853966"><ele>228.0</ele><time>2026-04-25T16:55:20.997Z</time></trkpt><trkpt lat="45.596715086158895" lon="8.601075932080192"><ele>228.0</ele><time>2026-04-25T16:55:23Z</time></trkpt><trkpt lat="45.596732869319666" lon="8.600954266362395"><ele>228.0</ele><time>2026-04-25T16:55:25Z</time></trkpt><trkpt lat="45.59667965500177" lon="8.60081557780278"><ele>228.0</ele><time>2026-04-25T16:55:27Z</time></trkpt><trkpt lat="45.59662231842007" lon="8.600773324087973"><ele>228.0</ele><time>2026-04-25T16:55:28Z</time></trkpt><trkpt lat="45.59654946628037" lon="8.600771107387311"><ele>228.0</ele><time>2026-04-25T16:55:29Z</time></trkpt><trkpt lat="45.596472568372704" lon="8.600787225163925"><ele>228.0</ele><time>2026-04-25T16:55:30Z</time></trkpt><trkpt lat="45.59639509781358" lon="8.600801536757947"><ele>228.0</ele><time>2026-04-25T16:55:31Z</time></trkpt><trkpt lat="45.59631153706341" lon="8.600813274687466"><ele>228.0</ele><time>2026-04-25T16:55:32Z</time></trkpt><trkpt lat="45.596226432073706" lon="8.600832715069817"><ele>228.0</ele><time>2026-04-25T16:55:33Z</time></trkpt><trkpt lat="45.5961395252706" lon="8.600862635967394"><ele>228.0</ele><time>2026-04-25T16:55:34Z</time></trkpt><trkpt lat="45.59604676460343" lon="8.600896016260112"><ele>228.0</ele><time>2026-04-25T16:55:35Z</time></trkpt><trkpt lat="45.59596324534565" lon="8.600922480396608"><ele>228.0</ele><time>2026-04-25T16:55:36Z</time></trkpt><trkpt lat="45.59587809767811" lon="8.600951529426895"><ele>228.0</ele><time>2026-04-25T16:55:37Z</time></trkpt><trkpt lat="45.59579310930713" lon="8.600982611563737"><ele>228.0</ele><time>2026-04-25T16:55:38Z</time></trkpt><trkpt lat="45.595707241083545" lon="8.6010107264065"><ele>228.0</ele><time>2026-04-25T16:55:39Z</time></trkpt><trkpt lat="45.59561905678334" lon="8.601034671911469"><ele>228.0</ele><time>2026-04-25T16:55:40Z</time></trkpt><trkpt lat="45.59552834098257" lon="8.601064632290303"><ele>228.0</ele><time>2026-04-25T16:55:41Z</time></trkpt><trkpt lat="45.59543860768853" lon="8.601103124172527"><ele>228.0</ele><time>2026-04-25T16:55:42Z</time></trkpt><trkpt lat="45.595350229009455" lon="8.60113540699742"><ele>228.0</ele><time>2026-04-25T16:55:43Z</time></trkpt><trkpt lat="45.59525519120556" lon="8.601165444336818"><ele>228.0</ele><time>2026-04-25T16:55:44Z</time></trkpt><trkpt lat="45.595157866566964" lon="8.601189895496974"><ele>228.0</ele><time>2026-04-25T16:55:45Z</time></trkpt><trkpt lat="45.59507190450963" lon="8.601203407458152"><ele>228.0</ele><time>2026-04-25T16:55:46Z</time></trkpt><trkpt lat="45.594995454302186" lon="8.601190920027022"><ele>228.0</ele><time>2026-04-25T16:55:47Z</time></trkpt><trkpt lat="45.59490263846194" lon="8.60117820720739"><ele>228.0</ele><time>2026-04-25T16:55:48Z</time></trkpt><trkpt lat="45.594818857313165" lon="8.601155785880172"><ele>228.0</ele><time>2026-04-25T16:55:48.999Z</time></trkpt><trkpt lat="45.594734634940586" lon="8.601130229854533"><ele>228.0</ele><time>2026-04-25T16:55:49.999Z</time></trkpt><trkpt lat="45.59466093400876" lon="8.601103547917173"><ele>228.0</ele><time>2026-04-25T16:55:50.999Z</time></trkpt><trkpt lat="45.59458635118408" lon="8.601077899426654"><ele>228.0</ele><time>2026-04-25T16:55:51.999Z</time></trkpt><trkpt lat="45.59451418933331" lon="8.60104810986379"><ele>228.0</ele><time>2026-04-25T16:55:52.999Z</time></trkpt><trkpt lat="45.59445131905202" lon="8.601028949434927"><ele>228.0</ele><time>2026-04-25T16:55:53.999Z</time></trkpt><trkpt lat="45.594347876202036" lon="8.60100764360997"><ele>228.0</ele><time>2026-04-25T16:55:55.999Z</time></trkpt><trkpt lat="45.594269347918235" lon="8.60098964564739"><ele>228.0</ele><time>2026-04-25T16:55:57.999Z</time></trkpt><trkpt lat="45.5942513086888" lon="8.601153636570027"><ele>228.0</ele><time>2026-04-25T16:56:00.999Z</time></trkpt><trkpt lat="45.594297893509896" lon="8.601287845196763"><ele>227.83333333333334</ele><time>2026-04-25T16:56:01.999Z</time></trkpt><trkpt lat="45.594320217523105" lon="8.601407211408842"><ele>227.66666666666669</ele><time>2026-04-25T16:56:02.999Z</time></trkpt><trkpt lat="45.594325609316066" lon="8.601511339566239"><ele>227.5</ele><time>2026-04-25T16:56:03.999Z</time></trkpt><trkpt lat="45.59431779582448" lon="8.601616445303945"><ele>227.33333333333334</ele><time>2026-04-25T16:56:04.999Z</time></trkpt><trkpt lat="45.594293177859626" lon="8.601715477430064"><ele>227.16666666666669</ele><time>2026-04-25T16:56:05.999Z</time></trkpt><trkpt lat="45.59424404686324" lon="8.60181261166253"><ele>227.0</ele><time>2026-04-25T16:56:06.999Z</time></trkpt><trkpt lat="45.5941960416955" lon="8.60191789049518"><ele>227.33333333333334</ele><time>2026-04-25T16:56:07.999Z</time></trkpt><trkpt lat="45.594156667311296" lon="8.602018462810456"><ele>227.66666666666669</ele><time>2026-04-25T16:56:08.999Z</time></trkpt><trkpt lat="45.5941455284704" lon="8.60214068279168"><ele>228.0</ele><time>2026-04-25T16:56:09.999Z</time></trkpt><trkpt lat="45.594154729973475" lon="8.602270811901857"><ele>228.33333333333331</ele><time>2026-04-25T16:56:10.999Z</time></trkpt><trkpt lat="45.59416513366441" lon="8.602396855055991"><ele>228.66666666666666</ele><time>2026-04-25T16:56:11.999Z</time></trkpt><trkpt lat="45.594173469978045" lon="8.602524483105828"><ele>229.0</ele><time>2026-04-25T16:56:12.999Z</time></trkpt><trkpt lat="45.5941791309884" lon="8.602650190040281"><ele>229.0</ele><time>2026-04-25T16:56:13.999Z</time></trkpt><trkpt lat="45.59418765086222" lon="8.60277936020996"><ele>228.99999999999997</ele><time>2026-04-25T16:56:14.999Z</time></trkpt><trkpt lat="45.59419832464525" lon="8.602910043445396"><ele>228.99999999999997</ele><time>2026-04-25T16:56:15.999Z</time></trkpt><trkpt lat="45.59421599582484" lon="8.603044853515737"><ele>229.0</ele><time>2026-04-25T16:56:16.999Z</time></trkpt><trkpt lat="45.59423324439478" lon="8.603180161291048"><ele>229.0</ele><time>2026-04-25T16:56:17.999Z</time></trkpt><trkpt lat="45.594252584556514" lon="8.60332285491841"><ele>229.2</ele><time>2026-04-25T16:56:18.999Z</time></trkpt><trkpt lat="45.59427529089372" lon="8.603458253554846"><ele>229.39999999999998</ele><time>2026-04-25T16:56:19.999Z</time></trkpt><trkpt lat="45.59430064303125" lon="8.603592086588353"><ele>229.6</ele><time>2026-04-25T16:56:20.999Z</time></trkpt><trkpt lat="45.59433013897791" lon="8.603728001034153"><ele>229.8</ele><time>2026-04-25T16:56:21.999Z</time></trkpt><trkpt lat="45.59436368079006" lon="8.603859386716225"><ele>230.0</ele><time>2026-04-25T16:56:22.999Z</time></trkpt><trkpt lat="45.594404701955966" lon="8.60398706137611"><ele>230.0</ele><time>2026-04-25T16:56:23.999Z</time></trkpt><trkpt lat="45.59445364199664" lon="8.604110328642253"><ele>230.0</ele><time>2026-04-25T16:56:24.999Z</time></trkpt><trkpt lat="45.59449143998208" lon="8.604242835621141"><ele>230.0</ele><time>2026-04-25T16:56:25.999Z</time></trkpt><trkpt lat="45.59451784603515" lon="8.604382808076457"><ele>230.0</ele><time>2026-04-25T16:56:26.999Z</time></trkpt><trkpt lat="45.594540327131114" lon="8.6045236145239"><ele>230.0</ele><time>2026-04-25T16:56:27.998Z</time></trkpt><trkpt lat="45.594560884775426" lon="8.60466578245944"><ele>230.0</ele><time>2026-04-25T16:56:28.998Z</time></trkpt><trkpt lat="45.594581207158775" lon="8.604809954585955"><ele>230.0</ele><time>2026-04-25T16:56:29.998Z</time></trkpt><trkpt lat="45.59460388514012" lon="8.604953819288255"><ele>230.0</ele><time>2026-04-25T16:56:30.998Z</time></trkpt><trkpt lat="45.59462557437521" lon="8.605094540673097"><ele>230.0</ele><time>2026-04-25T16:56:31.998Z</time></trkpt><trkpt lat="45.59464917612121" lon="8.605231212625423"><ele>230.0</ele><time>2026-04-25T16:56:32.998Z</time></trkpt><trkpt lat="45.59467477318157" lon="8.605367390445934"><ele>229.8</ele><time>2026-04-25T16:56:33.998Z</time></trkpt><trkpt lat="45.59470433842719" lon="8.60550989488864"><ele>229.6</ele><time>2026-04-25T16:56:34.998Z</time></trkpt><trkpt lat="45.59473804101589" lon="8.605653605428506"><ele>229.39999999999998</ele><time>2026-04-25T16:56:35.998Z</time></trkpt><trkpt lat="45.59477089720846" lon="8.605796698265232"><ele>229.2</ele><time>2026-04-25T16:56:36.998Z</time></trkpt><trkpt lat="45.59480508851555" lon="8.605938395021017"><ele>229.0</ele><time>2026-04-25T16:56:37.998Z</time></trkpt><trkpt lat="45.594837759916004" lon="8.606080683084711"><ele>229.0</ele><time>2026-04-25T16:56:38.998Z</time></trkpt><trkpt lat="45.594872820107604" lon="8.606221666481222"><ele>228.99999999999997</ele><time>2026-04-25T16:56:39.998Z</time></trkpt><trkpt lat="45.59490684391139" lon="8.60636405437231"><ele>228.99999999999997</ele><time>2026-04-25T16:56:40.998Z</time></trkpt><trkpt lat="45.59494222105892" lon="8.606505839480267"><ele>229.0</ele><time>2026-04-25T16:56:41.998Z</time></trkpt><trkpt lat="45.59497660527535" lon="8.60664758348242"><ele>229.0</ele><time>2026-04-25T16:56:42.998Z</time></trkpt><trkpt lat="45.595006453380165" lon="8.606777425943703"><ele>229.0</ele><time>2026-04-25T16:56:43.998Z</time></trkpt><trkpt lat="45.59503513005804" lon="8.606897226642825"><ele>228.99999999999997</ele><time>2026-04-25T16:56:44.998Z</time></trkpt><trkpt lat="45.59505680337736" lon="8.607003161170608"><ele>228.99999999999997</ele><time>2026-04-25T16:56:45.998Z</time></trkpt><trkpt lat="45.59507974596608" lon="8.607106848870918"><ele>229.0</ele><time>2026-04-25T16:56:46.998Z</time></trkpt><trkpt lat="45.59509227950698" lon="8.60726103705644"><ele>229.0</ele><time>2026-04-25T16:56:48.998Z</time></trkpt><trkpt lat="45.59499991967442" lon="8.60738248009106"><ele>229.16666666666666</ele><time>2026-04-25T16:56:50.998Z</time></trkpt><trkpt lat="45.59492896987942" lon="8.607418049927881"><ele>229.33333333333331</ele><time>2026-04-25T16:56:51.998Z</time></trkpt><trkpt lat="45.59486327348963" lon="8.607459609659445"><ele>229.5</ele><time>2026-04-25T16:56:52.998Z</time></trkpt><trkpt lat="45.594787504467654" lon="8.60750686592025"><ele>229.66666666666669</ele><time>2026-04-25T16:56:53.998Z</time></trkpt><trkpt lat="45.59469957379276" lon="8.607538404580355"><ele>229.83333333333334</ele><time>2026-04-25T16:56:54.998Z</time></trkpt><trkpt lat="45.5946055753398" lon="8.607556311197328"><ele>230.0</ele><time>2026-04-25T16:56:55.998Z</time></trkpt><trkpt lat="45.5945073656232" lon="8.6075784759392"><ele>229.8</ele><time>2026-04-25T16:56:56.998Z</time></trkpt><trkpt lat="45.594403116290515" lon="8.607598418946106"><ele>229.6</ele><time>2026-04-25T16:56:57.998Z</time></trkpt><trkpt lat="45.59430467594667" lon="8.607612380988874"><ele>229.39999999999998</ele><time>2026-04-25T16:56:58.998Z</time></trkpt><trkpt lat="45.59419945451278" lon="8.607630423680964"><ele>229.2</ele><time>2026-04-25T16:56:59.998Z</time></trkpt><trkpt lat="45.594095185477535" lon="8.607644058808832"><ele>229.0</ele><time>2026-04-25T16:57:00.998Z</time></trkpt><trkpt lat="45.593991098246974" lon="8.607647080424918"><ele>229.0</ele><time>2026-04-25T16:57:01.998Z</time></trkpt><trkpt lat="45.593885285538924" lon="8.607659890668899"><ele>228.99999999999997</ele><time>2026-04-25T16:57:02.998Z</time></trkpt><trkpt lat="45.593780843605735" lon="8.607670741174783"><ele>228.99999999999997</ele><time>2026-04-25T16:57:03.998Z</time></trkpt><trkpt lat="45.59367438923611" lon="8.607658166547163"><ele>229.0</ele><time>2026-04-25T16:57:04.998Z</time></trkpt><trkpt lat="45.5935723266128" lon="8.607635986499421"><ele>229.0</ele><time>2026-04-25T16:57:05.998Z</time></trkpt><trkpt lat="45.59346494000054" lon="8.60764065437994"><ele>228.83333333333331</ele><time>2026-04-25T16:57:06.998Z</time></trkpt><trkpt lat="45.593365032150196" lon="8.60764932597763"><ele>228.66666666666666</ele><time>2026-04-25T16:57:07.998Z</time></trkpt><trkpt lat="45.59327287672863" lon="8.607651252119316"><ele>228.5</ele><time>2026-04-25T16:57:08.997Z</time></trkpt><trkpt lat="45.59318723000998" lon="8.607654327112396"><ele>228.33333333333331</ele><time>2026-04-25T16:57:09.997Z</time></trkpt><trkpt lat="45.59310278555457" lon="8.607654787779973"><ele>228.16666666666666</ele><time>2026-04-25T16:57:10.997Z</time></trkpt><trkpt lat="45.593024268936766" lon="8.607660649636943"><ele>228.0</ele><time>2026-04-25T16:57:11.997Z</time></trkpt><trkpt lat="45.59294778005945" lon="8.607676234492285"><ele>228.0</ele><time>2026-04-25T16:57:12.997Z</time></trkpt><trkpt lat="45.592875331412905" lon="8.607691529039233"><ele>228.0</ele><time>2026-04-25T16:57:13.997Z</time></trkpt><trkpt lat="45.5928075050042" lon="8.607699624705235"><ele>228.0</ele><time>2026-04-25T16:57:14.997Z</time></trkpt><trkpt lat="45.59274393796062" lon="8.60770272201954"><ele>228.0</ele><time>2026-04-25T16:57:15.997Z</time></trkpt><trkpt lat="45.59263283054383" lon="8.607713722359357"><ele>228.0</ele><time>2026-04-25T16:57:17.997Z</time></trkpt><trkpt lat="45.59253810648982" lon="8.607720307862543"><ele>228.0</ele><time>2026-04-25T16:57:19.997Z</time></trkpt><trkpt lat="45.59244828882078" lon="8.607687187047892"><ele>227.4</ele><time>2026-04-25T16:57:25.997Z</time></trkpt><trkpt lat="45.592458566614816" lon="8.607524369323194"><ele>226.8</ele><time>2026-04-25T16:57:27.997Z</time></trkpt><trkpt lat="45.59262954911952" lon="8.607474384737623"><ele>226.2</ele><time>2026-04-25T16:57:34Z</time></trkpt><trkpt lat="45.59269610163616" lon="8.607422177008443"><ele>225.6</ele><time>2026-04-25T16:57:36Z</time></trkpt><trkpt lat="45.59275857257033" lon="8.607398169165405"><ele>225.0</ele><time>2026-04-25T16:57:41Z</time></trkpt><trkpt lat="45.59283529770838" lon="8.607390450638766"><ele>226.5</ele><time>2026-04-25T16:57:44Z</time></trkpt><trkpt lat="45.59288105494168" lon="8.60773608416299"><ele>228.0</ele><time>2026-04-25T16:57:45Z</time></trkpt><trkpt lat="45.592844514038404" lon="8.607268649117067"><ele>227.57142857142856</ele><time>2026-04-25T16:57:49.999Z</time></trkpt><trkpt lat="45.59278033238202" lon="8.607299957286576"><ele>227.1428571428571</ele><time>2026-04-25T16:57:57.999Z</time></trkpt><trkpt lat="45.59272216346442" lon="8.607338984102375"><ele>226.71428571428572</ele><time>2026-04-25T17:01:19.997Z</time></trkpt><trkpt lat="45.59278014648598" lon="8.607299749863817"><ele>226.28571428571428</ele><time>2026-04-25T17:01:52Z</time></trkpt><trkpt lat="45.59270154071051" lon="8.607320704121216"><ele>225.85714285714286</ele><time>2026-04-25T17:20:55Z</time></trkpt><trkpt lat="45.592682572372624" lon="8.607414203731842"><ele>225.42857142857144</ele><time>2026-04-25T17:20:58Z</time></trkpt><trkpt lat="45.592606487888226" lon="8.607462817160256"><ele>225.00000000000003</ele><time>2026-04-25T17:21:00Z</time></trkpt><trkpt lat="45.59252663896234" lon="8.607469046136531"><ele>225.0</ele><time>2026-04-25T17:21:02Z</time></trkpt><trkpt lat="45.592496886553946" lon="8.607605571105694"><ele>225.0</ele><time>2026-04-25T17:21:07Z</time></trkpt><trkpt lat="45.59251751997241" lon="8.607699949191607"><ele>225.0</ele><time>2026-04-25T17:21:10Z</time></trkpt><trkpt lat="45.59261157303331" lon="8.607747776648209"><ele>225.0</ele><time>2026-04-25T17:21:12Z</time></trkpt><trkpt lat="45.59271602730193" lon="8.607720511507425"><ele>225.0</ele><time>2026-04-25T17:21:14Z</time></trkpt><trkpt lat="45.59278946127763" lon="8.607713722090914"><ele>225.0</ele><time>2026-04-25T17:21:15Z</time></trkpt><trkpt lat="45.59286756204799" lon="8.607738153538806"><ele>225.42857142857144</ele><time>2026-04-25T17:21:16Z</time></trkpt><trkpt lat="45.59293822668421" lon="8.607727315817002"><ele>225.85714285714286</ele><time>2026-04-25T17:21:17Z</time></trkpt><trkpt lat="45.5930064772201" lon="8.607717647321396"><ele>226.28571428571428</ele><time>2026-04-25T17:21:18Z</time></trkpt><trkpt lat="45.59307729938546" lon="8.60770986043874"><ele>226.71428571428572</ele><time>2026-04-25T17:21:19Z</time></trkpt><trkpt lat="45.593152145205664" lon="8.607702736488017"><ele>227.1428571428571</ele><time>2026-04-25T17:21:20Z</time></trkpt><trkpt lat="45.593231847807665" lon="8.6076969499971"><ele>227.57142857142856</ele><time>2026-04-25T17:21:21Z</time></trkpt><trkpt lat="45.59331344368579" lon="8.6076931458272"><ele>228.0</ele><time>2026-04-25T17:21:22Z</time></trkpt><trkpt lat="45.59339637588483" lon="8.607689390202166"><ele>228.0</ele><time>2026-04-25T17:21:23Z</time></trkpt><trkpt lat="45.5934804888208" lon="8.607686079954728"><ele>228.0</ele><time>2026-04-25T17:21:24Z</time></trkpt><trkpt lat="45.59356298748747" lon="8.607682408861521"><ele>228.0</ele><time>2026-04-25T17:21:24.999Z</time></trkpt><trkpt lat="45.59364801199547" lon="8.607690997162393"><ele>228.0</ele><time>2026-04-25T17:21:25.999Z</time></trkpt><trkpt lat="45.59373165968515" lon="8.607713999002815"><ele>228.0</ele><time>2026-04-25T17:21:26.999Z</time></trkpt><trkpt lat="45.59382334775372" lon="8.607719908858368"><ele>228.0</ele><time>2026-04-25T17:21:27.999Z</time></trkpt><trkpt lat="45.593919371345876" lon="8.607710518972002"><ele>228.16666666666666</ele><time>2026-04-25T17:21:28.999Z</time></trkpt><trkpt lat="45.59401534390088" lon="8.607695003117573"><ele>228.33333333333331</ele><time>2026-04-25T17:21:29.999Z</time></trkpt><trkpt lat="45.59410783057651" lon="8.607681618529494"><ele>228.5</ele><time>2026-04-25T17:21:30.999Z</time></trkpt><trkpt lat="45.59419773768741" lon="8.607673553999136"><ele>228.66666666666666</ele><time>2026-04-25T17:21:31.999Z</time></trkpt><trkpt lat="45.59428520869475" lon="8.607665974435944"><ele>228.83333333333331</ele><time>2026-04-25T17:21:32.999Z</time></trkpt><trkpt lat="45.594361229635325" lon="8.607656854233051"><ele>229.0</ele><time>2026-04-25T17:21:33.999Z</time></trkpt><trkpt lat="45.59442865466701" lon="8.607643316010748"><ele>229.0</ele><time>2026-04-25T17:21:34.999Z</time></trkpt><trkpt lat="45.59449136102174" lon="8.607630877061208"><ele>228.99999999999997</ele><time>2026-04-25T17:21:35.999Z</time></trkpt><trkpt lat="45.594560938614705" lon="8.607570450199237"><ele>228.99999999999997</ele><time>2026-04-25T17:22:40Z</time></trkpt><trkpt lat="45.59470292354935" lon="8.607522485041422"><ele>229.0</ele><time>2026-04-25T17:22:42Z</time></trkpt><trkpt lat="45.594812796674155" lon="8.607479821230116"><ele>229.0</ele><time>2026-04-25T17:22:43Z</time></trkpt><trkpt lat="45.59492131824189" lon="8.607486116578562"><ele>229.16666666666666</ele><time>2026-04-25T17:22:44Z</time></trkpt><trkpt lat="45.594995343293114" lon="8.607428045982575"><ele>229.33333333333331</ele><time>2026-04-25T17:22:45Z</time></trkpt><trkpt lat="45.59508999930403" lon="8.607362234873653"><ele>229.5</ele><time>2026-04-25T17:22:47Z</time></trkpt><trkpt lat="45.59513467082343" lon="8.607457151662665"><ele>229.66666666666669</ele><time>2026-04-25T17:22:49Z</time></trkpt><trkpt lat="45.5951804033843" lon="8.607557942437555"><ele>229.83333333333334</ele><time>2026-04-25T17:22:50Z</time></trkpt><trkpt lat="45.595203908224825" lon="8.60768331160994"><ele>230.0</ele><time>2026-04-25T17:22:51Z</time></trkpt><trkpt lat="45.595251918119" lon="8.607921904977733"><ele>229.33333333333334</ele><time>2026-04-25T17:22:52Z</time></trkpt><trkpt lat="45.595285286104826" lon="8.608174248845987"><ele>228.66666666666669</ele><time>2026-04-25T17:22:53Z</time></trkpt><trkpt lat="45.59530929008656" lon="8.608441064055388"><ele>228.0</ele><time>2026-04-25T17:22:54Z</time></trkpt><trkpt lat="45.59532367769673" lon="8.608659687485902"><ele>228.25</ele><time>2026-04-25T17:22:55Z</time></trkpt><trkpt lat="45.595345737683964" lon="8.608845566976868"><ele>228.5</ele><time>2026-04-25T17:22:56Z</time></trkpt><trkpt lat="45.59536354348359" lon="8.609025928600566"><ele>228.75</ele><time>2026-04-25T17:22:57Z</time></trkpt><trkpt lat="45.59536547434553" lon="8.609203832556348"><ele>229.0</ele><time>2026-04-25T17:22:58Z</time></trkpt><trkpt lat="45.59536002640126" lon="8.609374725198606"><ele>228.6</ele><time>2026-04-25T17:22:59Z</time></trkpt><trkpt lat="45.59536119340756" lon="8.609540721230632"><ele>228.2</ele><time>2026-04-25T17:23:00Z</time></trkpt><trkpt lat="45.59537117823979" lon="8.609694413878788"><ele>227.79999999999998</ele><time>2026-04-25T17:23:01Z</time></trkpt><trkpt lat="45.59537157380841" lon="8.609833234610607"><ele>227.39999999999998</ele><time>2026-04-25T17:23:02Z</time></trkpt><trkpt lat="45.595360550241224" lon="8.609956806995822"><ele>227.0</ele><time>2026-04-25T17:23:03Z</time></trkpt><trkpt lat="45.59534055890731" lon="8.610079924190424"><ele>227.0</ele><time>2026-04-25T17:23:04Z</time></trkpt><trkpt lat="45.5953325115911" lon="8.610178254823806"><ele>227.0</ele><time>2026-04-25T17:23:05Z</time></trkpt><trkpt lat="45.59536512015894" lon="8.610259351030745"><ele>227.0</ele><time>2026-04-25T17:23:06Z</time></trkpt><trkpt lat="45.59544563107417" lon="8.610332216589466"><ele>227.0</ele><time>2026-04-25T17:23:07Z</time></trkpt><trkpt lat="45.595549685997135" lon="8.610347107109451"><ele>227.0</ele><time>2026-04-25T17:23:08Z</time></trkpt><trkpt lat="45.595663629358235" lon="8.610368613045868"><ele>226.6</ele><time>2026-04-25T17:23:09Z</time></trkpt><trkpt lat="45.595765682960995" lon="8.610387029129253"><ele>226.2</ele><time>2026-04-25T17:23:10Z</time></trkpt><trkpt lat="45.595872245015165" lon="8.610404428706293"><ele>225.8</ele><time>2026-04-25T17:23:11Z</time></trkpt><trkpt lat="45.59596237300545" lon="8.61041710172564"><ele>225.4</ele><time>2026-04-25T17:23:12Z</time></trkpt><trkpt lat="45.59604606674117" lon="8.610424537375488"><ele>225.0</ele><time>2026-04-25T17:23:13Z</time></trkpt><trkpt lat="45.596129886966615" lon="8.610404269937876"><ele>225.8</ele><time>2026-04-25T17:23:14Z</time></trkpt><trkpt lat="45.59619655679982" lon="8.610367807709096"><ele>226.6</ele><time>2026-04-25T17:23:15Z</time></trkpt><trkpt lat="45.596299405708365" lon="8.610343870470878"><ele>227.39999999999998</ele><time>2026-04-25T17:23:17Z</time></trkpt><trkpt lat="45.59635290062456" lon="8.610466137758127"><ele>228.2</ele><time>2026-04-25T17:23:19Z</time></trkpt><trkpt lat="45.59639221691739" lon="8.610560306925759"><ele>229.0</ele><time>2026-04-25T17:23:20Z</time></trkpt><trkpt lat="45.596436604873915" lon="8.61071054246991"><ele>229.0</ele><time>2026-04-25T17:23:21Z</time></trkpt><trkpt lat="45.596473991337916" lon="8.61086157153367"><ele>229.0</ele><time>2026-04-25T17:23:22Z</time></trkpt><trkpt lat="45.59654221529069" lon="8.61100642938833"><ele>229.0</ele><time>2026-04-25T17:23:23Z</time></trkpt><trkpt lat="45.59660759598634" lon="8.611158453726667"><ele>229.0</ele><time>2026-04-25T17:23:24Z</time></trkpt><trkpt lat="45.59667724561684" lon="8.611317858621529"><ele>229.0</ele><time>2026-04-25T17:23:25Z</time></trkpt><trkpt lat="45.59673002580827" lon="8.611507183946712"><ele>229.0</ele><time>2026-04-25T17:23:26Z</time></trkpt><trkpt lat="45.59677786210049" lon="8.61167143395773"><ele>229.0</ele><time>2026-04-25T17:23:27Z</time></trkpt><trkpt lat="45.59682106281283" lon="8.611822376122664"><ele>229.0</ele><time>2026-04-25T17:23:28Z</time></trkpt><trkpt lat="45.59684818115856" lon="8.611980299413197"><ele>228.79999999999998</ele><time>2026-04-25T17:23:29Z</time></trkpt><trkpt lat="45.59689342134537" lon="8.612134382667112"><ele>228.59999999999997</ele><time>2026-04-25T17:23:30Z</time></trkpt><trkpt lat="45.59695612016632" lon="8.612259461819358"><ele>228.4</ele><time>2026-04-25T17:23:30.999Z</time></trkpt><trkpt lat="45.59701641905151" lon="8.61238243541048"><ele>228.2</ele><time>2026-04-25T17:23:31.999Z</time></trkpt><trkpt lat="45.59706340919879" lon="8.612501069451188"><ele>228.0</ele><time>2026-04-25T17:23:32.999Z</time></trkpt><trkpt lat="45.59711185602125" lon="8.612595249266551"><ele>228.33333333333334</ele><time>2026-04-25T17:23:33.999Z</time></trkpt><trkpt lat="45.597156685960805" lon="8.612685968877212"><ele>228.66666666666669</ele><time>2026-04-25T17:23:34.999Z</time></trkpt><trkpt lat="45.59719282870628" lon="8.612792006286092"><ele>229.0</ele><time>2026-04-25T17:23:35.999Z</time></trkpt><trkpt lat="45.597223389667626" lon="8.61289453380818"><ele>229.33333333333334</ele><time>2026-04-25T17:23:36.999Z</time></trkpt><trkpt lat="45.59722719763528" lon="8.61298570407054"><ele>229.66666666666669</ele><time>2026-04-25T17:23:37.999Z</time></trkpt><trkpt lat="45.59725356052558" lon="8.61315208438155"><ele>230.0</ele><time>2026-04-25T17:23:39.999Z</time></trkpt><trkpt lat="45.59718750440439" lon="8.613286118489356"><ele>229.4</ele><time>2026-04-25T17:23:40.999Z</time></trkpt><trkpt lat="45.59715165385428" lon="8.613423827792555"><ele>228.8</ele><time>2026-04-25T17:23:41.999Z</time></trkpt><trkpt lat="45.597113353912896" lon="8.61358797003226"><ele>228.2</ele><time>2026-04-25T17:23:42.999Z</time></trkpt><trkpt lat="45.59707129891356" lon="8.613750167994636"><ele>227.6</ele><time>2026-04-25T17:23:43.999Z</time></trkpt><trkpt lat="45.5970325785415" lon="8.613883771279202"><ele>227.0</ele><time>2026-04-25T17:23:44.999Z</time></trkpt><trkpt lat="45.597018868803275" lon="8.614018793890768"><ele>227.0</ele><time>2026-04-25T17:23:45.999Z</time></trkpt><trkpt lat="45.59705057961695" lon="8.614172943381687"><ele>227.0</ele><time>2026-04-25T17:23:46.999Z</time></trkpt><trkpt lat="45.597106802024506" lon="8.614327407580104"><ele>227.0</ele><time>2026-04-25T17:23:47.999Z</time></trkpt><trkpt lat="45.59715912355258" lon="8.614486305247894"><ele>227.0</ele><time>2026-04-25T17:23:48.999Z</time></trkpt><trkpt lat="45.597206243274385" lon="8.614652835997132"><ele>227.0</ele><time>2026-04-25T17:23:49.999Z</time></trkpt><trkpt lat="45.59725336077974" lon="8.614819417892882"><ele>227.0</ele><time>2026-04-25T17:23:50.999Z</time></trkpt><trkpt lat="45.59730457832774" lon="8.614981096296216"><ele>227.0</ele><time>2026-04-25T17:23:51.999Z</time></trkpt><trkpt lat="45.597356569141596" lon="8.615142290570722"><ele>227.0</ele><time>2026-04-25T17:23:52.999Z</time></trkpt><trkpt lat="45.597410179762896" lon="8.615302268999182"><ele>227.0</ele><time>2026-04-25T17:23:53.999Z</time></trkpt><trkpt lat="45.59746522842513" lon="8.615467999251269"><ele>227.0</ele><time>2026-04-25T17:23:54.999Z</time></trkpt><trkpt lat="45.597519287034714" lon="8.615633214173844"><ele>227.0</ele><time>2026-04-25T17:23:55.999Z</time></trkpt><trkpt lat="45.5975755928251" lon="8.615800935852757"><ele>227.0</ele><time>2026-04-25T17:23:56.999Z</time></trkpt><trkpt lat="45.597634344650864" lon="8.61597423588047"><ele>227.0</ele><time>2026-04-25T17:23:57.999Z</time></trkpt><trkpt lat="45.59769127370016" lon="8.616150007995305"><ele>227.0</ele><time>2026-04-25T17:23:58.999Z</time></trkpt><trkpt lat="45.597750052832474" lon="8.616326304437894"><ele>227.0</ele><time>2026-04-25T17:23:59.999Z</time></trkpt><trkpt lat="45.59781908893834" lon="8.616498558474923"><ele>227.0</ele><time>2026-04-25T17:24:00.999Z</time></trkpt><trkpt lat="45.59786525260504" lon="8.616694195374288"><ele>227.0</ele><time>2026-04-25T17:24:01.999Z</time></trkpt><trkpt lat="45.597931846819876" lon="8.616875929261079"><ele>227.0</ele><time>2026-04-25T17:24:02.999Z</time></trkpt><trkpt lat="45.597973450885" lon="8.61707281507606"><ele>227.0</ele><time>2026-04-25T17:24:03.999Z</time></trkpt><trkpt lat="45.59801335560992" lon="8.617272161070465"><ele>227.0</ele><time>2026-04-25T17:24:04.999Z</time></trkpt><trkpt lat="45.59805309349533" lon="8.617476304007361"><ele>227.0</ele><time>2026-04-25T17:24:05.999Z</time></trkpt><trkpt lat="45.59809134040336" lon="8.617674124407035"><ele>227.0</ele><time>2026-04-25T17:24:06.999Z</time></trkpt><trkpt lat="45.59812953697416" lon="8.617867480690945"><ele>227.0</ele><time>2026-04-25T17:24:07.999Z</time></trkpt><trkpt lat="45.59817241520705" lon="8.618088991248818"><ele>227.0</ele><time>2026-04-25T17:24:08.999Z</time></trkpt><trkpt lat="45.59822491000622" lon="8.618310539150093"><ele>227.0</ele><time>2026-04-25T17:24:09.999Z</time></trkpt><trkpt lat="45.59827100659443" lon="8.618529274825455"><ele>227.0</ele><time>2026-04-25T17:24:10.998Z</time></trkpt><trkpt lat="45.59831550298538" lon="8.618747188018558"><ele>227.0</ele><time>2026-04-25T17:24:11.998Z</time></trkpt><trkpt lat="45.598358745398336" lon="8.618957157914991"><ele>227.0</ele><time>2026-04-25T17:24:12.998Z</time></trkpt><trkpt lat="45.59839598703037" lon="8.619158373802504"><ele>227.0</ele><time>2026-04-25T17:24:13.998Z</time></trkpt><trkpt lat="45.59844081428457" lon="8.61936209184068"><ele>227.0</ele><time>2026-04-25T17:24:14.998Z</time></trkpt><trkpt lat="45.59848417253038" lon="8.619550569578857"><ele>227.0</ele><time>2026-04-25T17:24:15.998Z</time></trkpt><trkpt lat="45.59852200399739" lon="8.619746794351823"><ele>227.0</ele><time>2026-04-25T17:24:16.998Z</time></trkpt><trkpt lat="45.5985574444654" lon="8.619936375173292"><ele>227.0</ele><time>2026-04-25T17:24:17.998Z</time></trkpt><trkpt lat="45.59859740244419" lon="8.620128685192537"><ele>227.0</ele><time>2026-04-25T17:24:18.998Z</time></trkpt><trkpt lat="45.59864079277665" lon="8.620320790088394"><ele>227.0</ele><time>2026-04-25T17:24:19.998Z</time></trkpt><trkpt lat="45.59866851128096" lon="8.620519747943858"><ele>227.0</ele><time>2026-04-25T17:24:20.998Z</time></trkpt><trkpt lat="45.59871092146414" lon="8.620720468126851"><ele>227.0</ele><time>2026-04-25T17:24:21.998Z</time></trkpt><trkpt lat="45.59876948725112" lon="8.620922505215809"><ele>227.0</ele><time>2026-04-25T17:24:22.998Z</time></trkpt><trkpt lat="45.59879858655875" lon="8.62113023543905"><ele>227.0</ele><time>2026-04-25T17:24:23.998Z</time></trkpt><trkpt lat="45.59884218370188" lon="8.621344307456297"><ele>228.0</ele><time>2026-04-25T17:24:24.998Z</time></trkpt><trkpt lat="45.59890236894935" lon="8.621563839592529"><ele>229.0</ele><time>2026-04-25T17:24:25.998Z</time></trkpt><trkpt lat="45.5989469492603" lon="8.621788959242412"><ele>230.0</ele><time>2026-04-25T17:24:26.998Z</time></trkpt><trkpt lat="45.59899044703674" lon="8.622006148163166"><ele>230.0</ele><time>2026-04-25T17:24:27.998Z</time></trkpt><trkpt lat="45.599034036866385" lon="8.622222595818833"><ele>230.0</ele><time>2026-04-25T17:24:28.998Z</time></trkpt><trkpt lat="45.59908448186724" lon="8.622439175142711"><ele>230.0</ele><time>2026-04-25T17:24:29.998Z</time></trkpt><trkpt lat="45.59913260777799" lon="8.622648389999107"><ele>229.75</ele><time>2026-04-25T17:24:30.998Z</time></trkpt><trkpt lat="45.59916138964287" lon="8.62285090450475"><ele>229.5</ele><time>2026-04-25T17:24:31.998Z</time></trkpt><trkpt lat="45.599202976800846" lon="8.623029219582646"><ele>229.25</ele><time>2026-04-25T17:24:32.998Z</time></trkpt><trkpt lat="45.59924471981512" lon="8.623202055719537"><ele>229.0</ele><time>2026-04-25T17:24:33.998Z</time></trkpt><trkpt lat="45.599301191571826" lon="8.623369782916985"><ele>229.0</ele><time>2026-04-25T17:24:34.998Z</time></trkpt><trkpt lat="45.59933831367343" lon="8.62354426219263"><ele>229.0</ele><time>2026-04-25T17:24:35.998Z</time></trkpt><trkpt lat="45.59938051251981" lon="8.623719708191723"><ele>229.0</ele><time>2026-04-25T17:24:36.998Z</time></trkpt><trkpt lat="45.59942338308824" lon="8.62388569902067"><ele>229.0</ele><time>2026-04-25T17:24:37.998Z</time></trkpt><trkpt lat="45.59946339899487" lon="8.624036673363861"><ele>228.99999999999997</ele><time>2026-04-25T17:24:38.998Z</time></trkpt><trkpt lat="45.59949941704016" lon="8.62417294820938"><ele>229.0</ele><time>2026-04-25T17:24:39.998Z</time></trkpt><trkpt lat="45.59953544919895" lon="8.624291417189587"><ele>229.0</ele><time>2026-04-25T17:24:40.998Z</time></trkpt><trkpt lat="45.59956491456865" lon="8.624400605210154"><ele>229.0</ele><time>2026-04-25T17:24:41.998Z</time></trkpt><trkpt lat="45.59957949498897" lon="8.624500159379906"><ele>228.99999999999997</ele><time>2026-04-25T17:24:42.998Z</time></trkpt><trkpt lat="45.59957407767342" lon="8.624604521056597"><ele>229.0</ele><time>2026-04-25T17:24:43.998Z</time></trkpt><trkpt lat="45.59955889903053" lon="8.624735524338476"><ele>229.79999999999998</ele><time>2026-04-25T17:24:46Z</time></trkpt><trkpt lat="45.599438620480186" lon="8.624773698982102"><ele>230.59999999999997</ele><time>2026-04-25T17:24:47Z</time></trkpt><trkpt lat="45.59936856899829" lon="8.624816641126149"><ele>231.4</ele><time>2026-04-25T17:24:48Z</time></trkpt><trkpt lat="45.59929086147758" lon="8.624850612590501"><ele>232.2</ele><time>2026-04-25T17:24:49Z</time></trkpt><trkpt lat="45.59918558277016" lon="8.624897895161093"><ele>233.0</ele><time>2026-04-25T17:24:50Z</time></trkpt><trkpt lat="45.599079317984405" lon="8.624947078189843"><ele>233.0</ele><time>2026-04-25T17:24:51Z</time></trkpt><trkpt lat="45.598967141243584" lon="8.62499580049838"><ele>233.0</ele><time>2026-04-25T17:24:52Z</time></trkpt><trkpt lat="45.59886289406663" lon="8.625040088509547"><ele>233.0</ele><time>2026-04-25T17:24:53Z</time></trkpt><trkpt lat="45.598775509625824" lon="8.625074835207133"><ele>233.0</ele><time>2026-04-25T17:24:54Z</time></trkpt><trkpt lat="45.598701131199775" lon="8.625106647309867"><ele>233.0</ele><time>2026-04-25T17:24:55Z</time></trkpt><trkpt lat="45.59864165476858" lon="8.625140458577055"><ele>233.0</ele><time>2026-04-25T17:24:56Z</time></trkpt><trkpt lat="45.59858192489491" lon="8.625195029881084"><ele>233.0</ele><time>2026-04-25T17:24:58Z</time></trkpt><trkpt lat="45.59864869112058" lon="8.625442968972482"><ele>233.0</ele><time>2026-04-25T17:24:59Z</time></trkpt><trkpt lat="45.59867817345043" lon="8.625586078764764"><ele>233.0</ele><time>2026-04-25T17:25:00Z</time></trkpt><trkpt lat="45.5986971000507" lon="8.62573455878326"><ele>233.0</ele><time>2026-04-25T17:25:01Z</time></trkpt><trkpt lat="45.598718329037915" lon="8.6258949189602"><ele>233.0</ele><time>2026-04-25T17:25:02Z</time></trkpt><trkpt lat="45.59873974698334" lon="8.626057915804902"><ele>233.0</ele><time>2026-04-25T17:25:03Z</time></trkpt><trkpt lat="45.59876683324148" lon="8.626224190755579"><ele>233.0</ele><time>2026-04-25T17:25:04Z</time></trkpt><trkpt lat="45.59879810197002" lon="8.626395630530194"><ele>233.0</ele><time>2026-04-25T17:25:05Z</time></trkpt><trkpt lat="45.598829951342296" lon="8.626568792508643"><ele>233.0</ele><time>2026-04-25T17:25:06Z</time></trkpt><trkpt lat="45.5988391319712" lon="8.626716567205662"><ele>233.0</ele><time>2026-04-25T17:25:07Z</time></trkpt><trkpt lat="45.59885580320354" lon="8.62684897644538"><ele>233.0</ele><time>2026-04-25T17:25:08Z</time></trkpt><trkpt lat="45.59890034007502" lon="8.626951947227694"><ele>233.0</ele><time>2026-04-25T17:25:09Z</time></trkpt><trkpt lat="45.598981107748855" lon="8.627015756462441"><ele>233.0</ele><time>2026-04-25T17:25:10Z</time></trkpt><trkpt lat="45.599084305782604" lon="8.627012353883819"><ele>233.0</ele><time>2026-04-25T17:25:11Z</time></trkpt><trkpt lat="45.59919033097537" lon="8.62697026681236"><ele>233.0</ele><time>2026-04-25T17:25:12Z</time></trkpt><trkpt lat="45.59930508068048" lon="8.626941806357488"><ele>233.0</ele><time>2026-04-25T17:25:13Z</time></trkpt><trkpt lat="45.59940519745155" lon="8.626899047382482"><ele>233.0</ele><time>2026-04-25T17:25:14Z</time></trkpt><trkpt lat="45.59948532656766" lon="8.626870685675273"><ele>233.0</ele><time>2026-04-25T17:25:15Z</time></trkpt><trkpt lat="45.599556676802166" lon="8.626839776167968"><ele>233.0</ele><time>2026-04-25T17:25:16Z</time></trkpt><trkpt lat="45.59963130300169" lon="8.626843410848196"><ele>233.0</ele><time>2026-04-25T17:25:17Z</time></trkpt><trkpt lat="45.59970663500248" lon="8.627126476106303"><ele>233.0</ele><time>2026-04-25T17:25:19Z</time></trkpt><trkpt lat="45.59974614663337" lon="8.62726461281639"><ele>233.2</ele><time>2026-04-25T17:25:20Z</time></trkpt><trkpt lat="45.59977594754754" lon="8.627406980518606"><ele>233.4</ele><time>2026-04-25T17:25:21Z</time></trkpt><trkpt lat="45.59981091082081" lon="8.627553404632746"><ele>233.59999999999997</ele><time>2026-04-25T17:25:22Z</time></trkpt><trkpt lat="45.59984293550565" lon="8.627705789215137"><ele>233.79999999999998</ele><time>2026-04-25T17:25:23Z</time></trkpt><trkpt lat="45.59986892815971" lon="8.62786229603403"><ele>234.0</ele><time>2026-04-25T17:25:24Z</time></trkpt><trkpt lat="45.59989152297072" lon="8.628018018652298"><ele>234.5</ele><time>2026-04-25T17:25:25Z</time></trkpt><trkpt lat="45.599883289149815" lon="8.628183415493105"><ele>235.0</ele><time>2026-04-25T17:25:26Z</time></trkpt><trkpt lat="45.59989010819735" lon="8.628360545935166"><ele>235.5</ele><time>2026-04-25T17:25:27Z</time></trkpt><trkpt lat="45.59986401116666" lon="8.628539822058983"><ele>236.0</ele><time>2026-04-25T17:25:28Z</time></trkpt><trkpt lat="45.599841487936104" lon="8.62872003166164"><ele>236.25</ele><time>2026-04-25T17:25:29Z</time></trkpt><trkpt lat="45.59981898846402" lon="8.62889918973797"><ele>236.5</ele><time>2026-04-25T17:25:30Z</time></trkpt><trkpt lat="45.59979721352582" lon="8.629081641918196"><ele>236.75</ele><time>2026-04-25T17:25:31Z</time></trkpt><trkpt lat="45.59977021577654" lon="8.629265522521882"><ele>237.0</ele><time>2026-04-25T17:25:32Z</time></trkpt><trkpt lat="45.59974935034903" lon="8.629452364207664"><ele>237.0</ele><time>2026-04-25T17:25:33Z</time></trkpt><trkpt lat="45.59973577259574" lon="8.629637435182673"><ele>237.0</ele><time>2026-04-25T17:25:33.999Z</time></trkpt><trkpt lat="45.59972409905775" lon="8.629815104894014"><ele>237.0</ele><time>2026-04-25T17:25:34.999Z</time></trkpt><trkpt lat="45.59968996126911" lon="8.62996279393445"><ele>237.0</ele><time>2026-04-25T17:25:35.999Z</time></trkpt><trkpt lat="45.599672992408514" lon="8.630102306177461"><ele>237.0</ele><time>2026-04-25T17:25:36.999Z</time></trkpt><trkpt lat="45.599657813954146" lon="8.63022709830993"><ele>237.0</ele><time>2026-04-25T17:25:37.999Z</time></trkpt><trkpt lat="45.599643411402056" lon="8.63034551122461"><ele>237.0</ele><time>2026-04-25T17:25:38.999Z</time></trkpt><trkpt lat="45.59963130305152" lon="8.630445061996541"><ele>237.0</ele><time>2026-04-25T17:25:39.999Z</time></trkpt><trkpt lat="45.599617895370876" lon="8.630555295423664"><ele>237.0</ele><time>2026-04-25T17:25:40.999Z</time></trkpt><trkpt lat="45.59961512767285" lon="8.630691880662717"><ele>237.0</ele><time>2026-04-25T17:25:41.999Z</time></trkpt><trkpt lat="45.59959780147303" lon="8.630807284175862"><ele>237.0</ele><time>2026-04-25T17:25:42.999Z</time></trkpt><trkpt lat="45.599579481599704" lon="8.630930611857085"><ele>237.0</ele><time>2026-04-25T17:25:43.999Z</time></trkpt><trkpt lat="45.59956374481147" lon="8.631052648898788"><ele>237.0</ele><time>2026-04-25T17:25:44.999Z</time></trkpt><trkpt lat="45.599546559345654" lon="8.631179809766609"><ele>237.0</ele><time>2026-04-25T17:25:45.999Z</time></trkpt><trkpt lat="45.59953401564236" lon="8.63130901681701"><ele>237.0</ele><time>2026-04-25T17:25:46.999Z</time></trkpt><trkpt lat="45.599518761650444" lon="8.63144469965571"><ele>237.0</ele><time>2026-04-25T17:25:47.999Z</time></trkpt><trkpt lat="45.59950332482757" lon="8.631582008015142"><ele>237.0</ele><time>2026-04-25T17:25:48.999Z</time></trkpt><trkpt lat="45.59948466317369" lon="8.631719941659586"><ele>237.0</ele><time>2026-04-25T17:25:49.999Z</time></trkpt><trkpt lat="45.59947931408877" lon="8.631862559509832"><ele>237.0</ele><time>2026-04-25T17:25:50.999Z</time></trkpt><trkpt lat="45.59947415813111" lon="8.63200127345709"><ele>237.0</ele><time>2026-04-25T17:25:51.999Z</time></trkpt><trkpt lat="45.599484593307594" lon="8.632134897065491"><ele>237.0</ele><time>2026-04-25T17:25:52.999Z</time></trkpt><trkpt lat="45.599494623985244" lon="8.632271308322673"><ele>237.0</ele><time>2026-04-25T17:25:53.999Z</time></trkpt><trkpt lat="45.5995051789168" lon="8.632423536878497"><ele>237.0</ele><time>2026-04-25T17:25:54.999Z</time></trkpt><trkpt lat="45.59951316640878" lon="8.632581141177882"><ele>237.0</ele><time>2026-04-25T17:25:55.999Z</time></trkpt><trkpt lat="45.59952258425692" lon="8.632723844196587"><ele>237.0</ele><time>2026-04-25T17:25:56.999Z</time></trkpt><trkpt lat="45.59952835546082" lon="8.632845908138078"><ele>237.0</ele><time>2026-04-25T17:25:57.999Z</time></trkpt><trkpt lat="45.59953301199701" lon="8.63297298227637"><ele>237.0</ele><time>2026-04-25T17:25:58.999Z</time></trkpt><trkpt lat="45.59951870603225" lon="8.633114207820244"><ele>237.0</ele><time>2026-04-25T17:25:59.999Z</time></trkpt><trkpt lat="45.599464452259696" lon="8.633279434106639"><ele>237.0</ele><time>2026-04-25T17:26:01.999Z</time></trkpt><trkpt lat="45.5993898476507" lon="8.633313279461438"><ele>237.0</ele><time>2026-04-25T17:26:02.999Z</time></trkpt><trkpt lat="45.59929708502808" lon="8.633326488186382"><ele>237.0</ele><time>2026-04-25T17:26:03.999Z</time></trkpt><trkpt lat="45.5991922692712" lon="8.633354002548442"><ele>237.0</ele><time>2026-04-25T17:26:04.999Z</time></trkpt><trkpt lat="45.599087630297355" lon="8.633390071380393"><ele>237.0</ele><time>2026-04-25T17:26:05.999Z</time></trkpt><trkpt lat="45.598989341154855" lon="8.63341549096383"><ele>237.0</ele><time>2026-04-25T17:26:06.999Z</time></trkpt><trkpt lat="45.59888854387397" lon="8.633439195224803"><ele>237.0</ele><time>2026-04-25T17:26:07.999Z</time></trkpt><trkpt lat="45.59879604998718" lon="8.633462571602404"><ele>237.0</ele><time>2026-04-25T17:26:08.999Z</time></trkpt><trkpt lat="45.59871544195032" lon="8.633481618692917"><ele>237.0</ele><time>2026-04-25T17:26:09.999Z</time></trkpt><trkpt lat="45.598644100992686" lon="8.633497065718492"><ele>237.0</ele><time>2026-04-25T17:26:10.999Z</time></trkpt><trkpt lat="45.59853801189819" lon="8.633521563035387"><ele>237.0</ele><time>2026-04-25T17:26:12.999Z</time></trkpt><trkpt lat="45.598467131031576" lon="8.633560822395749"><ele>237.0</ele><time>2026-04-25T17:26:15.998Z</time></trkpt><trkpt lat="45.59849030580423" lon="8.633682802280328"><ele>237.0</ele><time>2026-04-25T17:26:17.998Z</time></trkpt><trkpt lat="45.59855201629416" lon="8.633734253907916"><ele>237.0</ele><time>2026-04-25T17:26:18.998Z</time></trkpt><trkpt lat="45.5985922472806" lon="8.633820272701845"><ele>237.0</ele><time>2026-04-25T17:26:19.998Z</time></trkpt><trkpt lat="45.598647688519776" lon="8.633903873633235"><ele>237.0</ele><time>2026-04-25T17:26:20.998Z</time></trkpt><trkpt lat="45.598705575131085" lon="8.633990507271495"><ele>237.0</ele><time>2026-04-25T17:26:21.998Z</time></trkpt><trkpt lat="45.598775967092216" lon="8.63407745684136"><ele>237.0</ele><time>2026-04-25T17:26:22.998Z</time></trkpt><trkpt lat="45.59884669981231" lon="8.634187276376572"><ele>237.0</ele><time>2026-04-25T17:26:23.998Z</time></trkpt><trkpt lat="45.59892055738541" lon="8.634300054066536"><ele>237.0</ele><time>2026-04-25T17:26:24.998Z</time></trkpt><trkpt lat="45.598995475256004" lon="8.634413400183252"><ele>237.0</ele><time>2026-04-25T17:26:25.998Z</time></trkpt><trkpt lat="45.59906955723903" lon="8.634523330748442"><ele>237.0</ele><time>2026-04-25T17:26:26.998Z</time></trkpt><trkpt lat="45.59913920625708" lon="8.634625702704609"><ele>237.0</ele><time>2026-04-25T17:26:27.998Z</time></trkpt><trkpt lat="45.59920609091814" lon="8.634716731450421"><ele>237.0</ele><time>2026-04-25T17:26:28.998Z</time></trkpt><trkpt lat="45.5992688106251" lon="8.634809512708445"><ele>237.0</ele><time>2026-04-25T17:26:29.998Z</time></trkpt><trkpt lat="45.59932501426546" lon="8.634902009717123"><ele>237.0</ele><time>2026-04-25T17:26:30.998Z</time></trkpt><trkpt lat="45.59937129764257" lon="8.634985492270872"><ele>237.0</ele><time>2026-04-25T17:26:31.998Z</time></trkpt><trkpt lat="45.59941133829536" lon="8.635060723544138"><ele>237.0</ele><time>2026-04-25T17:26:32.998Z</time></trkpt><trkpt lat="45.599459083928565" lon="8.635198081626106"><ele>237.0</ele><time>2026-04-25T17:26:34.998Z</time></trkpt><trkpt lat="45.59934370858865" lon="8.635318493396706"><ele>237.8</ele><time>2026-04-25T17:26:36.998Z</time></trkpt><trkpt lat="45.59926445660639" lon="8.635343739739932"><ele>238.6</ele><time>2026-04-25T17:26:37.998Z</time></trkpt><trkpt lat="45.5991830406852" lon="8.635404260043762"><ele>239.40000000000003</ele><time>2026-04-25T17:26:38.998Z</time></trkpt><trkpt lat="45.59908988461247" lon="8.63545729939718"><ele>240.20000000000002</ele><time>2026-04-25T17:26:39.998Z</time></trkpt><trkpt lat="45.599000684534715" lon="8.635516128170032"><ele>241.0</ele><time>2026-04-25T17:26:40.998Z</time></trkpt><trkpt lat="45.598904897347325" lon="8.635564588511931"><ele>240.99999999999997</ele><time>2026-04-25T17:26:41.998Z</time></trkpt><trkpt lat="45.598822202900365" lon="8.635598600109738"><ele>241.0</ele><time>2026-04-25T17:26:42.998Z</time></trkpt><trkpt lat="45.59873960710661" lon="8.635633575991966"><ele>241.0</ele><time>2026-04-25T17:26:43.998Z</time></trkpt><trkpt lat="45.59865716230753" lon="8.63564232234898"><ele>241.0</ele><time>2026-04-25T17:26:44.998Z</time></trkpt><trkpt lat="45.59859414817035" lon="8.635681393429037"><ele>240.99999999999997</ele><time>2026-04-25T17:26:45.998Z</time></trkpt><trkpt lat="45.5985263457987" lon="8.635714988561713"><ele>241.0</ele><time>2026-04-25T17:26:46.998Z</time></trkpt><trkpt lat="45.59845259307449" lon="8.635705385984162"><ele>241.0</ele><time>2026-04-25T17:26:47.998Z</time></trkpt><trkpt lat="45.59833733853051" lon="8.635688306522841"><ele>241.0</ele><time>2026-04-25T17:26:49.998Z</time></trkpt><trkpt lat="45.59831266508575" lon="8.63594263985528"><ele>241.0</ele><time>2026-04-25T17:26:52Z</time></trkpt><trkpt lat="45.59828426898529" lon="8.635784156502455"><ele>241.0</ele><time>2026-04-25T17:26:53Z</time></trkpt><trkpt lat="45.5983126326553" lon="8.635942175897776"><ele>241.0</ele><time>2026-04-25T17:26:55Z</time></trkpt><trkpt lat="45.598320425177484" lon="8.636053660914333"><ele>241.00000000000003</ele><time>2026-04-25T17:26:56Z</time></trkpt><trkpt lat="45.59832908725447" lon="8.636177586297665"><ele>241.00000000000003</ele><time>2026-04-25T17:26:57Z</time></trkpt><trkpt lat="45.5983431743034" lon="8.63633352289985"><ele>241.0</ele><time>2026-04-25T17:26:58Z</time></trkpt><trkpt lat="45.59835668765237" lon="8.636479078917843"><ele>241.0</ele><time>2026-04-25T17:26:59Z</time></trkpt><trkpt lat="45.59837058663913" lon="8.636615531755492"><ele>241.33333333333331</ele><time>2026-04-25T17:27:00Z</time></trkpt><trkpt lat="45.59838163327939" lon="8.636723613769817"><ele>241.66666666666666</ele><time>2026-04-25T17:27:01Z</time></trkpt><trkpt lat="45.598391815102914" lon="8.636823234283948"><ele>242.0</ele><time>2026-04-25T17:27:02Z</time></trkpt><trkpt lat="45.59840324985267" lon="8.636930301668334"><ele>242.33333333333331</ele><time>2026-04-25T17:27:04Z</time></trkpt><trkpt lat="45.59841923763587" lon="8.637046102572183"><ele>242.66666666666666</ele><time>2026-04-25T17:27:06Z</time></trkpt><trkpt lat="45.59844666517748" lon="8.63715297402125"><ele>243.0</ele><time>2026-04-25T17:27:07Z</time></trkpt><trkpt lat="45.598463345286795" lon="8.637262104753809"><ele>243.0</ele><time>2026-04-25T17:27:08Z</time></trkpt><trkpt lat="45.59845718806536" lon="8.637356317044642"><ele>243.0</ele><time>2026-04-25T17:27:09Z</time></trkpt><trkpt lat="45.59846275855819" lon="8.637498277875865"><ele>243.0</ele><time>2026-04-25T17:27:11Z</time></trkpt><trkpt lat="45.59833555256182" lon="8.63758440955819"><ele>243.0</ele><time>2026-04-25T17:27:15Z</time></trkpt><trkpt lat="45.598269639259826" lon="8.637613614842257"><ele>243.0</ele><time>2026-04-25T17:27:17Z</time></trkpt><trkpt lat="45.59817796097209" lon="8.63765564512126"><ele>243.0</ele><time>2026-04-25T17:27:19Z</time></trkpt><trkpt lat="45.59808983477819" lon="8.637679627801132"><ele>243.0</ele><time>2026-04-25T17:27:20Z</time></trkpt><trkpt lat="45.59799708554602" lon="8.637704868598222"><ele>243.0</ele><time>2026-04-25T17:27:21Z</time></trkpt><trkpt lat="45.59788906125065" lon="8.637735955435394"><ele>243.0</ele><time>2026-04-25T17:27:22Z</time></trkpt><trkpt lat="45.597765393812125" lon="8.637772267279772"><ele>243.0</ele><time>2026-04-25T17:27:23Z</time></trkpt><trkpt lat="45.59763206061872" lon="8.63780922127979"><ele>242.75</ele><time>2026-04-25T17:27:24Z</time></trkpt><trkpt lat="45.59750865138702" lon="8.637830119304377"><ele>242.5</ele><time>2026-04-25T17:27:25Z</time></trkpt><trkpt lat="45.59737314344813" lon="8.637864618708644"><ele>242.25</ele><time>2026-04-25T17:27:26Z</time></trkpt><trkpt lat="45.59727297946071" lon="8.637891397457471"><ele>242.0</ele><time>2026-04-25T17:27:27Z</time></trkpt><trkpt lat="45.59717000710959" lon="8.63792301962649"><ele>242.00000000000003</ele><time>2026-04-25T17:27:28Z</time></trkpt><trkpt lat="45.59709806031462" lon="8.637948760011488"><ele>242.0</ele><time>2026-04-25T17:27:29Z</time></trkpt><trkpt lat="45.597016852585156" lon="8.637987292056183"><ele>242.0</ele><time>2026-04-25T17:27:30Z</time></trkpt><trkpt lat="45.59694476201811" lon="8.638009686972989"><ele>242.0</ele><time>2026-04-25T17:27:31Z</time></trkpt><trkpt lat="45.59686902535702" lon="8.63800586256951"><ele>242.00000000000003</ele><time>2026-04-25T17:27:32Z</time></trkpt><trkpt lat="45.596790018998774" lon="8.63803799350856"><ele>242.0</ele><time>2026-04-25T17:27:33Z</time></trkpt><trkpt lat="45.59671656560356" lon="8.638078691491009"><ele>241.5</ele><time>2026-04-25T17:27:34Z</time></trkpt><trkpt lat="45.59662870996709" lon="8.638126393596117"><ele>241.0</ele><time>2026-04-25T17:27:37.999Z</time></trkpt><trkpt lat="45.59677340789434" lon="8.63828056450827"><ele>240.5</ele><time>2026-04-25T17:27:39.999Z</time></trkpt><trkpt lat="45.59680672545307" lon="8.638431017823523"><ele>240.0</ele><time>2026-04-25T17:27:40.999Z</time></trkpt><trkpt lat="45.59689765693667" lon="8.63856956621786"><ele>240.4</ele><time>2026-04-25T17:27:44.999Z</time></trkpt><trkpt lat="45.59704191852171" lon="8.638514355455623"><ele>240.8</ele><time>2026-04-25T17:27:45.999Z</time></trkpt><trkpt lat="45.59713547437537" lon="8.638516539825103"><ele>241.2</ele><time>2026-04-25T17:27:46.999Z</time></trkpt><trkpt lat="45.597217933385444" lon="8.638487370239892"><ele>241.6</ele><time>2026-04-25T17:28:38.998Z</time></trkpt><trkpt lat="45.59724035494054" lon="8.638390647524858"><ele>242.0</ele><time>2026-04-25T17:28:48.998Z</time></trkpt><trkpt lat="45.59729827764504" lon="8.638351064878876"><ele>242.0</ele><time>2026-04-25T18:15:06Z</time></trkpt><trkpt lat="45.59727276618388" lon="8.63845027574149"><ele>241.99999999999997</ele><time>2026-04-25T18:15:14Z</time></trkpt><trkpt lat="45.59719658187829" lon="8.638495094304398"><ele>242.0</ele><time>2026-04-25T18:15:16Z</time></trkpt><trkpt lat="45.5971292007558" lon="8.638487669769114"><ele>242.0</ele><time>2026-04-25T18:15:28Z</time></trkpt><trkpt lat="45.59706357641967" lon="8.638487474659645"><ele>241.99999999999997</ele><time>2026-04-25T18:15:33Z</time></trkpt><trkpt lat="45.596996949932" lon="8.638515011538761"><ele>242.0</ele><time>2026-04-25T18:15:39Z</time></trkpt><trkpt lat="45.5969309119988" lon="8.638557251214948"><ele>242.0</ele><time>2026-04-25T18:15:44Z</time></trkpt><trkpt lat="45.596940795743706" lon="8.638650533589121"><ele>242.0</ele><time>2026-04-25T18:15:48Z</time></trkpt><trkpt lat="45.59687737468914" lon="8.638681399865455"><ele>241.99999999999997</ele><time>2026-04-25T18:16:15.999Z</time></trkpt><trkpt lat="45.59694055229837" lon="8.638707478952533"><ele>242.0</ele><time>2026-04-25T18:18:41.998Z</time></trkpt><trkpt lat="45.596918050000006" lon="8.638615000000001"><ele>242.0</ele><time>2026-04-25T18:20:23.687Z</time></trkpt><trkpt lat="45.59692278333333" lon="8.638510550000001"><ele>241.99999999999997</ele><time>2026-04-25T18:20:27.692Z</time></trkpt><trkpt lat="45.59702861666666" lon="8.638517783333333"><ele>242.0</ele><time>2026-04-25T18:20:30.631Z</time></trkpt><trkpt lat="45.59709195000001" lon="8.638530833333334"><ele>242.0</ele><time>2026-04-25T18:20:31.687Z</time></trkpt><trkpt lat="45.597156666666656" lon="8.638528333333333"><ele>242.00000000000003</ele><time>2026-04-25T18:20:32.694Z</time></trkpt><trkpt lat="45.59722221666666" lon="8.638522783333334"><ele>242.0</ele><time>2026-04-25T18:20:33.637Z</time></trkpt><trkpt lat="45.597288049999996" lon="8.63852"><ele>242.0</ele><time>2026-04-25T18:20:34.657Z</time></trkpt><trkpt lat="45.597352216666664" lon="8.638523333333334"><ele>242.0</ele><time>2026-04-25T18:20:35.681Z</time></trkpt><trkpt lat="45.597475" lon="8.638529166666666"><ele>242.00000000000003</ele><time>2026-04-25T18:20:37.689Z</time></trkpt><trkpt lat="45.597602499999994" lon="8.638510833333333"><ele>242.0</ele><time>2026-04-25T18:20:39.674Z</time></trkpt><trkpt lat="45.597669716666665" lon="8.6384975"><ele>242.0</ele><time>2026-04-25T18:20:40.693Z</time></trkpt><trkpt lat="45.59773638333333" lon="8.63847805"><ele>241.99999999999997</ele><time>2026-04-25T18:20:41.684Z</time></trkpt><trkpt lat="45.597801116666666" lon="8.638458333333334"><ele>242.0</ele><time>2026-04-25T18:20:42.648Z</time></trkpt><trkpt lat="45.59786361666667" lon="8.638438333333333"><ele>242.0</ele><time>2026-04-25T18:20:43.668Z</time></trkpt><trkpt lat="45.59792805000001" lon="8.638415833333333"><ele>241.99999999999997</ele><time>2026-04-25T18:20:44.685Z</time></trkpt><trkpt lat="45.59799416666666" lon="8.638395833333334"><ele>242.0</ele><time>2026-04-25T18:20:45.692Z</time></trkpt><trkpt lat="45.59806388333333" lon="8.638378883333333"><ele>242.0</ele><time>2026-04-25T18:20:46.639Z</time></trkpt><trkpt lat="45.59813638333333" lon="8.638358333333334"><ele>241.50000000000003</ele><time>2026-04-25T18:20:47.665Z</time></trkpt><trkpt lat="45.59820833333333" lon="8.638341666666667"><ele>241.0</ele><time>2026-04-25T18:20:48.634Z</time></trkpt><trkpt lat="45.59827611666666" lon="8.638322783333333"><ele>240.5</ele><time>2026-04-25T18:20:49.633Z</time></trkpt><trkpt lat="45.598381116666665" lon="8.638293883333333"><ele>240.0</ele><time>2026-04-25T18:20:51.679Z</time></trkpt><trkpt lat="45.59844555" lon="8.638276116666667"><ele>239.50000000000003</ele><time>2026-04-25T18:20:57.693Z</time></trkpt><trkpt lat="45.59851235413824" lon="8.638242328715243"><ele>239.0</ele><time>2026-04-25T18:21:02.69Z</time></trkpt><trkpt lat="45.59856971666667" lon="8.638420550000001"><ele>239.0</ele><time>2026-04-25T18:21:06.688Z</time></trkpt><trkpt lat="45.5985725" lon="8.638558883333333"><ele>238.99999999999997</ele><time>2026-04-25T18:21:08.629Z</time></trkpt><trkpt lat="45.598576666666666" lon="8.638706666666668"><ele>238.99999999999997</ele><time>2026-04-25T18:21:10.692Z</time></trkpt><trkpt lat="45.59858333333333" lon="8.638854716666668"><ele>239.0</ele><time>2026-04-25T18:21:12.692Z</time></trkpt><trkpt lat="45.598582500000006" lon="8.638979166666667"><ele>239.0</ele><time>2026-04-25T18:21:14.684Z</time></trkpt><trkpt lat="45.59856833333333" lon="8.63909305"><ele>238.39999999999998</ele><time>2026-04-25T18:21:17.668Z</time></trkpt><trkpt lat="45.5985775" lon="8.639187216666667"><ele>237.79999999999998</ele><time>2026-04-25T18:21:19.705Z</time></trkpt><trkpt lat="45.59860666666667" lon="8.639310833333333"><ele>237.20000000000002</ele><time>2026-04-25T18:21:21.658Z</time></trkpt><trkpt lat="45.59869055000001" lon="8.639405833333333"><ele>236.60000000000002</ele><time>2026-04-25T18:21:23.628Z</time></trkpt><trkpt lat="45.598813050000004" lon="8.63943945"><ele>236.0</ele><time>2026-04-25T18:21:25.653Z</time></trkpt><trkpt lat="45.59887666666667" lon="8.63944555"><ele>234.16666666666669</ele><time>2026-04-25T18:21:26.672Z</time></trkpt><trkpt lat="45.59897278333332" lon="8.639473333333331"><ele>232.33333333333334</ele><time>2026-04-25T18:21:28.683Z</time></trkpt><trkpt lat="45.59900388333334" lon="8.63956055"><ele>230.5</ele><time>2026-04-25T18:21:30.687Z</time></trkpt><trkpt lat="45.59894148118839" lon="8.639614031274148"><ele>228.66666666666669</ele><time>2026-04-25T18:21:32.691Z</time></trkpt><trkpt lat="45.59885186832823" lon="8.639622283808617"><ele>226.83333333333334</ele><time>2026-04-25T18:21:34.664Z</time></trkpt><trkpt lat="45.59874202055122" lon="8.639610122541688"><ele>225.0</ele><time>2026-04-25T18:21:36.633Z</time></trkpt><trkpt lat="45.59862778333333" lon="8.639617783333334"><ele>224.0</ele><time>2026-04-25T18:21:38.658Z</time></trkpt><trkpt lat="45.59851572120238" lon="8.6395811357128"><ele>223.0</ele><time>2026-04-25T18:21:40.687Z</time></trkpt><trkpt lat="45.59839539777065" lon="8.639615869005953"><ele>222.0</ele><time>2026-04-25T18:21:42.651Z</time></trkpt><trkpt lat="45.59833221338925" lon="8.639690138346154"><ele>221.0</ele><time>2026-04-25T18:21:44.69Z</time></trkpt><trkpt lat="45.59840888333333" lon="8.639839716666668"><ele>220.0</ele><time>2026-04-25T18:21:45.633Z</time></trkpt><trkpt lat="45.598508333333335" lon="8.639896116666668"><ele>220.0</ele><time>2026-04-25T18:21:47.668Z</time></trkpt><trkpt lat="45.59863055000001" lon="8.639911383333333"><ele>220.0</ele><time>2026-04-25T18:21:49.691Z</time></trkpt><trkpt lat="45.59869583333334" lon="8.639918883333333"><ele>220.0</ele><time>2026-04-25T18:21:50.638Z</time></trkpt><trkpt lat="45.59875916666667" lon="8.639926116666668"><ele>220.0</ele><time>2026-04-25T18:21:51.662Z</time></trkpt><trkpt lat="45.598875283333335" lon="8.639961666666666"><ele>220.0</ele><time>2026-04-25T18:21:53.691Z</time></trkpt><trkpt lat="45.59894361666667" lon="8.640028333333333"><ele>219.99999999999997</ele><time>2026-04-25T18:21:55.655Z</time></trkpt><trkpt lat="45.59894166666667" lon="8.640142783333332"><ele>220.0</ele><time>2026-04-25T18:21:57.69Z</time></trkpt><trkpt lat="45.59882533345664" lon="8.640177208930373"><ele>220.0</ele><time>2026-04-25T18:21:59.65Z</time></trkpt><trkpt lat="45.598753938093424" lon="8.64020014573783"><ele>220.0</ele><time>2026-04-25T18:22:00.644Z</time></trkpt><trkpt lat="45.59867564868068" lon="8.640225297355848"><ele>219.99999999999997</ele><time>2026-04-25T18:22:01.673Z</time></trkpt><trkpt lat="45.59858997475777" lon="8.640254203621176"><ele>220.0</ele><time>2026-04-25T18:22:02.634Z</time></trkpt><trkpt lat="45.59850611666667" lon="8.640306666666666"><ele>218.2</ele><time>2026-04-25T18:22:03.63Z</time></trkpt><trkpt lat="45.59841243462861" lon="8.640319749739218"><ele>216.4</ele><time>2026-04-25T18:22:04.637Z</time></trkpt><trkpt lat="45.59833143719175" lon="8.64036016957657"><ele>214.60000000000002</ele><time>2026-04-25T18:22:05.633Z</time></trkpt><trkpt lat="45.59824700488703" lon="8.640427139230509"><ele>212.8</ele><time>2026-04-25T18:22:06.638Z</time></trkpt><trkpt lat="45.59819365452631" lon="8.640526532980461"><ele>211.0</ele><time>2026-04-25T18:22:07.633Z</time></trkpt><trkpt lat="45.59819361666667" lon="8.640654716666667"><ele>211.0</ele><time>2026-04-25T18:22:08.635Z</time></trkpt><trkpt lat="45.59819195000001" lon="8.640784166666666"><ele>211.0</ele><time>2026-04-25T18:22:09.639Z</time></trkpt><trkpt lat="45.59819333333333" lon="8.640931116666668"><ele>211.0</ele><time>2026-04-25T18:22:10.639Z</time></trkpt><trkpt lat="45.59817802703731" lon="8.64109368357697"><ele>211.0</ele><time>2026-04-25T18:22:11.639Z</time></trkpt><trkpt lat="45.59817642174702" lon="8.641270883882628"><ele>211.0</ele><time>2026-04-25T18:22:12.631Z</time></trkpt><trkpt lat="45.59817605538136" lon="8.641442216666666"><ele>210.0</ele><time>2026-04-25T18:22:13.636Z</time></trkpt><trkpt lat="45.59817605538136" lon="8.641632216666666"><ele>209.0</ele><time>2026-04-25T18:22:14.641Z</time></trkpt><trkpt lat="45.598176055378744" lon="8.641818050000001"><ele>208.0</ele><time>2026-04-25T18:22:15.631Z</time></trkpt><trkpt lat="45.598176055378744" lon="8.64199"><ele>207.0</ele><time>2026-04-25T18:22:16.634Z</time></trkpt><trkpt lat="45.59817658441709" lon="8.642130148814505"><ele>207.0</ele><time>2026-04-25T18:22:17.635Z</time></trkpt><trkpt lat="45.59819138333334" lon="8.64223695"><ele>207.0</ele><time>2026-04-25T18:22:18.631Z</time></trkpt><trkpt lat="45.59819195000001" lon="8.642391949999999"><ele>207.0</ele><time>2026-04-25T18:22:20.634Z</time></trkpt><trkpt lat="45.59819305" lon="8.642564716666667"><ele>207.0</ele><time>2026-04-25T18:22:22.632Z</time></trkpt><trkpt lat="45.59819333333333" lon="8.642668883333332"><ele>207.0</ele><time>2026-04-25T18:22:23.635Z</time></trkpt><trkpt lat="45.59819388333334" lon="8.642785"><ele>206.8</ele><time>2026-04-25T18:22:24.631Z</time></trkpt><trkpt lat="45.59819416666666" lon="8.6429125"><ele>206.6</ele><time>2026-04-25T18:22:25.639Z</time></trkpt><trkpt lat="45.59819305" lon="8.643051383333333"><ele>206.4</ele><time>2026-04-25T18:22:26.634Z</time></trkpt><trkpt lat="45.59819333333333" lon="8.643197216666666"><ele>206.20000000000002</ele><time>2026-04-25T18:22:27.632Z</time></trkpt><trkpt lat="45.598195550000014" lon="8.643349716666668"><ele>206.0</ele><time>2026-04-25T18:22:28.637Z</time></trkpt><trkpt lat="45.598196666666674" lon="8.643506116666666"><ele>206.0</ele><time>2026-04-25T18:22:29.633Z</time></trkpt><trkpt lat="45.59819805" lon="8.643664716666665"><ele>206.0</ele><time>2026-04-25T18:22:30.63Z</time></trkpt><trkpt lat="45.59819971666667" lon="8.643823883333333"><ele>206.0</ele><time>2026-04-25T18:22:31.634Z</time></trkpt><trkpt lat="45.598201116666665" lon="8.643981949999999"><ele>206.0</ele><time>2026-04-25T18:22:32.633Z</time></trkpt><trkpt lat="45.598203049999995" lon="8.644131383333333"><ele>206.0</ele><time>2026-04-25T18:22:33.634Z</time></trkpt><trkpt lat="45.598205283333336" lon="8.644258616666667"><ele>206.0</ele><time>2026-04-25T18:22:34.64Z</time></trkpt><trkpt lat="45.59820555" lon="8.644364716666667"><ele>206.0</ele><time>2026-04-25T18:22:35.634Z</time></trkpt><trkpt lat="45.59819849700786" lon="8.644513967403984"><ele>206.0</ele><time>2026-04-25T18:22:37.637Z</time></trkpt><trkpt lat="45.598286949999995" lon="8.644548883333332"><ele>206.0</ele><time>2026-04-25T18:22:38.634Z</time></trkpt><trkpt lat="45.59841555" lon="8.6445575"><ele>206.0</ele><time>2026-04-25T18:22:40.634Z</time></trkpt><trkpt lat="45.59849195" lon="8.644555833333333"><ele>205.8</ele><time>2026-04-25T18:22:41.634Z</time></trkpt><trkpt lat="45.598575" lon="8.644553883333334"><ele>205.60000000000002</ele><time>2026-04-25T18:22:42.632Z</time></trkpt><trkpt lat="45.598666116666664" lon="8.644549716666667"><ele>205.4</ele><time>2026-04-25T18:22:43.635Z</time></trkpt><trkpt lat="45.59876555000001" lon="8.644538883333333"><ele>205.2</ele><time>2026-04-25T18:22:44.638Z</time></trkpt><trkpt lat="45.59887278333334" lon="8.644518616666666"><ele>205.0</ele><time>2026-04-25T18:22:45.634Z</time></trkpt><trkpt lat="45.598983333333344" lon="8.64449445"><ele>205.0</ele><time>2026-04-25T18:22:46.633Z</time></trkpt><trkpt lat="45.59909166666666" lon="8.64446805"><ele>205.0</ele><time>2026-04-25T18:22:47.634Z</time></trkpt><trkpt lat="45.59919750000001" lon="8.644443616666667"><ele>205.0</ele><time>2026-04-25T18:22:48.636Z</time></trkpt><trkpt lat="45.59930111666666" lon="8.6444275"><ele>205.0</ele><time>2026-04-25T18:22:49.634Z</time></trkpt><trkpt lat="45.5994025" lon="8.644421666666666"><ele>205.0</ele><time>2026-04-25T18:22:50.635Z</time></trkpt><trkpt lat="45.599500000000006" lon="8.64442445"><ele>205.2</ele><time>2026-04-25T18:22:51.635Z</time></trkpt><trkpt lat="45.59959305000001" lon="8.644434166666668"><ele>205.4</ele><time>2026-04-25T18:22:52.635Z</time></trkpt><trkpt lat="45.59967666666666" lon="8.644438333333333"><ele>205.60000000000002</ele><time>2026-04-25T18:22:53.635Z</time></trkpt><trkpt lat="45.599747783333335" lon="8.644437783333332"><ele>205.8</ele><time>2026-04-25T18:22:54.635Z</time></trkpt><trkpt lat="45.599853333333336" lon="8.644496949999999"><ele>206.0</ele><time>2026-04-25T18:22:56.63Z</time></trkpt><trkpt lat="45.599889166666664" lon="8.644634716666667"><ele>206.00000000000003</ele><time>2026-04-25T18:22:58.628Z</time></trkpt><trkpt lat="45.59984778333334" lon="8.644799716666668"><ele>206.0</ele><time>2026-04-25T18:23:00.632Z</time></trkpt><trkpt lat="45.599809869264426" lon="8.644882412486929"><ele>206.0</ele><time>2026-04-25T18:23:01.631Z</time></trkpt><trkpt lat="45.59982388333333" lon="8.644983333333332"><ele>206.0</ele><time>2026-04-25T18:23:02.636Z</time></trkpt><trkpt lat="45.59984945" lon="8.645068883333332"><ele>206.00000000000003</ele><time>2026-04-25T18:23:03.633Z</time></trkpt><trkpt lat="45.59990166666667" lon="8.645122216666666"><ele>206.0</ele><time>2026-04-25T18:23:04.632Z</time></trkpt><trkpt lat="45.599965833333336" lon="8.645132499999999"><ele>206.00000000000003</ele><time>2026-04-25T18:23:05.636Z</time></trkpt><trkpt lat="45.60002861666667" lon="8.645101666666665"><ele>206.0</ele><time>2026-04-25T18:23:06.635Z</time></trkpt><trkpt lat="45.60008055" lon="8.645027783333333"><ele>206.0</ele><time>2026-04-25T18:23:07.63Z</time></trkpt><trkpt lat="45.600123333333336" lon="8.644938333333332"><ele>206.0</ele><time>2026-04-25T18:23:08.638Z</time></trkpt><trkpt lat="45.600168883333325" lon="8.644841666666668"><ele>206.00000000000003</ele><time>2026-04-25T18:23:09.632Z</time></trkpt><trkpt lat="45.60022361666667" lon="8.644745550000001"><ele>206.0</ele><time>2026-04-25T18:23:10.631Z</time></trkpt><trkpt lat="45.60028971666667" lon="8.644656666666666"><ele>206.4</ele><time>2026-04-25T18:23:11.634Z</time></trkpt><trkpt lat="45.60036555000001" lon="8.64457445"><ele>206.8</ele><time>2026-04-25T18:23:12.637Z</time></trkpt><trkpt lat="45.60044945" lon="8.644498883333334"><ele>207.20000000000002</ele><time>2026-04-25T18:23:13.63Z</time></trkpt><trkpt lat="45.60054194999999" lon="8.64443195"><ele>207.60000000000002</ele><time>2026-04-25T18:23:14.637Z</time></trkpt><trkpt lat="45.600642500000006" lon="8.644375"><ele>208.0</ele><time>2026-04-25T18:23:15.634Z</time></trkpt><trkpt lat="45.600750000000005" lon="8.644328616666666"><ele>208.0</ele><time>2026-04-25T18:23:16.632Z</time></trkpt><trkpt lat="45.600863883333346" lon="8.64429195"><ele>208.0</ele><time>2026-04-25T18:23:17.636Z</time></trkpt><trkpt lat="45.600982783333336" lon="8.644262216666668"><ele>208.0</ele><time>2026-04-25T18:23:18.632Z</time></trkpt><trkpt lat="45.601106949999995" lon="8.644235833333333"><ele>208.0</ele><time>2026-04-25T18:23:19.631Z</time></trkpt><trkpt lat="45.60123583333334" lon="8.644212783333334"><ele>207.75</ele><time>2026-04-25T18:23:20.634Z</time></trkpt><trkpt lat="45.601369166666665" lon="8.644192783333333"><ele>207.5</ele><time>2026-04-25T18:23:21.637Z</time></trkpt><trkpt lat="45.60150611666666" lon="8.644171116666666"><ele>207.25</ele><time>2026-04-25T18:23:22.63Z</time></trkpt><trkpt lat="45.60164638333334" lon="8.64414695"><ele>207.0</ele><time>2026-04-25T18:23:23.632Z</time></trkpt><trkpt lat="45.60178945" lon="8.644123050000001"><ele>207.0</ele><time>2026-04-25T18:23:24.638Z</time></trkpt><trkpt lat="45.60193611666667" lon="8.64410055"><ele>207.0</ele><time>2026-04-25T18:23:25.633Z</time></trkpt><trkpt lat="45.602085833333334" lon="8.644078883333332"><ele>207.0</ele><time>2026-04-25T18:23:26.637Z</time></trkpt><trkpt lat="45.60223888333333" lon="8.64405695"><ele>208.0</ele><time>2026-04-25T18:23:27.632Z</time></trkpt><trkpt lat="45.602394450000006" lon="8.644034166666668"><ele>209.0</ele><time>2026-04-25T18:23:28.633Z</time></trkpt><trkpt lat="45.602553050000004" lon="8.644009716666666"><ele>210.0</ele><time>2026-04-25T18:23:29.638Z</time></trkpt><trkpt lat="45.60271445" lon="8.643984716666667"><ele>211.33333333333331</ele><time>2026-04-25T18:23:30.639Z</time></trkpt><trkpt lat="45.60287833333333" lon="8.64396"><ele>212.66666666666666</ele><time>2026-04-25T18:23:31.63Z</time></trkpt><trkpt lat="45.603044716666666" lon="8.643936116666668"><ele>214.0</ele><time>2026-04-25T18:23:32.636Z</time></trkpt><trkpt lat="45.60321305000001" lon="8.643912216666667"><ele>214.0</ele><time>2026-04-25T18:23:33.634Z</time></trkpt><trkpt lat="45.60338333333334" lon="8.643887216666666"><ele>214.0</ele><time>2026-04-25T18:23:34.635Z</time></trkpt><trkpt lat="45.60355471666667" lon="8.64386195"><ele>214.0</ele><time>2026-04-25T18:23:35.63Z</time></trkpt><trkpt lat="45.60372805" lon="8.64383555"><ele>214.33333333333331</ele><time>2026-04-25T18:23:36.642Z</time></trkpt><trkpt lat="45.60390361666667" lon="8.643807783333333"><ele>214.66666666666669</ele><time>2026-04-25T18:23:37.632Z</time></trkpt><trkpt lat="45.604078616666655" lon="8.6437775"><ele>215.0</ele><time>2026-04-25T18:23:38.632Z</time></trkpt><trkpt lat="45.60425388333333" lon="8.643739166666668"><ele>215.0</ele><time>2026-04-25T18:23:39.633Z</time></trkpt><trkpt lat="45.604428883333334" lon="8.64369"><ele>215.0</ele><time>2026-04-25T18:23:40.636Z</time></trkpt><trkpt lat="45.60460361666666" lon="8.64363055"><ele>215.0</ele><time>2026-04-25T18:23:41.629Z</time></trkpt><trkpt lat="45.6047775" lon="8.643560833333334"><ele>217.33333333333334</ele><time>2026-04-25T18:23:42.637Z</time></trkpt><trkpt lat="45.60494971666667" lon="8.643479166666665"><ele>219.66666666666669</ele><time>2026-04-25T18:23:43.632Z</time></trkpt><trkpt lat="45.60511971666667" lon="8.643384716666667"><ele>222.0</ele><time>2026-04-25T18:23:44.632Z</time></trkpt><trkpt lat="45.60528778333334" lon="8.64327945"><ele>223.66666666666669</ele><time>2026-04-25T18:23:45.633Z</time></trkpt><trkpt lat="45.605454449999996" lon="8.643166116666666"><ele>225.33333333333334</ele><time>2026-04-25T18:23:46.634Z</time></trkpt><trkpt lat="45.60562111666666" lon="8.64304805"><ele>227.0</ele><time>2026-04-25T18:23:47.63Z</time></trkpt><trkpt lat="45.60578805" lon="8.6429275"><ele>227.0</ele><time>2026-04-25T18:23:48.637Z</time></trkpt><trkpt lat="45.60595499999999" lon="8.64280555"><ele>227.0</ele><time>2026-04-25T18:23:49.632Z</time></trkpt><trkpt lat="45.60612278333333" lon="8.642683333333334"><ele>227.0</ele><time>2026-04-25T18:23:50.631Z</time></trkpt><trkpt lat="45.60629221666667" lon="8.642559716666668"><ele>229.33333333333334</ele><time>2026-04-25T18:23:51.638Z</time></trkpt><trkpt lat="45.60646445000001" lon="8.642435"><ele>231.66666666666669</ele><time>2026-04-25T18:23:52.635Z</time></trkpt><trkpt lat="45.606635000000004" lon="8.642312500000001"><ele>234.0</ele><time>2026-04-25T18:23:53.634Z</time></trkpt><trkpt lat="45.606808333333326" lon="8.642189450000002"><ele>234.0</ele><time>2026-04-25T18:23:54.638Z</time></trkpt><trkpt lat="45.60698444999999" lon="8.64206555"><ele>234.0</ele><time>2026-04-25T18:23:55.633Z</time></trkpt><trkpt lat="45.607160549999996" lon="8.64194305"><ele>234.0</ele><time>2026-04-25T18:23:56.634Z</time></trkpt><trkpt lat="45.60733749999999" lon="8.641821116666666"><ele>235.0</ele><time>2026-04-25T18:23:57.633Z</time></trkpt><trkpt lat="45.60751416666667" lon="8.641697216666667"><ele>236.0</ele><time>2026-04-25T18:23:58.637Z</time></trkpt><trkpt lat="45.60769083333333" lon="8.641570833333333"><ele>237.0</ele><time>2026-04-25T18:23:59.63Z</time></trkpt><trkpt lat="45.607867783333326" lon="8.6414425"><ele>237.66666666666669</ele><time>2026-04-25T18:24:00.633Z</time></trkpt><trkpt lat="45.60804528333333" lon="8.641313049999999"><ele>238.33333333333334</ele><time>2026-04-25T18:24:01.633Z</time></trkpt><trkpt lat="45.60822305" lon="8.641182783333333"><ele>239.0</ele><time>2026-04-25T18:24:02.637Z</time></trkpt><trkpt lat="45.60840166666667" lon="8.64105055"><ele>239.33333333333334</ele><time>2026-04-25T18:24:03.636Z</time></trkpt><trkpt lat="45.60858083333333" lon="8.640917216666665"><ele>239.66666666666669</ele><time>2026-04-25T18:24:04.636Z</time></trkpt><trkpt lat="45.60876" lon="8.640780000000001"><ele>240.0</ele><time>2026-04-25T18:24:05.64Z</time></trkpt><trkpt lat="45.6089375" lon="8.640634166666667"><ele>241.0</ele><time>2026-04-25T18:24:06.634Z</time></trkpt><trkpt lat="45.609111950000006" lon="8.640477216666667"><ele>242.0</ele><time>2026-04-25T18:24:07.632Z</time></trkpt><trkpt lat="45.609282500000006" lon="8.640308616666665"><ele>243.0</ele><time>2026-04-25T18:24:08.642Z</time></trkpt><trkpt lat="45.60945194999999" lon="8.640133616666667"><ele>244.0</ele><time>2026-04-25T18:24:09.638Z</time></trkpt><trkpt lat="45.60962221666667" lon="8.639957216666666"><ele>245.0</ele><time>2026-04-25T18:24:10.634Z</time></trkpt><trkpt lat="45.60979305000001" lon="8.639778883333333"><ele>246.0</ele><time>2026-04-25T18:24:11.632Z</time></trkpt><trkpt lat="45.60996416666667" lon="8.639599716666668"><ele>245.66666666666669</ele><time>2026-04-25T18:24:12.631Z</time></trkpt><trkpt lat="45.610136666666655" lon="8.639417783333332"><ele>245.33333333333334</ele><time>2026-04-25T18:24:13.634Z</time></trkpt><trkpt lat="45.61030888333333" lon="8.6392375"><ele>245.0</ele><time>2026-04-25T18:24:14.631Z</time></trkpt><trkpt lat="45.610481666666665" lon="8.639056666666667"><ele>245.33333333333334</ele><time>2026-04-25T18:24:15.629Z</time></trkpt><trkpt lat="45.61065444999999" lon="8.638873883333334"><ele>245.66666666666669</ele><time>2026-04-25T18:24:16.634Z</time></trkpt><trkpt lat="45.61082833333333" lon="8.638690283333332"><ele>246.0</ele><time>2026-04-25T18:24:17.629Z</time></trkpt><trkpt lat="45.61100278333333" lon="8.638506383333333"><ele>245.66666666666669</ele><time>2026-04-25T18:24:18.631Z</time></trkpt><trkpt lat="45.61117778333334" lon="8.63832305"><ele>245.33333333333334</ele><time>2026-04-25T18:24:19.632Z</time></trkpt><trkpt lat="45.611353333333334" lon="8.638140283333334"><ele>245.0</ele><time>2026-04-25T18:24:20.636Z</time></trkpt><trkpt lat="45.61152916666667" lon="8.63795695"><ele>245.66666666666669</ele><time>2026-04-25T18:24:21.629Z</time></trkpt><trkpt lat="45.61170388333333" lon="8.637773333333332"><ele>246.33333333333331</ele><time>2026-04-25T18:24:22.635Z</time></trkpt><trkpt lat="45.61187611666666" lon="8.637588616666667"><ele>247.0</ele><time>2026-04-25T18:24:23.631Z</time></trkpt><trkpt lat="45.61204554999999" lon="8.637401383333335"><ele>247.0</ele><time>2026-04-25T18:24:24.631Z</time></trkpt><trkpt lat="45.61221166666666" lon="8.63720945"><ele>247.0</ele><time>2026-04-25T18:24:25.634Z</time></trkpt><trkpt lat="45.612375549999996" lon="8.637015"><ele>247.0</ele><time>2026-04-25T18:24:26.632Z</time></trkpt><trkpt lat="45.61253945" lon="8.636818333333334"><ele>247.0</ele><time>2026-04-25T18:24:27.63Z</time></trkpt><trkpt lat="45.61270305" lon="8.636620833333334"><ele>247.0</ele><time>2026-04-25T18:24:28.636Z</time></trkpt><trkpt lat="45.61286666666667" lon="8.636423616666667"><ele>247.0</ele><time>2026-04-25T18:24:29.631Z</time></trkpt><trkpt lat="45.61303" lon="8.63622805"><ele>247.0</ele><time>2026-04-25T18:24:30.632Z</time></trkpt><trkpt lat="45.613190550000006" lon="8.636037499999999"><ele>247.0</ele><time>2026-04-25T18:24:31.635Z</time></trkpt><trkpt lat="45.61333611666667" lon="8.635865833333334"><ele>247.0</ele><time>2026-04-25T18:24:32.636Z</time></trkpt><trkpt lat="45.61350971666668" lon="8.63566055"><ele>246.33333333333331</ele><time>2026-04-25T18:24:33.629Z</time></trkpt><trkpt lat="45.613665833333336" lon="8.635474166666667"><ele>245.66666666666669</ele><time>2026-04-25T18:24:34.637Z</time></trkpt><trkpt lat="45.613821116666664" lon="8.635288883333335"><ele>245.0</ele><time>2026-04-25T18:24:35.631Z</time></trkpt><trkpt lat="45.61397444999999" lon="8.635103616666667"><ele>245.0</ele><time>2026-04-25T18:24:36.63Z</time></trkpt><trkpt lat="45.614125550000004" lon="8.634920833333332"><ele>245.0</ele><time>2026-04-25T18:24:37.633Z</time></trkpt><trkpt lat="45.61427861666666" lon="8.634735000000001"><ele>245.0</ele><time>2026-04-25T18:24:38.633Z</time></trkpt><trkpt lat="45.61442971666667" lon="8.634551383333333"><ele>245.0</ele><time>2026-04-25T18:24:39.63Z</time></trkpt><trkpt lat="45.61457945" lon="8.634368883333334"><ele>245.0</ele><time>2026-04-25T18:24:40.636Z</time></trkpt><trkpt lat="45.61472833333334" lon="8.634186666666666"><ele>245.0</ele><time>2026-04-25T18:24:41.633Z</time></trkpt><trkpt lat="45.61487861666666" lon="8.634003333333334"><ele>245.0</ele><time>2026-04-25T18:24:42.631Z</time></trkpt><trkpt lat="45.61502778333334" lon="8.633822783333333"><ele>245.0</ele><time>2026-04-25T18:24:43.634Z</time></trkpt><trkpt lat="45.615176383333335" lon="8.633642783333332"><ele>245.0</ele><time>2026-04-25T18:24:44.634Z</time></trkpt><trkpt lat="45.61531166666667" lon="8.633478616666668"><ele>245.33333333333334</ele><time>2026-04-25T18:24:45.629Z</time></trkpt><trkpt lat="45.61547471666667" lon="8.633281666666667"><ele>245.66666666666669</ele><time>2026-04-25T18:24:46.638Z</time></trkpt><trkpt lat="45.61562361666667" lon="8.633103049999999"><ele>246.0</ele><time>2026-04-25T18:24:47.634Z</time></trkpt><trkpt lat="45.61577305000001" lon="8.632924716666668"><ele>246.0</ele><time>2026-04-25T18:24:48.633Z</time></trkpt><trkpt lat="45.615922783333325" lon="8.632745833333333"><ele>246.0</ele><time>2026-04-25T18:24:49.635Z</time></trkpt><trkpt lat="45.61605888333333" lon="8.6325825"><ele>246.0</ele><time>2026-04-25T18:24:50.636Z</time></trkpt><trkpt lat="45.61620945" lon="8.632401666666668"><ele>245.66666666666669</ele><time>2026-04-25T18:24:51.63Z</time></trkpt><trkpt lat="45.61636278333334" lon="8.632218333333332"><ele>245.33333333333334</ele><time>2026-04-25T18:24:52.636Z</time></trkpt><trkpt lat="45.6165125" lon="8.63203945"><ele>245.0</ele><time>2026-04-25T18:24:53.633Z</time></trkpt><trkpt lat="45.6166625" lon="8.631860833333333"><ele>246.33333333333334</ele><time>2026-04-25T18:24:54.634Z</time></trkpt><trkpt lat="45.61681388333333" lon="8.631680833333332"><ele>247.66666666666669</ele><time>2026-04-25T18:24:55.635Z</time></trkpt><trkpt lat="45.61696278333334" lon="8.63150195"><ele>249.0</ele><time>2026-04-25T18:24:56.635Z</time></trkpt><trkpt lat="45.61711138333333" lon="8.63132305"><ele>249.0</ele><time>2026-04-25T18:24:57.629Z</time></trkpt><trkpt lat="45.617259166666656" lon="8.631144716666668"><ele>249.0</ele><time>2026-04-25T18:24:58.635Z</time></trkpt><trkpt lat="45.61740666666666" lon="8.630966383333334"><ele>249.0</ele><time>2026-04-25T18:24:59.635Z</time></trkpt><trkpt lat="45.61755388333333" lon="8.630788333333333"><ele>249.33333333333331</ele><time>2026-04-25T18:25:00.632Z</time></trkpt><trkpt lat="45.617701116666666" lon="8.630610833333332"><ele>249.66666666666666</ele><time>2026-04-25T18:25:01.635Z</time></trkpt><trkpt lat="45.61784833333333" lon="8.630433333333334"><ele>250.0</ele><time>2026-04-25T18:25:02.633Z</time></trkpt><trkpt lat="45.617995" lon="8.630255833333333"><ele>251.66666666666666</ele><time>2026-04-25T18:25:03.629Z</time></trkpt><trkpt lat="45.618141666666666" lon="8.630078616666667"><ele>253.33333333333331</ele><time>2026-04-25T18:25:04.641Z</time></trkpt><trkpt lat="45.61828861666666" lon="8.629901383333333"><ele>255.0</ele><time>2026-04-25T18:25:05.633Z</time></trkpt><trkpt lat="45.61843528333333" lon="8.629725"><ele>255.0</ele><time>2026-04-25T18:25:06.632Z</time></trkpt><trkpt lat="45.61858195" lon="8.629549166666667"><ele>255.0</ele><time>2026-04-25T18:25:07.629Z</time></trkpt><trkpt lat="45.61872805" lon="8.629373333333334"><ele>255.0</ele><time>2026-04-25T18:25:08.632Z</time></trkpt><trkpt lat="45.618874716666674" lon="8.629197783333332"><ele>254.33333333333331</ele><time>2026-04-25T18:25:09.629Z</time></trkpt><trkpt lat="45.61902166666667" lon="8.629021666666667"><ele>253.66666666666666</ele><time>2026-04-25T18:25:10.637Z</time></trkpt><trkpt lat="45.61918305000001" lon="8.628829999999999"><ele>253.0</ele><time>2026-04-25T18:25:11.635Z</time></trkpt><trkpt lat="45.61931666666666" lon="8.62867055"><ele>253.0</ele><time>2026-04-25T18:25:12.636Z</time></trkpt><trkpt lat="45.61946555" lon="8.628493333333333"><ele>253.0</ele><time>2026-04-25T18:25:13.63Z</time></trkpt><trkpt lat="45.61961445" lon="8.628316383333333"><ele>253.0</ele><time>2026-04-25T18:25:14.638Z</time></trkpt><trkpt lat="45.61976388333333" lon="8.628138333333334"><ele>253.0</ele><time>2026-04-25T18:25:15.632Z</time></trkpt><trkpt lat="45.619913333333336" lon="8.627959716666668"><ele>253.0</ele><time>2026-04-25T18:25:16.631Z</time></trkpt><trkpt lat="45.620064166666666" lon="8.62777805"><ele>253.0</ele><time>2026-04-25T18:25:17.634Z</time></trkpt><trkpt lat="45.62021333333334" lon="8.627597783333332"><ele>253.0</ele><time>2026-04-25T18:25:18.637Z</time></trkpt><trkpt lat="45.62036333333334" lon="8.627417783333334"><ele>253.0</ele><time>2026-04-25T18:25:19.63Z</time></trkpt><trkpt lat="45.62051445000001" lon="8.627238616666666"><ele>253.0</ele><time>2026-04-25T18:25:20.636Z</time></trkpt><trkpt lat="45.620666666666665" lon="8.627060833333333"><ele>254.66666666666666</ele><time>2026-04-25T18:25:21.634Z</time></trkpt><trkpt lat="45.62082028333333" lon="8.626885"><ele>256.3333333333333</ele><time>2026-04-25T18:25:22.634Z</time></trkpt><trkpt lat="45.62097638333333" lon="8.626711383333333"><ele>258.0</ele><time>2026-04-25T18:25:23.634Z</time></trkpt><trkpt lat="45.621135283333324" lon="8.626541666666666"><ele>257.6666666666667</ele><time>2026-04-25T18:25:24.634Z</time></trkpt><trkpt lat="45.621296666666666" lon="8.626376383333334"><ele>257.33333333333337</ele><time>2026-04-25T18:25:25.63Z</time></trkpt><trkpt lat="45.62146166666666" lon="8.6262175"><ele>257.0</ele><time>2026-04-25T18:25:26.637Z</time></trkpt><trkpt lat="45.62163221666666" lon="8.626065"><ele>257.0</ele><time>2026-04-25T18:25:27.633Z</time></trkpt><trkpt lat="45.621804166666664" lon="8.625918883333332"><ele>257.0</ele><time>2026-04-25T18:25:28.632Z</time></trkpt><trkpt lat="45.621978333333324" lon="8.625777783333334"><ele>257.0</ele><time>2026-04-25T18:25:29.636Z</time></trkpt><trkpt lat="45.62215500000001" lon="8.625641383333333"><ele>256.33333333333337</ele><time>2026-04-25T18:25:30.634Z</time></trkpt><trkpt lat="45.622334450000004" lon="8.62551"><ele>255.66666666666669</ele><time>2026-04-25T18:25:31.629Z</time></trkpt><trkpt lat="45.62251583333333" lon="8.62538305"><ele>255.0</ele><time>2026-04-25T18:25:32.64Z</time></trkpt><trkpt lat="45.62269916666668" lon="8.625260833333334"><ele>255.0</ele><time>2026-04-25T18:25:33.639Z</time></trkpt><trkpt lat="45.622885" lon="8.625145550000001"><ele>255.0</ele><time>2026-04-25T18:25:34.633Z</time></trkpt><trkpt lat="45.623073616666666" lon="8.625037500000001"><ele>255.0</ele><time>2026-04-25T18:25:35.634Z</time></trkpt><trkpt lat="45.62326445" lon="8.624936383333333"><ele>255.0</ele><time>2026-04-25T18:25:36.634Z</time></trkpt><trkpt lat="45.623456950000005" lon="8.624840283333333"><ele>255.0</ele><time>2026-04-25T18:25:37.632Z</time></trkpt><trkpt lat="45.62365083333334" lon="8.624748333333333"><ele>255.0</ele><time>2026-04-25T18:25:38.635Z</time></trkpt><trkpt lat="45.62384583333334" lon="8.62466195"><ele>254.0</ele><time>2026-04-25T18:25:39.634Z</time></trkpt><trkpt lat="45.62404278333334" lon="8.6245825"><ele>253.0</ele><time>2026-04-25T18:25:40.636Z</time></trkpt><trkpt lat="45.62424111666665" lon="8.62451055"><ele>252.0</ele><time>2026-04-25T18:25:41.634Z</time></trkpt><trkpt lat="45.62444416666667" lon="8.624443883333333"><ele>251.66666666666669</ele><time>2026-04-25T18:25:42.633Z</time></trkpt><trkpt lat="45.62464471666667" lon="8.624385833333335"><ele>251.33333333333334</ele><time>2026-04-25T18:25:43.631Z</time></trkpt><trkpt lat="45.624846383333335" lon="8.624336383333334"><ele>251.0</ele><time>2026-04-25T18:25:44.635Z</time></trkpt><trkpt lat="45.625049450000006" lon="8.624293333333332"><ele>251.0</ele><time>2026-04-25T18:25:45.63Z</time></trkpt><trkpt lat="45.62525555" lon="8.624255"><ele>251.0</ele><time>2026-04-25T18:25:46.632Z</time></trkpt><trkpt lat="45.62545971666666" lon="8.624221666666667"><ele>251.0</ele><time>2026-04-25T18:25:47.631Z</time></trkpt><trkpt lat="45.62566445000001" lon="8.624189716666667"><ele>251.33333333333334</ele><time>2026-04-25T18:25:48.631Z</time></trkpt><trkpt lat="45.625869716666664" lon="8.624158616666667"><ele>251.66666666666669</ele><time>2026-04-25T18:25:49.631Z</time></trkpt><trkpt lat="45.62607528333333" lon="8.624127499999998"><ele>252.0</ele><time>2026-04-25T18:25:50.639Z</time></trkpt><trkpt lat="45.62628083333334" lon="8.624095833333334"><ele>252.0</ele><time>2026-04-25T18:25:51.633Z</time></trkpt><trkpt lat="45.62648666666667" lon="8.624063883333333"><ele>252.0</ele><time>2026-04-25T18:25:52.635Z</time></trkpt><trkpt lat="45.62669471666666" lon="8.624031666666667"><ele>252.0</ele><time>2026-04-25T18:25:53.634Z</time></trkpt><trkpt lat="45.62690055" lon="8.623999166666666"><ele>252.33333333333331</ele><time>2026-04-25T18:25:54.637Z</time></trkpt><trkpt lat="45.62710611666667" lon="8.623966116666667"><ele>252.66666666666666</ele><time>2026-04-25T18:25:55.63Z</time></trkpt><trkpt lat="45.627311383333335" lon="8.623933616666667"><ele>253.0</ele><time>2026-04-25T18:25:56.63Z</time></trkpt><trkpt lat="45.627516116666655" lon="8.623901116666667"><ele>253.0</ele><time>2026-04-25T18:25:57.636Z</time></trkpt><trkpt lat="45.62772221666667" lon="8.62386805"><ele>253.0</ele><time>2026-04-25T18:25:58.637Z</time></trkpt><trkpt lat="45.627923883333345" lon="8.623835000000001"><ele>253.0</ele><time>2026-04-25T18:25:59.632Z</time></trkpt><trkpt lat="45.6281275" lon="8.62380195"><ele>252.66666666666666</ele><time>2026-04-25T18:26:00.639Z</time></trkpt><trkpt lat="45.628331116666665" lon="8.623769166666667"><ele>252.33333333333331</ele><time>2026-04-25T18:26:01.636Z</time></trkpt><trkpt lat="45.628534450000004" lon="8.623736383333332"><ele>252.0</ele><time>2026-04-25T18:26:02.645Z</time></trkpt><trkpt lat="45.62873750000001" lon="8.623703616666667"><ele>253.0</ele><time>2026-04-25T18:26:03.635Z</time></trkpt><trkpt lat="45.628940283333336" lon="8.623671116666667"><ele>254.0</ele><time>2026-04-25T18:26:04.638Z</time></trkpt><trkpt lat="45.62914304999999" lon="8.623638333333334"><ele>255.0</ele><time>2026-04-25T18:26:05.633Z</time></trkpt><trkpt lat="45.62934583333334" lon="8.623606116666668"><ele>255.66666666666669</ele><time>2026-04-25T18:26:06.639Z</time></trkpt><trkpt lat="45.62954833333334" lon="8.623574166666666"><ele>256.33333333333337</ele><time>2026-04-25T18:26:07.633Z</time></trkpt><trkpt lat="45.629750550000004" lon="8.623541666666666"><ele>257.0</ele><time>2026-04-25T18:26:08.635Z</time></trkpt><trkpt lat="45.62995278333333" lon="8.62350805"><ele>257.0</ele><time>2026-04-25T18:26:09.635Z</time></trkpt><trkpt lat="45.63015471666666" lon="8.623474716666667"><ele>257.0</ele><time>2026-04-25T18:26:10.637Z</time></trkpt><trkpt lat="45.63035611666666" lon="8.623441666666668"><ele>257.0</ele><time>2026-04-25T18:26:11.632Z</time></trkpt><trkpt lat="45.6305575" lon="8.623408883333333"><ele>256.33333333333337</ele><time>2026-04-25T18:26:12.637Z</time></trkpt><trkpt lat="45.63074083333333" lon="8.623379166666666"><ele>255.66666666666669</ele><time>2026-04-25T18:26:13.635Z</time></trkpt><trkpt lat="45.63096361666667" lon="8.623342783333333"><ele>255.0</ele><time>2026-04-25T18:26:14.635Z</time></trkpt><trkpt lat="45.631147216666676" lon="8.623312783333335"><ele>254.33333333333331</ele><time>2026-04-25T18:26:15.635Z</time></trkpt><trkpt lat="45.631350283333326" lon="8.623279716666667"><ele>253.66666666666666</ele><time>2026-04-25T18:26:16.634Z</time></trkpt><trkpt lat="45.63157278333333" lon="8.623244716666665"><ele>253.0</ele><time>2026-04-25T18:26:17.631Z</time></trkpt><trkpt lat="45.63177111666668" lon="8.623213333333332"><ele>253.0</ele><time>2026-04-25T18:26:18.636Z</time></trkpt><trkpt lat="45.63197138333334" lon="8.62318195"><ele>253.0</ele><time>2026-04-25T18:26:19.635Z</time></trkpt><trkpt lat="45.63217195000001" lon="8.62315"><ele>253.0</ele><time>2026-04-25T18:26:20.635Z</time></trkpt><trkpt lat="45.63237278333333" lon="8.623118333333334"><ele>253.66666666666666</ele><time>2026-04-25T18:26:21.634Z</time></trkpt><trkpt lat="45.63257416666667" lon="8.623086666666667"><ele>254.33333333333331</ele><time>2026-04-25T18:26:22.635Z</time></trkpt><trkpt lat="45.63275778333333" lon="8.6230575"><ele>255.0</ele><time>2026-04-25T18:26:23.632Z</time></trkpt><trkpt lat="45.63296528333334" lon="8.62302445"><ele>256.3333333333333</ele><time>2026-04-25T18:26:24.638Z</time></trkpt><trkpt lat="45.63316861666667" lon="8.622991383333334"><ele>257.66666666666663</ele><time>2026-04-25T18:26:25.633Z</time></trkpt><trkpt lat="45.63337166666667" lon="8.622957783333334"><ele>259.0</ele><time>2026-04-25T18:26:26.634Z</time></trkpt><trkpt lat="45.633574716666665" lon="8.622924166666667"><ele>259.0</ele><time>2026-04-25T18:26:27.631Z</time></trkpt><trkpt lat="45.63377833333334" lon="8.62289055"><ele>259.0</ele><time>2026-04-25T18:26:28.635Z</time></trkpt><trkpt lat="45.63398221666666" lon="8.622857783333334"><ele>259.0</ele><time>2026-04-25T18:26:29.632Z</time></trkpt><trkpt lat="45.634187783333324" lon="8.622825"><ele>259.0</ele><time>2026-04-25T18:26:30.637Z</time></trkpt><trkpt lat="45.634391666666666" lon="8.622793049999999"><ele>259.0</ele><time>2026-04-25T18:26:31.634Z</time></trkpt><trkpt lat="45.63459611666667" lon="8.622761950000001"><ele>259.0</ele><time>2026-04-25T18:26:32.634Z</time></trkpt><trkpt lat="45.63480055" lon="8.622730833333334"><ele>259.0</ele><time>2026-04-25T18:26:33.634Z</time></trkpt><trkpt lat="45.63500304999999" lon="8.62269945"><ele>259.0</ele><time>2026-04-25T18:26:34.636Z</time></trkpt><trkpt lat="45.635209716666665" lon="8.622665833333334"><ele>259.0</ele><time>2026-04-25T18:26:35.634Z</time></trkpt><trkpt lat="45.635414450000006" lon="8.622631666666667"><ele>259.3333333333333</ele><time>2026-04-25T18:26:36.638Z</time></trkpt><trkpt lat="45.63561916666666" lon="8.622597783333333"><ele>259.6666666666667</ele><time>2026-04-25T18:26:37.631Z</time></trkpt><trkpt lat="45.635825833333335" lon="8.622564166666667"><ele>260.0</ele><time>2026-04-25T18:26:38.635Z</time></trkpt><trkpt lat="45.636030283333334" lon="8.622530833333334"><ele>261.0</ele><time>2026-04-25T18:26:39.635Z</time></trkpt><trkpt lat="45.63623528333332" lon="8.622497783333333"><ele>262.0</ele><time>2026-04-25T18:26:40.638Z</time></trkpt><trkpt lat="45.636440283333336" lon="8.622464166666667"><ele>263.0</ele><time>2026-04-25T18:26:41.631Z</time></trkpt><trkpt lat="45.636644999999994" lon="8.622430833333334"><ele>263.0</ele><time>2026-04-25T18:26:42.64Z</time></trkpt><trkpt lat="45.63684916666666" lon="8.622396666666667"><ele>263.0</ele><time>2026-04-25T18:26:43.678Z</time></trkpt><trkpt lat="45.637052499999996" lon="8.62236195"><ele>263.0</ele><time>2026-04-25T18:26:44.641Z</time></trkpt><trkpt lat="45.63725471666667" lon="8.622327216666667"><ele>264.6666666666667</ele><time>2026-04-25T18:26:45.64Z</time></trkpt><trkpt lat="45.63745583333333" lon="8.62229305"><ele>266.3333333333333</ele><time>2026-04-25T18:26:46.64Z</time></trkpt><trkpt lat="45.63765611666666" lon="8.622259166666668"><ele>268.0</ele><time>2026-04-25T18:26:47.63Z</time></trkpt><trkpt lat="45.63785555" lon="8.622226116666667"><ele>268.3333333333333</ele><time>2026-04-25T18:26:48.643Z</time></trkpt><trkpt lat="45.63805638333333" lon="8.62219305"><ele>268.6666666666667</ele><time>2026-04-25T18:26:49.633Z</time></trkpt><trkpt lat="45.63825471666667" lon="8.622161116666666"><ele>269.0</ele><time>2026-04-25T18:26:50.635Z</time></trkpt><trkpt lat="45.63845249999999" lon="8.622129450000001"><ele>268.0</ele><time>2026-04-25T18:26:51.632Z</time></trkpt><trkpt lat="45.63865028333333" lon="8.622097499999999"><ele>267.0</ele><time>2026-04-25T18:26:52.637Z</time></trkpt><trkpt lat="45.63884721666667" lon="8.622066116666668"><ele>266.0</ele><time>2026-04-25T18:26:53.633Z</time></trkpt><trkpt lat="45.63904361666667" lon="8.622034716666667"><ele>266.0</ele><time>2026-04-25T18:26:54.631Z</time></trkpt><trkpt lat="45.63924000000001" lon="8.622003883333333"><ele>266.0</ele><time>2026-04-25T18:26:55.634Z</time></trkpt><trkpt lat="45.63943555" lon="8.621973050000001"><ele>266.0</ele><time>2026-04-25T18:26:56.633Z</time></trkpt><trkpt lat="45.639630833333335" lon="8.621942216666667"><ele>266.6666666666667</ele><time>2026-04-25T18:26:57.632Z</time></trkpt><trkpt lat="45.63982554999999" lon="8.621911116666666"><ele>267.3333333333333</ele><time>2026-04-25T18:26:58.642Z</time></trkpt><trkpt lat="45.640019716666664" lon="8.621879716666665"><ele>268.0</ele><time>2026-04-25T18:26:59.633Z</time></trkpt><trkpt lat="45.64021304999999" lon="8.621848333333332"><ele>269.3333333333333</ele><time>2026-04-25T18:27:00.632Z</time></trkpt><trkpt lat="45.64040528333334" lon="8.621817216666667"><ele>270.6666666666667</ele><time>2026-04-25T18:27:01.636Z</time></trkpt><trkpt lat="45.64059195" lon="8.621786666666665"><ele>272.0</ele><time>2026-04-25T18:27:02.634Z</time></trkpt><trkpt lat="45.64077388333334" lon="8.621756950000002"><ele>272.0</ele><time>2026-04-25T18:27:03.637Z</time></trkpt><trkpt lat="45.64095054999999" lon="8.62172805"><ele>272.0</ele><time>2026-04-25T18:27:04.635Z</time></trkpt><trkpt lat="45.64112278333334" lon="8.621699166666668"><ele>272.0</ele><time>2026-04-25T18:27:05.633Z</time></trkpt><trkpt lat="45.64129083333334" lon="8.621670833333333"><ele>272.6666666666667</ele><time>2026-04-25T18:27:06.636Z</time></trkpt><trkpt lat="45.64145471666667" lon="8.621642783333334"><ele>273.3333333333333</ele><time>2026-04-25T18:27:07.635Z</time></trkpt><trkpt lat="45.64161361666667" lon="8.621615833333333"><ele>274.0</ele><time>2026-04-25T18:27:08.64Z</time></trkpt><trkpt lat="45.64177221666667" lon="8.621590283333333"><ele>274.0</ele><time>2026-04-25T18:27:09.63Z</time></trkpt><trkpt lat="45.641926116666674" lon="8.6215675"><ele>274.0</ele><time>2026-04-25T18:27:10.636Z</time></trkpt><trkpt lat="45.642077216666664" lon="8.621546116666668"><ele>274.0</ele><time>2026-04-25T18:27:11.637Z</time></trkpt><trkpt lat="45.642225283333325" lon="8.621525833333333"><ele>273.75</ele><time>2026-04-25T18:27:12.631Z</time></trkpt><trkpt lat="45.64237" lon="8.621505833333332"><ele>273.5</ele><time>2026-04-25T18:27:13.635Z</time></trkpt><trkpt lat="45.642511666666664" lon="8.621486383333334"><ele>273.25</ele><time>2026-04-25T18:27:14.632Z</time></trkpt><trkpt lat="45.64264971666666" lon="8.621466666666667"><ele>273.0</ele><time>2026-04-25T18:27:15.629Z</time></trkpt><trkpt lat="45.64278388333334" lon="8.621445283333333"><ele>273.25</ele><time>2026-04-25T18:27:16.633Z</time></trkpt><trkpt lat="45.64291416666667" lon="8.6214225"><ele>273.5</ele><time>2026-04-25T18:27:17.633Z</time></trkpt><trkpt lat="45.64303721666667" lon="8.621400283333333"><ele>273.75</ele><time>2026-04-25T18:27:18.633Z</time></trkpt><trkpt lat="45.64315083333332" lon="8.621381666666668"><ele>274.0</ele><time>2026-04-25T18:27:19.635Z</time></trkpt><trkpt lat="45.64325028333333" lon="8.621369716666667"><ele>274.0</ele><time>2026-04-25T18:27:20.638Z</time></trkpt><trkpt lat="45.64333221666668" lon="8.62136695"><ele>274.0</ele><time>2026-04-25T18:27:21.631Z</time></trkpt><trkpt lat="45.643400549999996" lon="8.621367216666666"><ele>274.0</ele><time>2026-04-25T18:27:22.634Z</time></trkpt><trkpt lat="45.64351805" lon="8.621405283333333"><ele>274.0</ele><time>2026-04-25T18:27:24.632Z</time></trkpt><trkpt lat="45.64362388333334" lon="8.621507783333334"><ele>274.0</ele><time>2026-04-25T18:27:26.633Z</time></trkpt><trkpt lat="45.643685549999994" lon="8.621554166666666"><ele>274.3333333333333</ele><time>2026-04-25T18:27:27.632Z</time></trkpt><trkpt lat="45.643756383333326" lon="8.621575833333333"><ele>274.66666666666663</ele><time>2026-04-25T18:27:28.64Z</time></trkpt><trkpt lat="45.64383028333333" lon="8.621563049999999"><ele>275.0</ele><time>2026-04-25T18:27:29.633Z</time></trkpt><trkpt lat="45.64390278333334" lon="8.62152195"><ele>275.3333333333333</ele><time>2026-04-25T18:27:30.632Z</time></trkpt><trkpt lat="45.64396638333333" lon="8.621455283333333"><ele>275.6666666666667</ele><time>2026-04-25T18:27:31.636Z</time></trkpt><trkpt lat="45.64401861666667" lon="8.621375833333333"><ele>276.0</ele><time>2026-04-25T18:27:32.641Z</time></trkpt><trkpt lat="45.644071116666666" lon="8.62130195"><ele>276.0</ele><time>2026-04-25T18:27:33.63Z</time></trkpt><trkpt lat="45.64413416666666" lon="8.621241383333334"><ele>276.0</ele><time>2026-04-25T18:27:34.638Z</time></trkpt><trkpt lat="45.64421083333333" lon="8.621191116666667"><ele>276.0</ele><time>2026-04-25T18:27:35.636Z</time></trkpt><trkpt lat="45.64430304999999" lon="8.621151116666665"><ele>276.0</ele><time>2026-04-25T18:27:36.634Z</time></trkpt><trkpt lat="45.644407216666664" lon="8.62111445"><ele>276.0</ele><time>2026-04-25T18:27:37.631Z</time></trkpt><trkpt lat="45.64452138333333" lon="8.62107555"><ele>276.75</ele><time>2026-04-25T18:27:38.637Z</time></trkpt><trkpt lat="45.64464445" lon="8.621032216666666"><ele>277.5</ele><time>2026-04-25T18:27:39.635Z</time></trkpt><trkpt lat="45.644775" lon="8.620983883333334"><ele>278.25</ele><time>2026-04-25T18:27:40.634Z</time></trkpt><trkpt lat="45.64491471666666" lon="8.620929716666666"><ele>279.0</ele><time>2026-04-25T18:27:41.635Z</time></trkpt><trkpt lat="45.645060550000004" lon="8.62086945"><ele>279.0</ele><time>2026-04-25T18:27:42.634Z</time></trkpt><trkpt lat="45.64521249999999" lon="8.620803883333334"><ele>279.0</ele><time>2026-04-25T18:27:43.631Z</time></trkpt><trkpt lat="45.645371116666674" lon="8.620732783333333"><ele>279.0</ele><time>2026-04-25T18:27:44.637Z</time></trkpt><trkpt lat="45.645531950000006" lon="8.62065805"><ele>280.3333333333333</ele><time>2026-04-25T18:27:45.631Z</time></trkpt><trkpt lat="45.64569611666668" lon="8.620581666666666"><ele>281.66666666666663</ele><time>2026-04-25T18:27:46.634Z</time></trkpt><trkpt lat="45.64586166666666" lon="8.620504166666667"><ele>283.0</ele><time>2026-04-25T18:27:47.64Z</time></trkpt><trkpt lat="45.64603055" lon="8.620423883333332"><ele>283.3333333333333</ele><time>2026-04-25T18:27:48.64Z</time></trkpt><trkpt lat="45.64620055" lon="8.62034195"><ele>283.6666666666667</ele><time>2026-04-25T18:27:49.641Z</time></trkpt><trkpt lat="45.64637166666667" lon="8.620258333333334"><ele>284.0</ele><time>2026-04-25T18:27:50.647Z</time></trkpt><trkpt lat="45.64654471666666" lon="8.620173616666667"><ele>284.33333333333337</ele><time>2026-04-25T18:27:51.634Z</time></trkpt><trkpt lat="45.646719716666674" lon="8.620087216666667"><ele>284.6666666666667</ele><time>2026-04-25T18:27:52.635Z</time></trkpt><trkpt lat="45.646894999999994" lon="8.619999716666666"><ele>285.0</ele><time>2026-04-25T18:27:53.639Z</time></trkpt><trkpt lat="45.64707388333333" lon="8.619910549999998"><ele>285.0</ele><time>2026-04-25T18:27:54.636Z</time></trkpt><trkpt lat="45.647252783333336" lon="8.6198225"><ele>285.0</ele><time>2026-04-25T18:27:55.633Z</time></trkpt><trkpt lat="45.647431116666674" lon="8.619734999999999"><ele>285.0</ele><time>2026-04-25T18:27:56.636Z</time></trkpt><trkpt lat="45.64761221666666" lon="8.619646666666668"><ele>285.0</ele><time>2026-04-25T18:27:57.634Z</time></trkpt><trkpt lat="45.64779111666666" lon="8.61956055"><ele>285.0</ele><time>2026-04-25T18:27:58.634Z</time></trkpt><trkpt lat="45.64796750000001" lon="8.61947445"><ele>285.0</ele><time>2026-04-25T18:27:59.636Z</time></trkpt><trkpt lat="45.64814611666668" lon="8.619386383333334"><ele>285.0</ele><time>2026-04-25T18:28:00.631Z</time></trkpt><trkpt lat="45.64832249999999" lon="8.619302783333335"><ele>285.0</ele><time>2026-04-25T18:28:01.632Z</time></trkpt><trkpt lat="45.648499449999996" lon="8.619225"><ele>285.0</ele><time>2026-04-25T18:28:02.639Z</time></trkpt><trkpt lat="45.64867695" lon="8.619155283333333"><ele>285.0</ele><time>2026-04-25T18:28:03.634Z</time></trkpt><trkpt lat="45.648855000000005" lon="8.619093883333333"><ele>285.0</ele><time>2026-04-25T18:28:04.64Z</time></trkpt><trkpt lat="45.64903388333334" lon="8.619040283333334"><ele>285.0</ele><time>2026-04-25T18:28:05.637Z</time></trkpt><trkpt lat="45.64921388333334" lon="8.618998333333334"><ele>285.0</ele><time>2026-04-25T18:28:06.638Z</time></trkpt><trkpt lat="45.64939638333334" lon="8.618968050000001"><ele>285.0</ele><time>2026-04-25T18:28:07.635Z</time></trkpt><trkpt lat="45.64957583333333" lon="8.61894445"><ele>285.0</ele><time>2026-04-25T18:28:08.639Z</time></trkpt><trkpt lat="45.649757216666664" lon="8.618924166666666"><ele>285.3333333333333</ele><time>2026-04-25T18:28:09.636Z</time></trkpt><trkpt lat="45.649938883333334" lon="8.61890555"><ele>285.66666666666663</ele><time>2026-04-25T18:28:10.637Z</time></trkpt><trkpt lat="45.650120833333325" lon="8.618887783333333"><ele>286.0</ele><time>2026-04-25T18:28:11.636Z</time></trkpt><trkpt lat="45.65030111666667" lon="8.61887"><ele>285.3333333333333</ele><time>2026-04-25T18:28:12.637Z</time></trkpt><trkpt lat="45.650484716666675" lon="8.618851116666667"><ele>284.6666666666667</ele><time>2026-04-25T18:28:13.633Z</time></trkpt><trkpt lat="45.650664166666665" lon="8.618833050000001"><ele>284.0</ele><time>2026-04-25T18:28:14.635Z</time></trkpt><trkpt lat="45.65084055000001" lon="8.618816116666666"><ele>284.0</ele><time>2026-04-25T18:28:15.631Z</time></trkpt><trkpt lat="45.65101416666666" lon="8.61879805"><ele>284.0</ele><time>2026-04-25T18:28:16.632Z</time></trkpt><trkpt lat="45.65118304999999" lon="8.618779716666667"><ele>284.0</ele><time>2026-04-25T18:28:17.631Z</time></trkpt><trkpt lat="45.651349716666665" lon="8.618760283333334"><ele>284.25</ele><time>2026-04-25T18:28:18.637Z</time></trkpt><trkpt lat="45.65149916666666" lon="8.618740833333334"><ele>284.5</ele><time>2026-04-25T18:28:19.631Z</time></trkpt><trkpt lat="45.651634449999996" lon="8.618722216666667"><ele>284.75</ele><time>2026-04-25T18:28:20.633Z</time></trkpt><trkpt lat="45.651750549999996" lon="8.618712499999999"><ele>285.0</ele><time>2026-04-25T18:28:21.635Z</time></trkpt><trkpt lat="45.65184944999999" lon="8.618716383333332"><ele>285.0</ele><time>2026-04-25T18:28:22.635Z</time></trkpt><trkpt lat="45.651935833333326" lon="8.618739166666668"><ele>285.0</ele><time>2026-04-25T18:28:23.638Z</time></trkpt><trkpt lat="45.652011949999995" lon="8.618781383333333"><ele>285.0</ele><time>2026-04-25T18:28:24.641Z</time></trkpt><trkpt lat="45.65208416666666" lon="8.618826666666665"><ele>285.0</ele><time>2026-04-25T18:28:25.633Z</time></trkpt><trkpt lat="45.652160833333326" lon="8.618848883333333"><ele>285.0</ele><time>2026-04-25T18:28:26.637Z</time></trkpt><trkpt lat="45.652236949999995" lon="8.618834450000001"><ele>285.0</ele><time>2026-04-25T18:28:27.636Z</time></trkpt><trkpt lat="45.65230888333334" lon="8.618786949999999"><ele>285.2</ele><time>2026-04-25T18:28:28.636Z</time></trkpt><trkpt lat="45.65238278333333" lon="8.618736666666665"><ele>285.4</ele><time>2026-04-25T18:28:29.636Z</time></trkpt><trkpt lat="45.65246666666667" lon="8.618705283333332"><ele>285.6</ele><time>2026-04-25T18:28:30.638Z</time></trkpt><trkpt lat="45.65256138333333" lon="8.61869305"><ele>285.8</ele><time>2026-04-25T18:28:31.635Z</time></trkpt><trkpt lat="45.65266028333334" lon="8.61868805"><ele>286.0</ele><time>2026-04-25T18:28:32.636Z</time></trkpt><trkpt lat="45.65276945" lon="8.618680000000001"><ele>285.5</ele><time>2026-04-25T18:28:33.637Z</time></trkpt><trkpt lat="45.652882500000004" lon="8.6186675"><ele>285.0</ele><time>2026-04-25T18:28:34.638Z</time></trkpt><trkpt lat="45.65300138333334" lon="8.61865055"><ele>284.5</ele><time>2026-04-25T18:28:35.631Z</time></trkpt><trkpt lat="45.65313638333334" lon="8.618626666666668"><ele>284.0</ele><time>2026-04-25T18:28:36.636Z</time></trkpt><trkpt lat="45.65325388333334" lon="8.6186025"><ele>285.5</ele><time>2026-04-25T18:28:37.635Z</time></trkpt><trkpt lat="45.65338721666667" lon="8.618575283333334"><ele>287.0</ele><time>2026-04-25T18:28:38.632Z</time></trkpt><trkpt lat="45.653526116666676" lon="8.618547783333334"><ele>288.5</ele><time>2026-04-25T18:28:39.635Z</time></trkpt><trkpt lat="45.65366666666667" lon="8.618521666666666"><ele>290.0</ele><time>2026-04-25T18:28:40.637Z</time></trkpt><trkpt lat="45.65381083333334" lon="8.618497783333334"><ele>291.0</ele><time>2026-04-25T18:28:41.631Z</time></trkpt><trkpt lat="45.653960000000005" lon="8.618478616666666"><ele>292.0</ele><time>2026-04-25T18:28:42.636Z</time></trkpt><trkpt lat="45.654114449999994" lon="8.618466116666667"><ele>293.0</ele><time>2026-04-25T18:28:43.636Z</time></trkpt><trkpt lat="45.654273333333336" lon="8.618462216666668"><ele>293.0</ele><time>2026-04-25T18:28:44.633Z</time></trkpt><trkpt lat="45.654436383333326" lon="8.618466666666665"><ele>293.0</ele><time>2026-04-25T18:28:45.634Z</time></trkpt><trkpt lat="45.65460305" lon="8.61847695"><ele>293.0</ele><time>2026-04-25T18:28:46.637Z</time></trkpt><trkpt lat="45.65477278333333" lon="8.618491666666667"><ele>293.33333333333337</ele><time>2026-04-25T18:28:47.631Z</time></trkpt><trkpt lat="45.65494638333333" lon="8.618510283333334"><ele>293.6666666666667</ele><time>2026-04-25T18:28:48.636Z</time></trkpt><trkpt lat="45.65512388333333" lon="8.61853195"><ele>294.0</ele><time>2026-04-25T18:28:49.634Z</time></trkpt><trkpt lat="45.655304716666656" lon="8.618554716666667"><ele>294.0</ele><time>2026-04-25T18:28:50.632Z</time></trkpt><trkpt lat="45.655488333333345" lon="8.61857805"><ele>294.0</ele><time>2026-04-25T18:28:51.636Z</time></trkpt><trkpt lat="45.655673616666675" lon="8.618601383333333"><ele>294.0</ele><time>2026-04-25T18:28:52.638Z</time></trkpt><trkpt lat="45.655861116666664" lon="8.61862555"><ele>294.0</ele><time>2026-04-25T18:28:53.631Z</time></trkpt><trkpt lat="45.65603554999999" lon="8.61864805"><ele>294.0</ele><time>2026-04-25T18:28:54.639Z</time></trkpt><trkpt lat="45.65624388333334" lon="8.61867445"><ele>294.0</ele><time>2026-04-25T18:28:55.639Z</time></trkpt><trkpt lat="45.656434450000006" lon="8.618699166666666"><ele>293.6666666666667</ele><time>2026-04-25T18:28:56.636Z</time></trkpt><trkpt lat="45.65660971666666" lon="8.618722216666667"><ele>293.33333333333337</ele><time>2026-04-25T18:28:57.635Z</time></trkpt><trkpt lat="45.65682028333334" lon="8.618748616666666"><ele>293.0</ele><time>2026-04-25T18:28:58.636Z</time></trkpt><trkpt lat="45.65699528333333" lon="8.618771116666666"><ele>293.0</ele><time>2026-04-25T18:28:59.63Z</time></trkpt><trkpt lat="45.65718916666666" lon="8.618796116666665"><ele>293.0</ele><time>2026-04-25T18:29:00.649Z</time></trkpt><trkpt lat="45.65738138333333" lon="8.618820283333335"><ele>293.0</ele><time>2026-04-25T18:29:01.636Z</time></trkpt><trkpt lat="45.65757416666667" lon="8.618843883333334"><ele>293.0</ele><time>2026-04-25T18:29:02.635Z</time></trkpt><trkpt lat="45.65776388333334" lon="8.61886805"><ele>293.0</ele><time>2026-04-25T18:29:03.637Z</time></trkpt><trkpt lat="45.65795249999999" lon="8.618892783333333"><ele>293.0</ele><time>2026-04-25T18:29:04.636Z</time></trkpt><trkpt lat="45.65814" lon="8.618917216666667"><ele>293.6666666666667</ele><time>2026-04-25T18:29:05.633Z</time></trkpt><trkpt lat="45.65832638333333" lon="8.61893945"><ele>294.3333333333333</ele><time>2026-04-25T18:29:06.636Z</time></trkpt><trkpt lat="45.658512216666665" lon="8.618955833333333"><ele>295.0</ele><time>2026-04-25T18:29:07.635Z</time></trkpt><trkpt lat="45.65869778333334" lon="8.618966383333333"><ele>295.3333333333333</ele><time>2026-04-25T18:29:08.635Z</time></trkpt><trkpt lat="45.65888278333333" lon="8.618968616666665"><ele>295.6666666666667</ele><time>2026-04-25T18:29:09.63Z</time></trkpt><trkpt lat="45.65906888333333" lon="8.618960833333334"><ele>296.0</ele><time>2026-04-25T18:29:10.64Z</time></trkpt><trkpt lat="45.65925278333334" lon="8.618947783333335"><ele>296.0</ele><time>2026-04-25T18:29:11.63Z</time></trkpt><trkpt lat="45.65943694999999" lon="8.618932783333333"><ele>296.0</ele><time>2026-04-25T18:29:12.634Z</time></trkpt><trkpt lat="45.659621666666666" lon="8.6189175"><ele>296.0</ele><time>2026-04-25T18:29:13.632Z</time></trkpt><trkpt lat="45.65980695" lon="8.618902499999999"><ele>296.0</ele><time>2026-04-25T18:29:14.635Z</time></trkpt><trkpt lat="45.6599925" lon="8.61888805"><ele>296.0</ele><time>2026-04-25T18:29:15.637Z</time></trkpt><trkpt lat="45.66017833333334" lon="8.6188725"><ele>296.0</ele><time>2026-04-25T18:29:16.638Z</time></trkpt><trkpt lat="45.66036583333333" lon="8.618855550000001"><ele>296.0</ele><time>2026-04-25T18:29:17.634Z</time></trkpt><trkpt lat="45.66055166666667" lon="8.618838616666666"><ele>296.0</ele><time>2026-04-25T18:29:18.635Z</time></trkpt><trkpt lat="45.66073750000001" lon="8.618821116666666"><ele>296.0</ele><time>2026-04-25T18:29:19.635Z</time></trkpt><trkpt lat="45.660925" lon="8.61880305"><ele>296.0</ele><time>2026-04-25T18:29:20.634Z</time></trkpt><trkpt lat="45.661111116666675" lon="8.618786116666667"><ele>296.0</ele><time>2026-04-25T18:29:21.64Z</time></trkpt><trkpt lat="45.6612975" lon="8.61876945"><ele>296.0</ele><time>2026-04-25T18:29:22.642Z</time></trkpt><trkpt lat="45.661483616666665" lon="8.618754166666667"><ele>294.0</ele><time>2026-04-25T18:29:23.639Z</time></trkpt><trkpt lat="45.66166888333334" lon="8.618738616666667"><ele>292.0</ele><time>2026-04-25T18:29:24.637Z</time></trkpt><trkpt lat="45.66185416666667" lon="8.61872305"><ele>290.0</ele><time>2026-04-25T18:29:25.636Z</time></trkpt><trkpt lat="45.66203888333333" lon="8.6187075"><ele>290.0</ele><time>2026-04-25T18:29:26.636Z</time></trkpt><trkpt lat="45.66222416666666" lon="8.618691666666665"><ele>290.0</ele><time>2026-04-25T18:29:27.635Z</time></trkpt><trkpt lat="45.66240861666667" lon="8.618675833333333"><ele>290.0</ele><time>2026-04-25T18:29:28.638Z</time></trkpt><trkpt lat="45.66259471666667" lon="8.618660283333332"><ele>291.33333333333337</ele><time>2026-04-25T18:29:29.634Z</time></trkpt><trkpt lat="45.662778333333335" lon="8.61864555"><ele>292.6666666666667</ele><time>2026-04-25T18:29:30.634Z</time></trkpt><trkpt lat="45.66295971666666" lon="8.618631116666668"><ele>294.0</ele><time>2026-04-25T18:29:31.636Z</time></trkpt><trkpt lat="45.6631375" lon="8.618616666666666"><ele>294.0</ele><time>2026-04-25T18:29:32.637Z</time></trkpt><trkpt lat="45.66331194999999" lon="8.618602216666668"><ele>294.0</ele><time>2026-04-25T18:29:33.631Z</time></trkpt><trkpt lat="45.663484716666666" lon="8.618587499999999"><ele>294.0</ele><time>2026-04-25T18:29:34.636Z</time></trkpt><trkpt lat="45.66364971666667" lon="8.618573616666668"><ele>294.25</ele><time>2026-04-25T18:29:35.634Z</time></trkpt><trkpt lat="45.663801383333336" lon="8.618560833333333"><ele>294.5</ele><time>2026-04-25T18:29:36.638Z</time></trkpt><trkpt lat="45.66393555" lon="8.618552783333334"><ele>294.75</ele><time>2026-04-25T18:29:37.64Z</time></trkpt><trkpt lat="45.66404971666665" lon="8.61855945"><ele>295.0</ele><time>2026-04-25T18:29:38.638Z</time></trkpt><trkpt lat="45.66414916666666" lon="8.61858695"><ele>295.0</ele><time>2026-04-25T18:29:39.632Z</time></trkpt><trkpt lat="45.66422888333334" lon="8.618638883333333"><ele>295.0</ele><time>2026-04-25T18:29:40.638Z</time></trkpt><trkpt lat="45.66429111666666" lon="8.618711116666667"><ele>295.0</ele><time>2026-04-25T18:29:41.634Z</time></trkpt><trkpt lat="45.66434833333333" lon="8.618789166666666"><ele>295.0</ele><time>2026-04-25T18:29:42.636Z</time></trkpt><trkpt lat="45.664413883333324" lon="8.61884945"><ele>295.0</ele><time>2026-04-25T18:29:43.636Z</time></trkpt><trkpt lat="45.66448861666667" lon="8.618879716666667"><ele>295.0</ele><time>2026-04-25T18:29:44.638Z</time></trkpt><trkpt lat="45.66456721666667" lon="8.61887555"><ele>294.8333333333333</ele><time>2026-04-25T18:29:45.632Z</time></trkpt><trkpt lat="45.66463945000001" lon="8.618827216666666"><ele>294.66666666666663</ele><time>2026-04-25T18:29:46.637Z</time></trkpt><trkpt lat="45.66469083333333" lon="8.6187375"><ele>294.5</ele><time>2026-04-25T18:29:47.635Z</time></trkpt><trkpt lat="45.66471055" lon="8.618622783333333"><ele>294.3333333333333</ele><time>2026-04-25T18:29:48.634Z</time></trkpt><trkpt lat="45.664696383333336" lon="8.618503883333332"><ele>294.1666666666667</ele><time>2026-04-25T18:29:49.631Z</time></trkpt><trkpt lat="45.664650550000005" lon="8.618399166666668"><ele>294.0</ele><time>2026-04-25T18:29:50.636Z</time></trkpt><trkpt lat="45.66456750000001" lon="8.618304166666666"><ele>294.2</ele><time>2026-04-25T18:29:51.631Z</time></trkpt><trkpt lat="45.66449028333333" lon="8.618213050000001"><ele>294.4</ele><time>2026-04-25T18:29:52.638Z</time></trkpt><trkpt lat="45.66442305000001" lon="8.618103616666668"><ele>294.6</ele><time>2026-04-25T18:29:53.635Z</time></trkpt><trkpt lat="45.66436778333333" lon="8.617974166666666"><ele>294.8</ele><time>2026-04-25T18:29:54.636Z</time></trkpt><trkpt lat="45.66432499999999" lon="8.617823616666668"><ele>295.0</ele><time>2026-04-25T18:29:55.636Z</time></trkpt><trkpt lat="45.664292499999995" lon="8.61766"><ele>296.5</ele><time>2026-04-25T18:29:56.637Z</time></trkpt><trkpt lat="45.66426361666666" lon="8.617490283333332"><ele>298.0</ele><time>2026-04-25T18:29:57.64Z</time></trkpt><trkpt lat="45.66423945" lon="8.617322216666668"><ele>299.5</ele><time>2026-04-25T18:29:58.64Z</time></trkpt><trkpt lat="45.6642375" lon="8.617154166666667"><ele>301.0</ele><time>2026-04-25T18:29:59.636Z</time></trkpt><trkpt lat="45.664269166666664" lon="8.616993616666667"><ele>302.5</ele><time>2026-04-25T18:30:00.638Z</time></trkpt><trkpt lat="45.66433278333334" lon="8.616852783333334"><ele>304.0</ele><time>2026-04-25T18:30:01.634Z</time></trkpt><trkpt lat="45.66441721666666" lon="8.616731666666668"><ele>305.5</ele><time>2026-04-25T18:30:02.637Z</time></trkpt><trkpt lat="45.66451028333333" lon="8.616618616666667"><ele>307.0</ele><time>2026-04-25T18:30:03.634Z</time></trkpt><trkpt lat="45.664606666666664" lon="8.616505"><ele>307.0</ele><time>2026-04-25T18:30:04.639Z</time></trkpt><trkpt lat="45.664706949999996" lon="8.61639055"><ele>307.0</ele><time>2026-04-25T18:30:05.636Z</time></trkpt><trkpt lat="45.66481028333333" lon="8.616273616666666"><ele>307.0</ele><time>2026-04-25T18:30:06.641Z</time></trkpt><trkpt lat="45.66491611666667" lon="8.616155"><ele>307.0</ele><time>2026-04-25T18:30:07.632Z</time></trkpt><trkpt lat="45.66502471666666" lon="8.616036116666667"><ele>308.5</ele><time>2026-04-25T18:30:08.639Z</time></trkpt><trkpt lat="45.66513305" lon="8.615916949999999"><ele>310.0</ele><time>2026-04-25T18:30:09.634Z</time></trkpt><trkpt lat="45.66524083333334" lon="8.6157975"><ele>311.5</ele><time>2026-04-25T18:30:10.639Z</time></trkpt><trkpt lat="45.66534333333334" lon="8.615688883333334"><ele>313.0</ele><time>2026-04-25T18:30:11.637Z</time></trkpt><trkpt lat="45.66544555" lon="8.6156025"><ele>313.0</ele><time>2026-04-25T18:30:12.636Z</time></trkpt><trkpt lat="45.66554305" lon="8.615541383333333"><ele>313.0</ele><time>2026-04-25T18:30:13.634Z</time></trkpt><trkpt lat="45.66562555" lon="8.615495283333333"><ele>313.0</ele><time>2026-04-25T18:30:14.637Z</time></trkpt><trkpt lat="45.66568971666668" lon="8.615443883333334"><ele>313.0</ele><time>2026-04-25T18:30:15.636Z</time></trkpt><trkpt lat="45.665726383333336" lon="8.615367783333333"><ele>313.0</ele><time>2026-04-25T18:30:16.634Z</time></trkpt><trkpt lat="45.66568971666668" lon="8.61521305"><ele>313.0</ele><time>2026-04-25T18:30:18.637Z</time></trkpt><trkpt lat="45.665623616666664" lon="8.615189166666665"><ele>313.0</ele><time>2026-04-25T18:30:19.631Z</time></trkpt><trkpt lat="45.665548050000005" lon="8.615222216666666"><ele>313.0</ele><time>2026-04-25T18:30:20.639Z</time></trkpt><trkpt lat="45.66546166666667" lon="8.615301116666666"><ele>313.0</ele><time>2026-04-25T18:30:21.635Z</time></trkpt><trkpt lat="45.66537111666666" lon="8.615376949999998"><ele>313.0</ele><time>2026-04-25T18:30:22.638Z</time></trkpt><trkpt lat="45.66527138333333" lon="8.615445833333332"><ele>313.0</ele><time>2026-04-25T18:30:23.636Z</time></trkpt><trkpt lat="45.66516333333334" lon="8.615506116666667"><ele>315.75</ele><time>2026-04-25T18:30:24.638Z</time></trkpt><trkpt lat="45.66505138333334" lon="8.61556055"><ele>318.5</ele><time>2026-04-25T18:30:25.632Z</time></trkpt><trkpt lat="45.66493138333334" lon="8.615616383333334"><ele>321.25</ele><time>2026-04-25T18:30:26.638Z</time></trkpt><trkpt lat="45.66480971666667" lon="8.61567055"><ele>324.0</ele><time>2026-04-25T18:30:27.635Z</time></trkpt><trkpt lat="45.664695283333344" lon="8.615720833333334"><ele>324.0</ele><time>2026-04-25T18:30:28.638Z</time></trkpt><trkpt lat="45.66459221666668" lon="8.615766383333334"><ele>324.0</ele><time>2026-04-25T18:30:29.636Z</time></trkpt><trkpt lat="45.66450555" lon="8.615806666666666"><ele>324.0</ele><time>2026-04-25T18:30:30.636Z</time></trkpt><trkpt lat="45.664434449999995" lon="8.615829999999999"><ele>324.0</ele><time>2026-04-25T18:30:31.635Z</time></trkpt><trkpt lat="45.664345000000004" lon="8.615780283333333"><ele>324.0</ele><time>2026-04-25T18:30:33.635Z</time></trkpt><trkpt lat="45.664347500000005" lon="8.615668616666666"><ele>324.0</ele><time>2026-04-25T18:30:35.635Z</time></trkpt><trkpt lat="45.66444361666666" lon="8.615567783333333"><ele>324.0</ele><time>2026-04-25T18:30:37.632Z</time></trkpt><trkpt lat="45.664507216666664" lon="8.615523883333333"><ele>324.0</ele><time>2026-04-25T18:30:38.637Z</time></trkpt><trkpt lat="45.664576950000004" lon="8.615476950000001"><ele>324.0</ele><time>2026-04-25T18:30:39.634Z</time></trkpt><trkpt lat="45.664650550000005" lon="8.615424166666665"><ele>324.0</ele><time>2026-04-25T18:30:40.634Z</time></trkpt><trkpt lat="45.66472111666667" lon="8.61537055"><ele>324.0</ele><time>2026-04-25T18:30:41.636Z</time></trkpt><trkpt lat="45.66480833333333" lon="8.61530445"><ele>324.0</ele><time>2026-04-25T18:30:42.635Z</time></trkpt><trkpt lat="45.66488721666666" lon="8.615242783333334"><ele>326.1666666666667</ele><time>2026-04-25T18:30:43.637Z</time></trkpt><trkpt lat="45.66495028333333" lon="8.615174999999999"><ele>328.3333333333333</ele><time>2026-04-25T18:30:44.64Z</time></trkpt><trkpt lat="45.664998883333325" lon="8.615070283333333"><ele>330.5</ele><time>2026-04-25T18:30:45.634Z</time></trkpt><trkpt lat="45.66501083333333" lon="8.614958333333334"><ele>332.66666666666663</ele><time>2026-04-25T18:30:46.634Z</time></trkpt><trkpt lat="45.66499416666667" lon="8.614839716666667"><ele>334.8333333333333</ele><time>2026-04-25T18:30:47.637Z</time></trkpt><trkpt lat="45.66496333333333" lon="8.614728333333332"><ele>337.0</ele><time>2026-04-25T18:30:48.641Z</time></trkpt><trkpt lat="45.664917783333344" lon="8.61459445"><ele>337.40000000000003</ele><time>2026-04-25T18:30:49.636Z</time></trkpt><trkpt lat="45.664870549999996" lon="8.61446805"><ele>337.8</ele><time>2026-04-25T18:30:50.635Z</time></trkpt><trkpt lat="45.66482028333333" lon="8.614334716666667"><ele>338.2</ele><time>2026-04-25T18:30:51.636Z</time></trkpt><trkpt lat="45.66477195000001" lon="8.61420695"><ele>338.6</ele><time>2026-04-25T18:30:52.638Z</time></trkpt><trkpt lat="45.66471583333334" lon="8.614060283333332"><ele>339.0</ele><time>2026-04-25T18:30:53.636Z</time></trkpt><trkpt lat="45.664652499999995" lon="8.613894166666666"><ele>339.0</ele><time>2026-04-25T18:30:54.637Z</time></trkpt><trkpt lat="45.66459721666667" lon="8.61375195"><ele>339.0</ele><time>2026-04-25T18:30:55.636Z</time></trkpt><trkpt lat="45.66452888333333" lon="8.613578616666667"><ele>339.0</ele><time>2026-04-25T18:30:56.633Z</time></trkpt><trkpt lat="45.66446971666666" lon="8.613431666666665"><ele>339.0</ele><time>2026-04-25T18:30:57.636Z</time></trkpt><trkpt lat="45.664398333333345" lon="8.613248883333334"><ele>338.5</ele><time>2026-04-25T18:30:58.638Z</time></trkpt><trkpt lat="45.66433305" lon="8.613075"><ele>338.0</ele><time>2026-04-25T18:30:59.632Z</time></trkpt><trkpt lat="45.664269166666664" lon="8.612895"><ele>337.5</ele><time>2026-04-25T18:31:00.638Z</time></trkpt><trkpt lat="45.66421416666667" lon="8.612706383333332"><ele>337.0</ele><time>2026-04-25T18:31:01.637Z</time></trkpt><trkpt lat="45.66417" lon="8.612509166666667"><ele>336.5</ele><time>2026-04-25T18:31:02.635Z</time></trkpt><trkpt lat="45.66413888333333" lon="8.612322216666668"><ele>336.0</ele><time>2026-04-25T18:31:03.638Z</time></trkpt><trkpt lat="45.66410888333333" lon="8.61211"><ele>335.5</ele><time>2026-04-25T18:31:04.641Z</time></trkpt><trkpt lat="45.66408083333334" lon="8.611892216666666"><ele>335.0</ele><time>2026-04-25T18:31:05.633Z</time></trkpt><trkpt lat="45.66404861666666" lon="8.611637216666665"><ele>334.33333333333337</ele><time>2026-04-25T18:31:06.638Z</time></trkpt><trkpt lat="45.664026666666665" lon="8.611452783333334"><ele>333.6666666666667</ele><time>2026-04-25T18:31:07.637Z</time></trkpt><trkpt lat="45.663999166666656" lon="8.611225833333334"><ele>333.0</ele><time>2026-04-25T18:31:08.634Z</time></trkpt><trkpt lat="45.663971116666666" lon="8.610996666666667"><ele>332.6666666666667</ele><time>2026-04-25T18:31:09.637Z</time></trkpt><trkpt lat="45.663941949999995" lon="8.610765283333334"><ele>332.33333333333337</ele><time>2026-04-25T18:31:10.637Z</time></trkpt><trkpt lat="45.66391195" lon="8.610532783333333"><ele>332.0</ele><time>2026-04-25T18:31:11.633Z</time></trkpt><trkpt lat="45.66388195" lon="8.61029945"><ele>331.6666666666667</ele><time>2026-04-25T18:31:12.639Z</time></trkpt><trkpt lat="45.663851949999994" lon="8.610065833333335"><ele>331.3333333333333</ele><time>2026-04-25T18:31:13.635Z</time></trkpt><trkpt lat="45.66382195" lon="8.609832216666666"><ele>331.0</ele><time>2026-04-25T18:31:14.636Z</time></trkpt><trkpt lat="45.663791666666675" lon="8.609599716666667"><ele>330.3333333333333</ele><time>2026-04-25T18:31:15.636Z</time></trkpt><trkpt lat="45.66375916666666" lon="8.609369166666667"><ele>329.6666666666667</ele><time>2026-04-25T18:31:16.637Z</time></trkpt><trkpt lat="45.66372" lon="8.609138333333334"><ele>329.0</ele><time>2026-04-25T18:31:17.633Z</time></trkpt><trkpt lat="45.66367666666667" lon="8.608911383333332"><ele>329.0</ele><time>2026-04-25T18:31:18.639Z</time></trkpt><trkpt lat="45.66363195" lon="8.608685000000001"><ele>329.0</ele><time>2026-04-25T18:31:19.634Z</time></trkpt><trkpt lat="45.66358638333333" lon="8.608458616666667"><ele>329.0</ele><time>2026-04-25T18:31:20.635Z</time></trkpt><trkpt lat="45.66353945000001" lon="8.60823055"><ele>329.6666666666667</ele><time>2026-04-25T18:31:21.637Z</time></trkpt><trkpt lat="45.66349278333333" lon="8.608003616666666"><ele>330.3333333333333</ele><time>2026-04-25T18:31:22.642Z</time></trkpt><trkpt lat="45.66344666666667" lon="8.607776116666667"><ele>331.0</ele><time>2026-04-25T18:31:23.637Z</time></trkpt><trkpt lat="45.66340083333333" lon="8.607547783333333"><ele>330.0</ele><time>2026-04-25T18:31:24.637Z</time></trkpt><trkpt lat="45.663355" lon="8.607320833333333"><ele>329.0</ele><time>2026-04-25T18:31:25.636Z</time></trkpt><trkpt lat="45.66330945" lon="8.607095833333332"><ele>328.0</ele><time>2026-04-25T18:31:26.638Z</time></trkpt><trkpt lat="45.66326333333333" lon="8.606873883333334"><ele>328.0</ele><time>2026-04-25T18:31:27.642Z</time></trkpt><trkpt lat="45.66321221666667" lon="8.6066575"><ele>328.0</ele><time>2026-04-25T18:31:28.643Z</time></trkpt><trkpt lat="45.66315278333333" lon="8.606449716666667"><ele>328.0</ele><time>2026-04-25T18:31:29.636Z</time></trkpt><trkpt lat="45.66308471666666" lon="8.606251666666665"><ele>327.75</ele><time>2026-04-25T18:31:30.636Z</time></trkpt><trkpt lat="45.66301166666667" lon="8.606064166666666"><ele>327.5</ele><time>2026-04-25T18:31:31.633Z</time></trkpt><trkpt lat="45.66293583333333" lon="8.605893333333334"><ele>327.25</ele><time>2026-04-25T18:31:32.632Z</time></trkpt><trkpt lat="45.662865833333335" lon="8.605746383333333"><ele>327.0</ele><time>2026-04-25T18:31:33.636Z</time></trkpt><trkpt lat="45.662811116666674" lon="8.60563305"><ele>327.0</ele><time>2026-04-25T18:31:34.636Z</time></trkpt><trkpt lat="45.662766116666674" lon="8.605541666666666"><ele>327.0</ele><time>2026-04-25T18:31:35.634Z</time></trkpt><trkpt lat="45.66272471666666" lon="8.605459166666666"><ele>327.0</ele><time>2026-04-25T18:31:36.64Z</time></trkpt><trkpt lat="45.66268166666667" lon="8.605376116666667"><ele>327.0</ele><time>2026-04-25T18:31:37.636Z</time></trkpt><trkpt lat="45.662635833333326" lon="8.605285283333334"><ele>327.0</ele><time>2026-04-25T18:31:38.634Z</time></trkpt><trkpt lat="45.662588883333335" lon="8.60518195"><ele>327.0</ele><time>2026-04-25T18:31:39.634Z</time></trkpt><trkpt lat="45.662545" lon="8.605064166666667"><ele>327.0</ele><time>2026-04-25T18:31:40.637Z</time></trkpt><trkpt lat="45.66250749999999" lon="8.60492805"><ele>327.0</ele><time>2026-04-25T18:31:41.635Z</time></trkpt><trkpt lat="45.66247971666667" lon="8.604774716666666"><ele>327.0</ele><time>2026-04-25T18:31:42.634Z</time></trkpt><trkpt lat="45.66246305" lon="8.604608333333335"><ele>327.0</ele><time>2026-04-25T18:31:43.634Z</time></trkpt><trkpt lat="45.66245445" lon="8.604431383333333"><ele>327.25</ele><time>2026-04-25T18:31:44.637Z</time></trkpt><trkpt lat="45.66244861666668" lon="8.604243883333334"><ele>327.5</ele><time>2026-04-25T18:31:45.633Z</time></trkpt><trkpt lat="45.66244471666668" lon="8.60404945"><ele>327.75</ele><time>2026-04-25T18:31:46.634Z</time></trkpt><trkpt lat="45.66244111666667" lon="8.603848333333334"><ele>328.0</ele><time>2026-04-25T18:31:47.633Z</time></trkpt><trkpt lat="45.66243721666667" lon="8.603646666666666"><ele>328.4</ele><time>2026-04-25T18:31:48.637Z</time></trkpt><trkpt lat="45.662434166666664" lon="8.603465833333333"><ele>328.79999999999995</ele><time>2026-04-25T18:31:49.636Z</time></trkpt><trkpt lat="45.662431950000006" lon="8.603323883333333"><ele>329.2</ele><time>2026-04-25T18:31:50.639Z</time></trkpt><trkpt lat="45.66243" lon="8.603203333333333"><ele>329.6</ele><time>2026-04-25T18:31:51.634Z</time></trkpt><trkpt lat="45.66242833333334" lon="8.603087783333333"><ele>330.0</ele><time>2026-04-25T18:31:52.638Z</time></trkpt><trkpt lat="45.662426116666666" lon="8.602966666666667"><ele>330.0</ele><time>2026-04-25T18:31:53.634Z</time></trkpt><trkpt lat="45.66242361666667" lon="8.602838333333333"><ele>330.0</ele><time>2026-04-25T18:31:54.634Z</time></trkpt><trkpt lat="45.66242054999999" lon="8.602703333333332"><ele>330.0</ele><time>2026-04-25T18:31:55.637Z</time></trkpt><trkpt lat="45.66241611666666" lon="8.602559716666667"><ele>330.0</ele><time>2026-04-25T18:31:56.642Z</time></trkpt><trkpt lat="45.662408883333335" lon="8.6024075"><ele>330.0</ele><time>2026-04-25T18:31:57.635Z</time></trkpt><trkpt lat="45.66239805" lon="8.60224805"><ele>330.2</ele><time>2026-04-25T18:31:58.637Z</time></trkpt><trkpt lat="45.662384450000005" lon="8.602090833333333"><ele>330.4</ele><time>2026-04-25T18:31:59.633Z</time></trkpt><trkpt lat="45.66236611666666" lon="8.601943616666667"><ele>330.6</ele><time>2026-04-25T18:32:00.635Z</time></trkpt><trkpt lat="45.66233666666667" lon="8.601811666666666"><ele>330.8</ele><time>2026-04-25T18:32:01.637Z</time></trkpt><trkpt lat="45.66228666666665" lon="8.60170445"><ele>331.0</ele><time>2026-04-25T18:32:02.635Z</time></trkpt><trkpt lat="45.662213050000005" lon="8.601633333333332"><ele>331.3333333333333</ele><time>2026-04-25T18:32:03.633Z</time></trkpt><trkpt lat="45.66212666666667" lon="8.601596666666667"><ele>331.66666666666663</ele><time>2026-04-25T18:32:04.64Z</time></trkpt><trkpt lat="45.662032783333345" lon="8.601574166666667"><ele>332.0</ele><time>2026-04-25T18:32:05.635Z</time></trkpt><trkpt lat="45.66194583333333" lon="8.60153305"><ele>332.3333333333333</ele><time>2026-04-25T18:32:06.634Z</time></trkpt><trkpt lat="45.66187555" lon="8.601460833333334"><ele>332.6666666666667</ele><time>2026-04-25T18:32:07.638Z</time></trkpt><trkpt lat="45.66182666666667" lon="8.601364716666666"><ele>333.0</ele><time>2026-04-25T18:32:08.639Z</time></trkpt><trkpt lat="45.661798616666665" lon="8.601250283333334"><ele>333.5</ele><time>2026-04-25T18:32:09.635Z</time></trkpt><trkpt lat="45.66177805000001" lon="8.601127499999999"><ele>334.0</ele><time>2026-04-25T18:32:10.647Z</time></trkpt><trkpt lat="45.66176166666668" lon="8.60099305"><ele>334.5</ele><time>2026-04-25T18:32:11.634Z</time></trkpt><trkpt lat="45.66175028333334" lon="8.6008625"><ele>335.0</ele><time>2026-04-25T18:32:12.637Z</time></trkpt><trkpt lat="45.66174471666666" lon="8.600756116666668"><ele>335.5</ele><time>2026-04-25T18:32:13.634Z</time></trkpt><trkpt lat="45.66173833333334" lon="8.600616116666666"><ele>336.0</ele><time>2026-04-25T18:32:15.634Z</time></trkpt><trkpt lat="45.66174055" lon="8.600459716666668"><ele>336.1666666666667</ele><time>2026-04-25T18:32:17.634Z</time></trkpt><trkpt lat="45.6617425" lon="8.600281950000001"><ele>336.3333333333333</ele><time>2026-04-25T18:32:19.633Z</time></trkpt><trkpt lat="45.661741116666654" lon="8.600173333333334"><ele>336.5</ele><time>2026-04-25T18:32:20.635Z</time></trkpt><trkpt lat="45.6617425" lon="8.60006195"><ele>336.66666666666663</ele><time>2026-04-25T18:32:21.634Z</time></trkpt><trkpt lat="45.66175778333333" lon="8.599953883333335"><ele>336.8333333333333</ele><time>2026-04-25T18:32:22.637Z</time></trkpt><trkpt lat="45.66178888333334" lon="8.599848616666666"><ele>337.0</ele><time>2026-04-25T18:32:23.638Z</time></trkpt><trkpt lat="45.66182638333333" lon="8.599726116666666"><ele>337.0</ele><time>2026-04-25T18:32:24.634Z</time></trkpt><trkpt lat="45.66186138333334" lon="8.59961805"><ele>337.0</ele><time>2026-04-25T18:32:25.636Z</time></trkpt><trkpt lat="45.661905833333336" lon="8.59948555"><ele>337.0</ele><time>2026-04-25T18:32:26.637Z</time></trkpt><trkpt lat="45.66194778333333" lon="8.599366116666666"><ele>337.0</ele><time>2026-04-25T18:32:27.632Z</time></trkpt><trkpt lat="45.66198666666666" lon="8.599266949999999"><ele>337.0</ele><time>2026-04-25T18:32:28.638Z</time></trkpt><trkpt lat="45.66203971666667" lon="8.599176116666666"><ele>337.0</ele><time>2026-04-25T18:32:29.635Z</time></trkpt><trkpt lat="45.66211764731391" lon="8.599130488673952"><ele>335.20000000000005</ele><time>2026-04-25T18:32:30.635Z</time></trkpt><trkpt lat="45.662201854364675" lon="8.599092155814413"><ele>333.4</ele><time>2026-04-25T18:32:31.632Z</time></trkpt><trkpt lat="45.66229424360863" lon="8.599047622117945"><ele>331.6</ele><time>2026-04-25T18:32:32.638Z</time></trkpt><trkpt lat="45.6623923209972" lon="8.5990003465705"><ele>329.79999999999995</ele><time>2026-04-25T18:32:33.637Z</time></trkpt><trkpt lat="45.66249502591718" lon="8.598950840464644"><ele>328.0</ele><time>2026-04-25T18:32:34.639Z</time></trkpt><trkpt lat="45.66259555" lon="8.598877783333334"><ele>328.0</ele><time>2026-04-25T18:32:35.636Z</time></trkpt><trkpt lat="45.66270528333333" lon="8.5988275"><ele>328.0</ele><time>2026-04-25T18:32:36.639Z</time></trkpt><trkpt lat="45.66281888333333" lon="8.598774716666666"><ele>328.0</ele><time>2026-04-25T18:32:37.637Z</time></trkpt><trkpt lat="45.66293138333334" lon="8.59872055"><ele>328.0</ele><time>2026-04-25T18:32:38.638Z</time></trkpt><trkpt lat="45.66304528333333" lon="8.598666116666667"><ele>326.16666666666663</ele><time>2026-04-25T18:32:39.634Z</time></trkpt><trkpt lat="45.66313083333333" lon="8.598625"><ele>324.3333333333333</ele><time>2026-04-25T18:32:40.64Z</time></trkpt><trkpt lat="45.66322166666667" lon="8.59858445"><ele>322.5</ele><time>2026-04-25T18:32:41.637Z</time></trkpt><trkpt lat="45.663289166666665" lon="8.598557216666668"><ele>320.6666666666667</ele><time>2026-04-25T18:32:42.636Z</time></trkpt><trkpt lat="45.663356949999994" lon="8.59851445"><ele>318.83333333333337</ele><time>2026-04-25T18:32:43.632Z</time></trkpt><trkpt lat="45.66341278333333" lon="8.598427216666666"><ele>317.0</ele><time>2026-04-25T18:32:44.639Z</time></trkpt><trkpt lat="45.66343833333334" lon="8.59832555"><ele>317.0</ele><time>2026-04-25T18:32:45.638Z</time></trkpt><trkpt lat="45.66346221666666" lon="8.598199450000001"><ele>317.0</ele><time>2026-04-25T18:32:46.638Z</time></trkpt><trkpt lat="45.66348916666667" lon="8.598064716666666"><ele>317.0</ele><time>2026-04-25T18:32:47.636Z</time></trkpt><trkpt lat="45.66351971666666" lon="8.59792195"><ele>317.0</ele><time>2026-04-25T18:32:48.638Z</time></trkpt><trkpt lat="45.66355333333333" lon="8.5977725"><ele>317.0</ele><time>2026-04-25T18:32:49.635Z</time></trkpt><trkpt lat="45.663590000000006" lon="8.597614166666666"><ele>316.75</ele><time>2026-04-25T18:32:50.634Z</time></trkpt><trkpt lat="45.66362805" lon="8.59745055"><ele>316.5</ele><time>2026-04-25T18:32:51.639Z</time></trkpt><trkpt lat="45.663668333333334" lon="8.597280000000001"><ele>316.25</ele><time>2026-04-25T18:32:52.641Z</time></trkpt><trkpt lat="45.66371000000001" lon="8.597103883333334"><ele>316.0</ele><time>2026-04-25T18:32:53.64Z</time></trkpt><trkpt lat="45.66375361666666" lon="8.596923333333333"><ele>316.0</ele><time>2026-04-25T18:32:54.639Z</time></trkpt><trkpt lat="45.663799166666664" lon="8.596739166666666"><ele>316.0</ele><time>2026-04-25T18:32:55.635Z</time></trkpt><trkpt lat="45.663849449999994" lon="8.596555833333333"><ele>316.0</ele><time>2026-04-25T18:32:56.638Z</time></trkpt><trkpt lat="45.66390833333333" lon="8.596379166666665"><ele>316.0</ele><time>2026-04-25T18:32:57.634Z</time></trkpt><trkpt lat="45.663979166666664" lon="8.5962125"><ele>316.5</ele><time>2026-04-25T18:32:58.639Z</time></trkpt><trkpt lat="45.664063883333334" lon="8.596060283333333"><ele>317.0</ele><time>2026-04-25T18:32:59.636Z</time></trkpt><trkpt lat="45.66416138333334" lon="8.595922216666665"><ele>317.5</ele><time>2026-04-25T18:33:00.634Z</time></trkpt><trkpt lat="45.66426528333333" lon="8.59579805"><ele>318.0</ele><time>2026-04-25T18:33:01.638Z</time></trkpt><trkpt lat="45.66437221666667" lon="8.595676383333334"><ele>318.25</ele><time>2026-04-25T18:33:02.636Z</time></trkpt><trkpt lat="45.66447945" lon="8.59555555"><ele>318.5</ele><time>2026-04-25T18:33:03.633Z</time></trkpt><trkpt lat="45.66458554999999" lon="8.595434716666668"><ele>318.75</ele><time>2026-04-25T18:33:04.639Z</time></trkpt><trkpt lat="45.664685549999994" lon="8.595306383333334"><ele>319.0</ele><time>2026-04-25T18:33:05.637Z</time></trkpt><trkpt lat="45.66477083333333" lon="8.595161383333334"><ele>319.0</ele><time>2026-04-25T18:33:06.634Z</time></trkpt><trkpt lat="45.66483750000001" lon="8.595000833333334"><ele>319.0</ele><time>2026-04-25T18:33:07.635Z</time></trkpt><trkpt lat="45.6648875" lon="8.594828333333334"><ele>319.0</ele><time>2026-04-25T18:33:08.641Z</time></trkpt><trkpt lat="45.66492750000001" lon="8.594650283333333"><ele>319.0</ele><time>2026-04-25T18:33:09.634Z</time></trkpt><trkpt lat="45.664965550000005" lon="8.594471383333333"><ele>319.5</ele><time>2026-04-25T18:33:10.639Z</time></trkpt><trkpt lat="45.665006383333335" lon="8.594273616666667"><ele>320.0</ele><time>2026-04-25T18:33:11.635Z</time></trkpt><trkpt lat="45.66503971666666" lon="8.594111116666665"><ele>320.5</ele><time>2026-04-25T18:33:12.637Z</time></trkpt><trkpt lat="45.66507750000001" lon="8.59393445"><ele>321.0</ele><time>2026-04-25T18:33:13.636Z</time></trkpt><trkpt lat="45.66511638333333" lon="8.593757216666667"><ele>320.75</ele><time>2026-04-25T18:33:14.638Z</time></trkpt><trkpt lat="45.66515583333333" lon="8.5935775"><ele>320.5</ele><time>2026-04-25T18:33:15.635Z</time></trkpt><trkpt lat="45.66519666666666" lon="8.593393883333333"><ele>320.25</ele><time>2026-04-25T18:33:16.639Z</time></trkpt><trkpt lat="45.66523694999999" lon="8.593211383333333"><ele>320.0</ele><time>2026-04-25T18:33:17.638Z</time></trkpt><trkpt lat="45.665277783333345" lon="8.59302555"><ele>320.25</ele><time>2026-04-25T18:33:18.635Z</time></trkpt><trkpt lat="45.665318616666674" lon="8.59284055"><ele>320.5</ele><time>2026-04-25T18:33:19.637Z</time></trkpt><trkpt lat="45.66535805" lon="8.59266"><ele>320.75</ele><time>2026-04-25T18:33:20.644Z</time></trkpt><trkpt lat="45.66539554999999" lon="8.592487216666667"><ele>321.0</ele><time>2026-04-25T18:33:21.639Z</time></trkpt><trkpt lat="45.66542861666667" lon="8.59233805"><ele>321.0</ele><time>2026-04-25T18:33:22.636Z</time></trkpt><trkpt lat="45.66545555" lon="8.592214716666666"><ele>321.0</ele><time>2026-04-25T18:33:23.638Z</time></trkpt><trkpt lat="45.665474716666665" lon="8.592126116666666"><ele>321.0</ele><time>2026-04-25T18:33:24.64Z</time></trkpt><trkpt lat="45.66550471666666" lon="8.591984449999998"><ele>321.0</ele><time>2026-04-25T18:33:26.638Z</time></trkpt><trkpt lat="45.66553721666668" lon="8.591827499999999"><ele>321.0</ele><time>2026-04-25T18:33:28.641Z</time></trkpt><trkpt lat="45.66555666666666" lon="8.591735283333332"><ele>321.0</ele><time>2026-04-25T18:33:29.637Z</time></trkpt><trkpt lat="45.66557778333334" lon="8.591634716666665"><ele>322.0</ele><time>2026-04-25T18:33:30.639Z</time></trkpt><trkpt lat="45.665601383333325" lon="8.591524166666668"><ele>323.0</ele><time>2026-04-25T18:33:31.634Z</time></trkpt><trkpt lat="45.66562694999999" lon="8.591404166666667"><ele>324.0</ele><time>2026-04-25T18:33:32.639Z</time></trkpt><trkpt lat="45.66565444999999" lon="8.591275283333331"><ele>325.0</ele><time>2026-04-25T18:33:33.637Z</time></trkpt><trkpt lat="45.66568444999999" lon="8.591136116666666"><ele>326.0</ele><time>2026-04-25T18:33:34.637Z</time></trkpt><trkpt lat="45.665717783333335" lon="8.5909875"><ele>326.75</ele><time>2026-04-25T18:33:35.635Z</time></trkpt><trkpt lat="45.665759449999996" lon="8.590833616666666"><ele>327.5</ele><time>2026-04-25T18:33:36.645Z</time></trkpt><trkpt lat="45.665812499999994" lon="8.590680833333332"><ele>328.25</ele><time>2026-04-25T18:33:37.641Z</time></trkpt><trkpt lat="45.665878883333335" lon="8.590533616666667"><ele>329.0</ele><time>2026-04-25T18:33:38.64Z</time></trkpt><trkpt lat="45.66595888333333" lon="8.590394716666667"><ele>329.25</ele><time>2026-04-25T18:33:39.636Z</time></trkpt><trkpt lat="45.666050283333334" lon="8.590264166666666"><ele>329.5</ele><time>2026-04-25T18:33:40.638Z</time></trkpt><trkpt lat="45.66614861666667" lon="8.59013695"><ele>329.75</ele><time>2026-04-25T18:33:41.637Z</time></trkpt><trkpt lat="45.666250000000005" lon="8.590007499999999"><ele>330.0</ele><time>2026-04-25T18:33:42.643Z</time></trkpt><trkpt lat="45.66635445" lon="8.589875833333334"><ele>330.5</ele><time>2026-04-25T18:33:43.64Z</time></trkpt><trkpt lat="45.666461950000006" lon="8.589741666666667"><ele>331.0</ele><time>2026-04-25T18:33:44.638Z</time></trkpt><trkpt lat="45.66657195" lon="8.589605"><ele>331.5</ele><time>2026-04-25T18:33:45.636Z</time></trkpt><trkpt lat="45.66668416666666" lon="8.589466116666667"><ele>332.0</ele><time>2026-04-25T18:33:46.64Z</time></trkpt><trkpt lat="45.666797216666666" lon="8.589324716666665"><ele>333.0</ele><time>2026-04-25T18:33:47.638Z</time></trkpt><trkpt lat="45.66691111666667" lon="8.589180283333333"><ele>334.0</ele><time>2026-04-25T18:33:48.64Z</time></trkpt><trkpt lat="45.667024999999995" lon="8.589036383333333"><ele>335.0</ele><time>2026-04-25T18:33:49.636Z</time></trkpt><trkpt lat="45.66714028333334" lon="8.588891116666668"><ele>337.0</ele><time>2026-04-25T18:33:50.639Z</time></trkpt><trkpt lat="45.66725666666666" lon="8.58874305"><ele>339.0</ele><time>2026-04-25T18:33:51.636Z</time></trkpt><trkpt lat="45.66737416666666" lon="8.588592783333333"><ele>341.0</ele><time>2026-04-25T18:33:52.636Z</time></trkpt><trkpt lat="45.66749221666667" lon="8.5884425"><ele>341.33333333333337</ele><time>2026-04-25T18:33:53.637Z</time></trkpt><trkpt lat="45.66761" lon="8.588293333333333"><ele>341.6666666666667</ele><time>2026-04-25T18:33:54.639Z</time></trkpt><trkpt lat="45.66772721666666" lon="8.588144999999999"><ele>342.0</ele><time>2026-04-25T18:33:55.638Z</time></trkpt><trkpt lat="45.66784278333333" lon="8.587997783333332"><ele>342.25</ele><time>2026-04-25T18:33:56.636Z</time></trkpt><trkpt lat="45.667955" lon="8.5878525"><ele>342.5</ele><time>2026-04-25T18:33:57.637Z</time></trkpt><trkpt lat="45.66805888333334" lon="8.587708883333333"><ele>342.75</ele><time>2026-04-25T18:33:58.637Z</time></trkpt><trkpt lat="45.66814666666668" lon="8.587559166666667"><ele>343.0</ele><time>2026-04-25T18:33:59.637Z</time></trkpt><trkpt lat="45.66821333333334" lon="8.58739555"><ele>343.0</ele><time>2026-04-25T18:34:00.64Z</time></trkpt><trkpt lat="45.6682525" lon="8.587217783333333"><ele>343.0</ele><time>2026-04-25T18:34:01.636Z</time></trkpt><trkpt lat="45.66826666666666" lon="8.587031383333334"><ele>343.0</ele><time>2026-04-25T18:34:02.642Z</time></trkpt><trkpt lat="45.66826945" lon="8.586841116666667"><ele>343.0</ele><time>2026-04-25T18:34:03.636Z</time></trkpt><trkpt lat="45.66827221666667" lon="8.586646116666666"><ele>343.5</ele><time>2026-04-25T18:34:04.635Z</time></trkpt><trkpt lat="45.66827416666667" lon="8.586446666666665"><ele>344.0</ele><time>2026-04-25T18:34:05.639Z</time></trkpt><trkpt lat="45.66827528333334" lon="8.58624055"><ele>344.5</ele><time>2026-04-25T18:34:06.64Z</time></trkpt><trkpt lat="45.66827555" lon="8.586027783333332"><ele>345.0</ele><time>2026-04-25T18:34:07.637Z</time></trkpt><trkpt lat="45.66827471666667" lon="8.585809999999999"><ele>342.3333333333333</ele><time>2026-04-25T18:34:08.643Z</time></trkpt><trkpt lat="45.66827305" lon="8.585590550000001"><ele>339.66666666666663</ele><time>2026-04-25T18:34:09.636Z</time></trkpt><trkpt lat="45.66827638333333" lon="8.585370283333333"><ele>337.0</ele><time>2026-04-25T18:34:10.637Z</time></trkpt><trkpt lat="45.668294716666665" lon="8.58515"><ele>336.3333333333333</ele><time>2026-04-25T18:34:11.636Z</time></trkpt><trkpt lat="45.66833445" lon="8.584931116666667"><ele>335.6666666666667</ele><time>2026-04-25T18:34:12.639Z</time></trkpt><trkpt lat="45.66839138333333" lon="8.584714716666667"><ele>335.0</ele><time>2026-04-25T18:34:13.637Z</time></trkpt><trkpt lat="45.66846333333333" lon="8.584501383333333"><ele>334.6666666666667</ele><time>2026-04-25T18:34:14.638Z</time></trkpt><trkpt lat="45.668544999999995" lon="8.584288333333333"><ele>334.3333333333333</ele><time>2026-04-25T18:34:15.638Z</time></trkpt><trkpt lat="45.66863278333334" lon="8.584072216666668"><ele>334.0</ele><time>2026-04-25T18:34:16.645Z</time></trkpt><trkpt lat="45.668724450000006" lon="8.58385195"><ele>333.3333333333333</ele><time>2026-04-25T18:34:17.638Z</time></trkpt><trkpt lat="45.66881888333334" lon="8.58363"><ele>332.6666666666667</ele><time>2026-04-25T18:34:18.641Z</time></trkpt><trkpt lat="45.668915000000005" lon="8.5834075"><ele>332.0</ele><time>2026-04-25T18:34:19.634Z</time></trkpt><trkpt lat="45.66901221666667" lon="8.583186116666667"><ele>332.0</ele><time>2026-04-25T18:34:20.637Z</time></trkpt><trkpt lat="45.66910861666667" lon="8.582964716666668"><ele>332.0</ele><time>2026-04-25T18:34:21.634Z</time></trkpt><trkpt lat="45.66920305000001" lon="8.582743333333333"><ele>332.0</ele><time>2026-04-25T18:34:22.634Z</time></trkpt><trkpt lat="45.669296383333325" lon="8.582526383333335"><ele>332.33333333333337</ele><time>2026-04-25T18:34:23.639Z</time></trkpt><trkpt lat="45.66938666666666" lon="8.582315283333333"><ele>332.6666666666667</ele><time>2026-04-25T18:34:24.636Z</time></trkpt><trkpt lat="45.6694725" lon="8.58211195"><ele>333.0</ele><time>2026-04-25T18:34:25.638Z</time></trkpt><trkpt lat="45.66955666666666" lon="8.58191195"><ele>334.5</ele><time>2026-04-25T18:34:26.637Z</time></trkpt><trkpt lat="45.6696375" lon="8.581720833333332"><ele>336.0</ele><time>2026-04-25T18:34:27.635Z</time></trkpt><trkpt lat="45.669715833333335" lon="8.581536383333335"><ele>337.5</ele><time>2026-04-25T18:34:28.64Z</time></trkpt><trkpt lat="45.66978916666667" lon="8.5813625"><ele>339.0</ele><time>2026-04-25T18:34:29.633Z</time></trkpt><trkpt lat="45.669853883333325" lon="8.581210833333333"><ele>339.3333333333333</ele><time>2026-04-25T18:34:30.641Z</time></trkpt><trkpt lat="45.669911666666664" lon="8.581086383333334"><ele>339.6666666666667</ele><time>2026-04-25T18:34:31.633Z</time></trkpt><trkpt lat="45.66996971666667" lon="8.580987783333335"><ele>340.0</ele><time>2026-04-25T18:34:32.64Z</time></trkpt><trkpt lat="45.67002916666667" lon="8.580922500000002"><ele>340.33333333333337</ele><time>2026-04-25T18:34:33.636Z</time></trkpt><trkpt lat="45.67009416666666" lon="8.580888616666666"><ele>340.6666666666667</ele><time>2026-04-25T18:34:37.636Z</time></trkpt><trkpt lat="45.670175" lon="8.580866383333333"><ele>341.0</ele><time>2026-04-25T18:34:39.635Z</time></trkpt><trkpt lat="45.67028388333333" lon="8.580784450000001"><ele>341.4</ele><time>2026-04-25T18:34:41.636Z</time></trkpt><trkpt lat="45.67032028333333" lon="8.580701383333334"><ele>341.8</ele><time>2026-04-25T18:34:42.641Z</time></trkpt><trkpt lat="45.67033166666667" lon="8.580545283333333"><ele>342.2</ele><time>2026-04-25T18:34:44.641Z</time></trkpt><trkpt lat="45.67029401759189" lon="8.580427911701209"><ele>342.59999999999997</ele><time>2026-04-25T18:34:48.64Z</time></trkpt><trkpt lat="45.67027945" lon="8.58025555"><ele>343.0</ele><time>2026-04-25T18:34:50.639Z</time></trkpt><trkpt lat="45.67026221666667" lon="8.580130833333333"><ele>343.75</ele><time>2026-04-25T18:34:51.636Z</time></trkpt><trkpt lat="45.67021830996756" lon="8.57999185741664"><ele>344.5</ele><time>2026-04-25T18:34:52.64Z</time></trkpt><trkpt lat="45.67022166666667" lon="8.579802216666668"><ele>345.25</ele><time>2026-04-25T18:34:53.634Z</time></trkpt><trkpt lat="45.67019583333334" lon="8.579604166666666"><ele>346.0</ele><time>2026-04-25T18:34:54.64Z</time></trkpt><trkpt lat="45.670165833333336" lon="8.579385283333332"><ele>346.0</ele><time>2026-04-25T18:34:55.699Z</time></trkpt><trkpt lat="45.67013388333333" lon="8.579150283333332"><ele>346.0</ele><time>2026-04-25T18:34:56.638Z</time></trkpt><trkpt lat="45.67009971666666" lon="8.5789025"><ele>346.0</ele><time>2026-04-25T18:34:57.642Z</time></trkpt><trkpt lat="45.670064716666666" lon="8.578646116666665"><ele>343.3333333333333</ele><time>2026-04-25T18:34:58.668Z</time></trkpt><trkpt lat="45.67002888333333" lon="8.57838055"><ele>340.6666666666667</ele><time>2026-04-25T18:34:59.691Z</time></trkpt><trkpt lat="45.669993049999995" lon="8.57810695"><ele>338.0</ele><time>2026-04-25T18:35:00.709Z</time></trkpt><trkpt lat="45.66995666666667" lon="8.577827783333333"><ele>336.33333333333337</ele><time>2026-04-25T18:35:01.637Z</time></trkpt><trkpt lat="45.669917500000004" lon="8.577544166666666"><ele>334.6666666666667</ele><time>2026-04-25T18:35:02.661Z</time></trkpt><trkpt lat="45.66987721666666" lon="8.577255833333334"><ele>333.0</ele><time>2026-04-25T18:35:03.674Z</time></trkpt><trkpt lat="45.66983666666667" lon="8.576962783333332"><ele>331.6666666666667</ele><time>2026-04-25T18:35:04.708Z</time></trkpt><trkpt lat="45.66979666666666" lon="8.576665"><ele>330.33333333333337</ele><time>2026-04-25T18:35:05.709Z</time></trkpt><trkpt lat="45.66975861666667" lon="8.576387783333333"><ele>329.0</ele><time>2026-04-25T18:35:06.654Z</time></trkpt><trkpt lat="45.669713050000006" lon="8.576057500000001"><ele>328.33333333333337</ele><time>2026-04-25T18:35:07.679Z</time></trkpt><trkpt lat="45.66967028333333" lon="8.575757216666666"><ele>327.6666666666667</ele><time>2026-04-25T18:35:08.662Z</time></trkpt><trkpt lat="45.66962555" lon="8.57545805"><ele>327.0</ele><time>2026-04-25T18:35:09.709Z</time></trkpt><trkpt lat="45.66957721666666" lon="8.575162500000001"><ele>326.3333333333333</ele><time>2026-04-25T18:35:10.637Z</time></trkpt><trkpt lat="45.66952528333333" lon="8.57487305"><ele>325.66666666666663</ele><time>2026-04-25T18:35:11.639Z</time></trkpt><trkpt lat="45.66947278333334" lon="8.574601116666667"><ele>325.0</ele><time>2026-04-25T18:35:12.64Z</time></trkpt><trkpt lat="45.669422783333324" lon="8.574351383333333"><ele>324.75</ele><time>2026-04-25T18:35:13.642Z</time></trkpt><trkpt lat="45.669376666666665" lon="8.574124166666667"><ele>324.5</ele><time>2026-04-25T18:35:14.641Z</time></trkpt><trkpt lat="45.66933638333333" lon="8.57392055"><ele>324.25</ele><time>2026-04-25T18:35:15.636Z</time></trkpt><trkpt lat="45.669300549999996" lon="8.573738333333335"><ele>324.0</ele><time>2026-04-25T18:35:16.639Z</time></trkpt><trkpt lat="45.66927000000001" lon="8.573584166666667"><ele>324.5</ele><time>2026-04-25T18:35:17.639Z</time></trkpt><trkpt lat="45.66924611666666" lon="8.573459999999999"><ele>325.0</ele><time>2026-04-25T18:35:18.637Z</time></trkpt><trkpt lat="45.66923638333333" lon="8.57336445"><ele>325.5</ele><time>2026-04-25T18:35:19.636Z</time></trkpt><trkpt lat="45.669241666666665" lon="8.573187783333333"><ele>326.0</ele><time>2026-04-25T18:35:21.633Z</time></trkpt><trkpt lat="45.66921555000001" lon="8.573099999999998"><ele>326.5</ele><time>2026-04-25T18:35:22.637Z</time></trkpt><trkpt lat="45.669173050000005" lon="8.573012216666665"><ele>327.0</ele><time>2026-04-25T18:35:23.638Z</time></trkpt><trkpt lat="45.669137500000005" lon="8.572904716666667"><ele>327.20000000000005</ele><time>2026-04-25T18:35:24.638Z</time></trkpt><trkpt lat="45.6691075" lon="8.572780283333334"><ele>327.4</ele><time>2026-04-25T18:35:25.64Z</time></trkpt><trkpt lat="45.66907778333333" lon="8.572643049999998"><ele>327.6</ele><time>2026-04-25T18:35:26.64Z</time></trkpt><trkpt lat="45.66904666666666" lon="8.572493883333335"><ele>327.79999999999995</ele><time>2026-04-25T18:35:27.637Z</time></trkpt><trkpt lat="45.66901333333333" lon="8.572333616666667"><ele>328.0</ele><time>2026-04-25T18:35:28.64Z</time></trkpt><trkpt lat="45.668978616666664" lon="8.572162783333333"><ele>327.5</ele><time>2026-04-25T18:35:29.64Z</time></trkpt><trkpt lat="45.66894278333332" lon="8.571982783333334"><ele>327.0</ele><time>2026-04-25T18:35:30.637Z</time></trkpt><trkpt lat="45.66890555" lon="8.571794166666667"><ele>326.5</ele><time>2026-04-25T18:35:31.642Z</time></trkpt><trkpt lat="45.66886805" lon="8.571603333333334"><ele>326.0</ele><time>2026-04-25T18:35:32.639Z</time></trkpt><trkpt lat="45.668831950000005" lon="8.571417216666667"><ele>326.0</ele><time>2026-04-25T18:35:33.637Z</time></trkpt><trkpt lat="45.66879611666667" lon="8.5712375"><ele>326.0</ele><time>2026-04-25T18:35:34.642Z</time></trkpt><trkpt lat="45.66876333333333" lon="8.571063616666667"><ele>326.0</ele><time>2026-04-25T18:35:35.638Z</time></trkpt><trkpt lat="45.66873916666667" lon="8.570892783333333"><ele>326.0</ele><time>2026-04-25T18:35:36.64Z</time></trkpt><trkpt lat="45.66872778333333" lon="8.570722216666667"><ele>325.8</ele><time>2026-04-25T18:35:37.636Z</time></trkpt><trkpt lat="45.668726666666664" lon="8.570552783333333"><ele>325.6</ele><time>2026-04-25T18:35:38.64Z</time></trkpt><trkpt lat="45.668732500000004" lon="8.570385283333334"><ele>325.4</ele><time>2026-04-25T18:35:39.639Z</time></trkpt><trkpt lat="45.66874278333333" lon="8.57022695"><ele>325.2</ele><time>2026-04-25T18:35:40.635Z</time></trkpt><trkpt lat="45.66875666666667" lon="8.570091116666667"><ele>325.0</ele><time>2026-04-25T18:35:41.64Z</time></trkpt><trkpt lat="45.66878305" lon="8.569982216666666"><ele>325.0</ele><time>2026-04-25T18:35:42.637Z</time></trkpt><trkpt lat="45.66883555" lon="8.569903333333334"><ele>325.0</ele><time>2026-04-25T18:35:43.637Z</time></trkpt><trkpt lat="45.66891166666666" lon="8.569867783333333"><ele>325.0</ele><time>2026-04-25T18:35:44.637Z</time></trkpt><trkpt lat="45.669002500000005" lon="8.569870283333334"><ele>325.0</ele><time>2026-04-25T18:35:45.638Z</time></trkpt><trkpt lat="45.66910111666666" lon="8.569868883333333"><ele>325.0</ele><time>2026-04-25T18:35:46.64Z</time></trkpt><trkpt lat="45.66920721666667" lon="8.569838883333333"><ele>325.0</ele><time>2026-04-25T18:35:47.638Z</time></trkpt><trkpt lat="45.66931666666666" lon="8.569775"><ele>325.0</ele><time>2026-04-25T18:35:48.641Z</time></trkpt><trkpt lat="45.66942971666667" lon="8.569693883333334"><ele>325.0</ele><time>2026-04-25T18:35:49.636Z</time></trkpt><trkpt lat="45.66954971666668" lon="8.569606116666668"><ele>325.0</ele><time>2026-04-25T18:35:50.639Z</time></trkpt><trkpt lat="45.66966638333333" lon="8.569527216666668"><ele>323.25</ele><time>2026-04-25T18:35:51.637Z</time></trkpt><trkpt lat="45.669808883333324" lon="8.5694375"><ele>321.5</ele><time>2026-04-25T18:35:52.642Z</time></trkpt><trkpt lat="45.669935" lon="8.569346383333334"><ele>319.75</ele><time>2026-04-25T18:35:53.639Z</time></trkpt><trkpt lat="45.67005111666667" lon="8.56922805"><ele>318.0</ele><time>2026-04-25T18:35:54.64Z</time></trkpt><trkpt lat="45.67014999999999" lon="8.569075833333333"><ele>318.0</ele><time>2026-04-25T18:35:55.638Z</time></trkpt><trkpt lat="45.67023416666666" lon="8.568897216666667"><ele>318.0</ele><time>2026-04-25T18:35:56.637Z</time></trkpt><trkpt lat="45.67031166666668" lon="8.56870305"><ele>318.0</ele><time>2026-04-25T18:35:57.638Z</time></trkpt><trkpt lat="45.6703875" lon="8.568501383333334"><ele>317.6666666666667</ele><time>2026-04-25T18:35:58.64Z</time></trkpt><trkpt lat="45.670463616666666" lon="8.568294166666668"><ele>317.33333333333337</ele><time>2026-04-25T18:35:59.634Z</time></trkpt><trkpt lat="45.67053945" lon="8.56808305"><ele>317.0</ele><time>2026-04-25T18:36:00.64Z</time></trkpt><trkpt lat="45.670614449999995" lon="8.567871116666668"><ele>318.33333333333337</ele><time>2026-04-25T18:36:01.638Z</time></trkpt><trkpt lat="45.670691383333335" lon="8.567663883333333"><ele>319.6666666666667</ele><time>2026-04-25T18:36:02.636Z</time></trkpt><trkpt lat="45.67077555000001" lon="8.5674675"><ele>321.0</ele><time>2026-04-25T18:36:03.641Z</time></trkpt><trkpt lat="45.67086833333333" lon="8.567286116666665"><ele>321.0</ele><time>2026-04-25T18:36:04.637Z</time></trkpt><trkpt lat="45.67096945" lon="8.567119166666666"><ele>321.0</ele><time>2026-04-25T18:36:05.636Z</time></trkpt><trkpt lat="45.67107694999999" lon="8.566964716666666"><ele>321.0</ele><time>2026-04-25T18:36:06.641Z</time></trkpt><trkpt lat="45.671190833333334" lon="8.566821666666668"><ele>322.5</ele><time>2026-04-25T18:36:07.638Z</time></trkpt><trkpt lat="45.671313049999995" lon="8.566692783333334"><ele>324.0</ele><time>2026-04-25T18:36:08.638Z</time></trkpt><trkpt lat="45.67144305" lon="8.566579716666666"><ele>325.5</ele><time>2026-04-25T18:36:09.642Z</time></trkpt><trkpt lat="45.671568883333336" lon="8.566484449999999"><ele>327.0</ele><time>2026-04-25T18:36:10.639Z</time></trkpt><trkpt lat="45.67170638333334" lon="8.56637945"><ele>327.0</ele><time>2026-04-25T18:36:11.638Z</time></trkpt><trkpt lat="45.67184" lon="8.566263333333334"><ele>327.0</ele><time>2026-04-25T18:36:12.645Z</time></trkpt><trkpt lat="45.671967783333336" lon="8.566133333333333"><ele>327.0</ele><time>2026-04-25T18:36:13.634Z</time></trkpt><trkpt lat="45.672090833333336" lon="8.565992783333334"><ele>327.3333333333333</ele><time>2026-04-25T18:36:14.641Z</time></trkpt><trkpt lat="45.67221166666667" lon="8.565845283333335"><ele>327.66666666666663</ele><time>2026-04-25T18:36:15.639Z</time></trkpt><trkpt lat="45.67233388333334" lon="8.56569305"><ele>328.0</ele><time>2026-04-25T18:36:16.637Z</time></trkpt><trkpt lat="45.67245528333333" lon="8.565539716666665"><ele>328.0</ele><time>2026-04-25T18:36:17.638Z</time></trkpt><trkpt lat="45.6725775" lon="8.565383616666665"><ele>328.0</ele><time>2026-04-25T18:36:18.645Z</time></trkpt><trkpt lat="45.672698616666665" lon="8.565225"><ele>328.0</ele><time>2026-04-25T18:36:19.635Z</time></trkpt><trkpt lat="45.67281861666667" lon="8.565067783333333"><ele>327.3333333333333</ele><time>2026-04-25T18:36:20.639Z</time></trkpt><trkpt lat="45.672937783333325" lon="8.564911383333333"><ele>326.6666666666667</ele><time>2026-04-25T18:36:21.639Z</time></trkpt><trkpt lat="45.67305666666666" lon="8.564753333333334"><ele>326.0</ele><time>2026-04-25T18:36:22.642Z</time></trkpt><trkpt lat="45.67317416666666" lon="8.564592783333334"><ele>325.33333333333337</ele><time>2026-04-25T18:36:23.638Z</time></trkpt><trkpt lat="45.67328971666667" lon="8.56442945"><ele>324.6666666666667</ele><time>2026-04-25T18:36:24.638Z</time></trkpt><trkpt lat="45.67340333333333" lon="8.564265"><ele>324.0</ele><time>2026-04-25T18:36:25.638Z</time></trkpt><trkpt lat="45.673514999999995" lon="8.564101116666665"><ele>325.0</ele><time>2026-04-25T18:36:26.64Z</time></trkpt><trkpt lat="45.67362528333333" lon="8.563937499999998"><ele>326.0</ele><time>2026-04-25T18:36:27.639Z</time></trkpt><trkpt lat="45.67373221666667" lon="8.563777216666667"><ele>327.0</ele><time>2026-04-25T18:36:28.639Z</time></trkpt><trkpt lat="45.67383721666667" lon="8.56362"><ele>327.25</ele><time>2026-04-25T18:36:29.635Z</time></trkpt><trkpt lat="45.673939999999995" lon="8.56346555"><ele>327.5</ele><time>2026-04-25T18:36:30.641Z</time></trkpt><trkpt lat="45.674041116666665" lon="8.563313333333333"><ele>327.75</ele><time>2026-04-25T18:36:31.638Z</time></trkpt><trkpt lat="45.67414278333334" lon="8.563161666666668"><ele>328.0</ele><time>2026-04-25T18:36:32.638Z</time></trkpt><trkpt lat="45.67424361666667" lon="8.563009450000001"><ele>328.5</ele><time>2026-04-25T18:36:33.639Z</time></trkpt><trkpt lat="45.67434388333333" lon="8.56285555"><ele>329.0</ele><time>2026-04-25T18:36:34.64Z</time></trkpt><trkpt lat="45.674445283333334" lon="8.562698616666667"><ele>329.5</ele><time>2026-04-25T18:36:35.636Z</time></trkpt><trkpt lat="45.67454833333333" lon="8.562536666666666"><ele>330.0</ele><time>2026-04-25T18:36:36.642Z</time></trkpt><trkpt lat="45.674649716666664" lon="8.562369716666666"><ele>330.0</ele><time>2026-04-25T18:36:37.64Z</time></trkpt><trkpt lat="45.67474528333334" lon="8.562196383333331"><ele>330.0</ele><time>2026-04-25T18:36:38.641Z</time></trkpt><trkpt lat="45.674829450000004" lon="8.562013616666666"><ele>330.0</ele><time>2026-04-25T18:36:39.638Z</time></trkpt><trkpt lat="45.67490333333333" lon="8.561822216666668"><ele>330.6666666666667</ele><time>2026-04-25T18:36:40.639Z</time></trkpt><trkpt lat="45.67497278333334" lon="8.561626116666668"><ele>331.33333333333337</ele><time>2026-04-25T18:36:41.64Z</time></trkpt><trkpt lat="45.6750425" lon="8.561429166666667"><ele>332.0</ele><time>2026-04-25T18:36:42.64Z</time></trkpt><trkpt lat="45.67511221666667" lon="8.561231383333334"><ele>332.33333333333337</ele><time>2026-04-25T18:36:43.638Z</time></trkpt><trkpt lat="45.675181949999995" lon="8.561032500000001"><ele>332.6666666666667</ele><time>2026-04-25T18:36:44.64Z</time></trkpt><trkpt lat="45.67525166666666" lon="8.560832783333332"><ele>333.0</ele><time>2026-04-25T18:36:45.639Z</time></trkpt><trkpt lat="45.67532083333334" lon="8.560631383333332"><ele>333.6666666666667</ele><time>2026-04-25T18:36:46.64Z</time></trkpt><trkpt lat="45.67538833333333" lon="8.56042695"><ele>334.33333333333337</ele><time>2026-04-25T18:36:47.64Z</time></trkpt><trkpt lat="45.675449166666674" lon="8.56021805"><ele>335.0</ele><time>2026-04-25T18:36:48.64Z</time></trkpt><trkpt lat="45.675506116666675" lon="8.56000695"><ele>335.33333333333337</ele><time>2026-04-25T18:36:49.64Z</time></trkpt><trkpt lat="45.67556221666666" lon="8.559790283333333"><ele>335.6666666666667</ele><time>2026-04-25T18:36:50.642Z</time></trkpt><trkpt lat="45.67561694999999" lon="8.559576116666667"><ele>336.0</ele><time>2026-04-25T18:36:51.639Z</time></trkpt><trkpt lat="45.675670000000004" lon="8.55936695"><ele>335.5</ele><time>2026-04-25T18:36:52.64Z</time></trkpt><trkpt lat="45.67572083333332" lon="8.559163883333333"><ele>335.0</ele><time>2026-04-25T18:36:53.64Z</time></trkpt><trkpt lat="45.67577083333334" lon="8.55896555"><ele>334.5</ele><time>2026-04-25T18:36:54.641Z</time></trkpt><trkpt lat="45.67581805" lon="8.55877695"><ele>334.0</ele><time>2026-04-25T18:36:55.64Z</time></trkpt><trkpt lat="45.67586583333333" lon="8.55859"><ele>333.75</ele><time>2026-04-25T18:36:56.642Z</time></trkpt><trkpt lat="45.67591445" lon="8.558407216666666"><ele>333.5</ele><time>2026-04-25T18:36:57.639Z</time></trkpt><trkpt lat="45.67596471666667" lon="8.558240283333333"><ele>333.25</ele><time>2026-04-25T18:36:58.641Z</time></trkpt><trkpt lat="45.676027216666675" lon="8.558085283333332"><ele>333.0</ele><time>2026-04-25T18:36:59.64Z</time></trkpt><trkpt lat="45.67610249999999" lon="8.557946116666667"><ele>333.0</ele><time>2026-04-25T18:37:00.642Z</time></trkpt><trkpt lat="45.67618611666666" lon="8.557823616666667"><ele>333.0</ele><time>2026-04-25T18:37:01.64Z</time></trkpt><trkpt lat="45.67626611666667" lon="8.55772805"><ele>333.0</ele><time>2026-04-25T18:37:02.642Z</time></trkpt><trkpt lat="45.67633666666668" lon="8.55765695"><ele>333.0</ele><time>2026-04-25T18:37:03.639Z</time></trkpt><trkpt lat="45.676399999999994" lon="8.557606666666667"><ele>333.0</ele><time>2026-04-25T18:37:04.641Z</time></trkpt><trkpt lat="45.67646333333334" lon="8.5575725"><ele>333.0</ele><time>2026-04-25T18:37:05.641Z</time></trkpt><trkpt lat="45.67653" lon="8.55753805"><ele>333.0</ele><time>2026-04-25T18:37:06.642Z</time></trkpt><trkpt lat="45.67659666666666" lon="8.557488333333334"><ele>333.0</ele><time>2026-04-25T18:37:07.639Z</time></trkpt><trkpt lat="45.67665695000001" lon="8.55741695"><ele>333.0</ele><time>2026-04-25T18:37:08.64Z</time></trkpt><trkpt lat="45.67670499999999" lon="8.557313616666667"><ele>333.0</ele><time>2026-04-25T18:37:09.642Z</time></trkpt><trkpt lat="45.67673333333334" lon="8.557183049999999"><ele>333.0</ele><time>2026-04-25T18:37:10.641Z</time></trkpt><trkpt lat="45.67675138333334" lon="8.557032783333334"><ele>332.6666666666667</ele><time>2026-04-25T18:37:11.634Z</time></trkpt><trkpt lat="45.676770283333326" lon="8.556870283333334"><ele>332.33333333333337</ele><time>2026-04-25T18:37:12.643Z</time></trkpt><trkpt lat="45.67679278333333" lon="8.55669945"><ele>332.0</ele><time>2026-04-25T18:37:13.639Z</time></trkpt><trkpt lat="45.676844716666665" lon="8.55633695"><ele>331.75</ele><time>2026-04-25T18:37:15.641Z</time></trkpt><trkpt lat="45.6768675" lon="8.556149716666665"><ele>331.5</ele><time>2026-04-25T18:37:16.641Z</time></trkpt><trkpt lat="45.676892216666666" lon="8.555959716666667"><ele>331.25</ele><time>2026-04-25T18:37:17.64Z</time></trkpt><trkpt lat="45.67691778333333" lon="8.555766383333333"><ele>331.0</ele><time>2026-04-25T18:37:18.642Z</time></trkpt><trkpt lat="45.67694361666666" lon="8.555570833333334"><ele>331.0</ele><time>2026-04-25T18:37:19.64Z</time></trkpt><trkpt lat="45.67696971666666" lon="8.555374449999999"><ele>331.0</ele><time>2026-04-25T18:37:20.645Z</time></trkpt><trkpt lat="45.676993616666664" lon="8.5551775"><ele>331.0</ele><time>2026-04-25T18:37:21.639Z</time></trkpt><trkpt lat="45.67701195" lon="8.554978049999999"><ele>331.0</ele><time>2026-04-25T18:37:22.643Z</time></trkpt><trkpt lat="45.67702055" lon="8.55478"><ele>331.0</ele><time>2026-04-25T18:37:23.641Z</time></trkpt><trkpt lat="45.677016116666664" lon="8.554584716666666"><ele>331.0</ele><time>2026-04-25T18:37:24.641Z</time></trkpt><trkpt lat="45.67699888333333" lon="8.554392783333332"><ele>331.0</ele><time>2026-04-25T18:37:25.64Z</time></trkpt><trkpt lat="45.676973333333336" lon="8.554203883333335"><ele>331.0</ele><time>2026-04-25T18:37:26.642Z</time></trkpt><trkpt lat="45.676942216666674" lon="8.554021666666667"><ele>330.75</ele><time>2026-04-25T18:37:27.636Z</time></trkpt><trkpt lat="45.676907216666656" lon="8.553840000000001"><ele>330.5</ele><time>2026-04-25T18:37:28.641Z</time></trkpt><trkpt lat="45.67686833333334" lon="8.55366805"><ele>330.25</ele><time>2026-04-25T18:37:29.64Z</time></trkpt><trkpt lat="45.67682945" lon="8.553507783333334"><ele>330.0</ele><time>2026-04-25T18:37:30.642Z</time></trkpt><trkpt lat="45.676795283333334" lon="8.553360283333335"><ele>330.8</ele><time>2026-04-25T18:37:31.644Z</time></trkpt><trkpt lat="45.676767500000004" lon="8.553226116666666"><ele>331.6</ele><time>2026-04-25T18:37:32.652Z</time></trkpt><trkpt lat="45.67675138333334" lon="8.553101949999999"><ele>332.4</ele><time>2026-04-25T18:37:33.641Z</time></trkpt><trkpt lat="45.67673916666666" lon="8.552992499999998"><ele>333.2</ele><time>2026-04-25T18:37:34.642Z</time></trkpt><trkpt lat="45.676740283333324" lon="8.552834166666665"><ele>334.0</ele><time>2026-04-25T18:37:36.648Z</time></trkpt><trkpt lat="45.67680805" lon="8.55275805"><ele>334.6</ele><time>2026-04-25T18:37:38.64Z</time></trkpt><trkpt lat="45.67693138333334" lon="8.552760000000001"><ele>335.2</ele><time>2026-04-25T18:37:40.64Z</time></trkpt><trkpt lat="45.67700833333333" lon="8.552761666666667"><ele>335.8</ele><time>2026-04-25T18:37:41.64Z</time></trkpt><trkpt lat="45.6770925" lon="8.55275945"><ele>336.40000000000003</ele><time>2026-04-25T18:37:42.641Z</time></trkpt><trkpt lat="45.67718611666666" lon="8.552751116666666"><ele>337.0</ele><time>2026-04-25T18:37:43.641Z</time></trkpt><trkpt lat="45.67728833333334" lon="8.552746383333334"><ele>337.20000000000005</ele><time>2026-04-25T18:37:44.659Z</time></trkpt><trkpt lat="45.677394166666666" lon="8.552756666666667"><ele>337.4</ele><time>2026-04-25T18:37:45.684Z</time></trkpt><trkpt lat="45.67749666666667" lon="8.552778616666666"><ele>337.6</ele><time>2026-04-25T18:37:46.645Z</time></trkpt><trkpt lat="45.67759388333334" lon="8.5528175"><ele>337.79999999999995</ele><time>2026-04-25T18:37:47.641Z</time></trkpt><trkpt lat="45.67768611666667" lon="8.552863616666667"><ele>338.0</ele><time>2026-04-25T18:37:48.641Z</time></trkpt><trkpt lat="45.677775000000004" lon="8.552912216666666"><ele>338.4</ele><time>2026-04-25T18:37:49.642Z</time></trkpt><trkpt lat="45.677861666666665" lon="8.552963049999999"><ele>338.79999999999995</ele><time>2026-04-25T18:37:50.64Z</time></trkpt><trkpt lat="45.67794528333334" lon="8.553008616666666"><ele>339.2</ele><time>2026-04-25T18:37:51.703Z</time></trkpt><trkpt lat="45.67803000000001" lon="8.55304445"><ele>339.6</ele><time>2026-04-25T18:37:52.638Z</time></trkpt><trkpt lat="45.678116949999996" lon="8.553072216666667"><ele>340.0</ele><time>2026-04-25T18:37:53.642Z</time></trkpt><trkpt lat="45.678207216666664" lon="8.553096666666667"><ele>340.0</ele><time>2026-04-25T18:37:54.638Z</time></trkpt><trkpt lat="45.67830028333333" lon="8.553125"><ele>340.0</ele><time>2026-04-25T18:37:55.641Z</time></trkpt><trkpt lat="45.67839694999999" lon="8.5531575"><ele>340.0</ele><time>2026-04-25T18:37:56.639Z</time></trkpt><trkpt lat="45.678497500000006" lon="8.553193883333334"><ele>340.0</ele><time>2026-04-25T18:37:57.639Z</time></trkpt><trkpt lat="45.67860138333334" lon="8.553232783333334"><ele>340.0</ele><time>2026-04-25T18:37:58.637Z</time></trkpt><trkpt lat="45.67870945" lon="8.553271666666665"><ele>340.25</ele><time>2026-04-25T18:37:59.638Z</time></trkpt><trkpt lat="45.67882195000001" lon="8.553310833333335"><ele>340.5</ele><time>2026-04-25T18:38:00.641Z</time></trkpt><trkpt lat="45.67893945000001" lon="8.553353616666667"><ele>340.75</ele><time>2026-04-25T18:38:01.638Z</time></trkpt><trkpt lat="45.67906111666666" lon="8.553400283333334"><ele>341.0</ele><time>2026-04-25T18:38:02.643Z</time></trkpt><trkpt lat="45.679185833333335" lon="8.55345"><ele>341.0</ele><time>2026-04-25T18:38:03.639Z</time></trkpt><trkpt lat="45.679310833333325" lon="8.553499166666667"><ele>341.0</ele><time>2026-04-25T18:38:04.643Z</time></trkpt><trkpt lat="45.679438883333326" lon="8.553547216666669"><ele>341.0</ele><time>2026-04-25T18:38:05.638Z</time></trkpt><trkpt lat="45.67956583333333" lon="8.553592783333333"><ele>341.0</ele><time>2026-04-25T18:38:06.643Z</time></trkpt><trkpt lat="45.679690550000004" lon="8.553634166666667"><ele>341.25</ele><time>2026-04-25T18:38:07.636Z</time></trkpt><trkpt lat="45.679813333333335" lon="8.553670283333334"><ele>341.5</ele><time>2026-04-25T18:38:08.644Z</time></trkpt><trkpt lat="45.67993249999999" lon="8.553699716666667"><ele>341.75</ele><time>2026-04-25T18:38:09.64Z</time></trkpt><trkpt lat="45.680048883333335" lon="8.553725283333334"><ele>342.0</ele><time>2026-04-25T18:38:10.641Z</time></trkpt><trkpt lat="45.680161950000006" lon="8.55374805"><ele>341.6666666666667</ele><time>2026-04-25T18:38:11.639Z</time></trkpt><trkpt lat="45.68026778333333" lon="8.553767783333333"><ele>341.3333333333333</ele><time>2026-04-25T18:38:12.642Z</time></trkpt><trkpt lat="45.68036361666666" lon="8.55378445"><ele>341.0</ele><time>2026-04-25T18:38:13.636Z</time></trkpt><trkpt lat="45.68044638333335" lon="8.553797216666668"><ele>340.66666666666663</ele><time>2026-04-25T18:38:14.647Z</time></trkpt><trkpt lat="45.680515833333324" lon="8.553808616666668"><ele>340.3333333333333</ele><time>2026-04-25T18:38:15.639Z</time></trkpt><trkpt lat="45.680597500000005" lon="8.55382305"><ele>340.0</ele><time>2026-04-25T18:38:17.64Z</time></trkpt><trkpt lat="45.68068842969096" lon="8.553842055032895"><ele>340.0</ele><time>2026-04-25T18:39:20.768Z</time></trkpt><trkpt lat="45.680778410823855" lon="8.55384214380913"><ele>340.0</ele><time>2026-04-25T18:40:25.992Z</time></trkpt><trkpt lat="45.68090781809693" lon="8.553780545299274"><ele>340.0</ele><time>2026-04-25T18:40:31.992Z</time></trkpt><trkpt lat="45.68087989493179" lon="8.553694765809173"><ele>340.0</ele><time>2026-04-25T18:40:42.999Z</time></trkpt><trkpt lat="45.68080981725574" lon="8.553667118464933"><ele>340.0</ele><time>2026-04-25T18:41:13.998Z</time></trkpt><trkpt lat="45.68094394428336" lon="8.553654792361929"><ele>340.0</ele><time>2026-04-25T18:45:58.999Z</time></trkpt><trkpt lat="45.68080007290887" lon="8.55367841291242"><ele>340.0</ele><time>2026-04-25T18:46:02.998Z</time></trkpt><trkpt lat="45.68086565448367" lon="8.55369819451004"><ele>340.0</ele><time>2026-04-25T18:47:51.999Z</time></trkpt><trkpt lat="45.680797226303866" lon="8.553698290385254"><ele>340.0</ele><time>2026-04-25T18:51:24.999Z</time></trkpt><trkpt lat="45.68086579225868" lon="8.553649629596755"><ele>340.0</ele><time>2026-04-25T18:52:35.997Z</time></trkpt><trkpt lat="45.6808421330346" lon="8.55373430909556"><ele>340.0</ele><time>2026-04-25T18:55:37.999Z</time></trkpt><trkpt lat="45.680785868668536" lon="8.553688193032675"><ele>340.0</ele><time>2026-04-25T18:55:47.999Z</time></trkpt><trkpt lat="45.680742499999994" lon="8.553756383333333"><ele>340.0</ele><time>2026-04-25T18:56:24.066Z</time></trkpt><trkpt lat="45.68067695" lon="8.55377945"><ele>340.0</ele><time>2026-04-25T18:56:34.095Z</time></trkpt><trkpt lat="45.68077083333333" lon="8.553844999999999"><ele>340.0</ele><time>2026-04-25T18:56:44.116Z</time></trkpt><trkpt lat="45.680870549999995" lon="8.553888333333333"><ele>340.0</ele><time>2026-04-25T18:56:46.063Z</time></trkpt><trkpt lat="45.68080720107954" lon="8.553873078594096"><ele>340.0</ele><time>2026-04-25T18:57:46Z</time></trkpt><trkpt lat="45.68081270664517" lon="8.553777697461292"><ele>340.0</ele><time>2026-04-25T18:57:47.999Z</time></trkpt><trkpt lat="45.680735121013264" lon="8.553788727869142"><ele>340.0</ele><time>2026-04-25T18:57:51.999Z</time></trkpt><trkpt lat="45.68080775643426" lon="8.553747580252816"><ele>340.0</ele><time>2026-04-25T18:58:04.999Z</time></trkpt></trkseg></trk></gpx>